GFSSGP_500_rhum_000.txt.gz
RH
13 17 18 16 18 18 18 18 16 14 16 22 23 22 34 21 16 27 29 30 30 20 24 20 17 14 12 10 9 9 12 14 14 14 12 13 15 16 18 13 20 22 24 15 10 8 9 10 11
8 15 20 18 18 19 21 19 20 19 16 15 17 23 25 27 35 24 30 40 27 25 21 18 17 15 14 12 12 14 15 20 19 19 17 17 18 21 24 19 12 9 15 16 13 10 10 12 12
10 8 15 18 18 22 23 23 22 25 24 21 16 18 26 25 29 34 49 48 31 24 25 24 20 18 15 14 15 21 23 25 23 23 26 25 20 18 22 29 26 21 9 6 11 13 13 13 13
14 12 8 10 19 26 29 26 25 24 24 23 19 17 23 28 34 49 42 76 50 25 30 35 26 20 18 20 24 29 28 25 24 28 28 24 22 22 27 27 27 29 28 24 19 13 12 14 14
16 14 12 8 15 36 33 28 30 28 25 24 22 18 19 23 30 30 29 26 29 29 36 40 28 20 21 24 27 35 32 31 35 31 35 34 33 32 30 29 30 31 30 29 29 29 29 29 26
14 15 12 12 14 21 40 39 31 30 30 28 23 19 18 22 23 28 26 22 22 25 32 32 29 24 23 27 38 42 36 36 37 37 39 32 31 31 32 33 33 34 35 36 36 36 36 37 37
14 15 14 15 16 16 27 38 43 38 35 31 24 21 21 23 25 24 22 20 25 30 36 34 33 29 26 33 42 51 43 40 44 38 40 32 34 35 36 38 39 39 38 34 32 32 31 29 27
16 15 14 15 18 19 22 22 41 47 41 34 27 24 24 24 26 28 24 24 32 37 36 37 39 37 32 35 43 54 52 42 51 43 42 33 35 38 38 38 40 41 40 42 42 40 35 32 31
10 10 12 15 15 18 25 22 22 38 49 41 33 30 28 26 24 27 28 27 33 37 36 37 39 34 32 30 46 67 62 53 54 54 43 38 36 38 39 39 38 36 36 35 35 37 40 38 32
10 9 13 13 15 19 22 19 19 20 40 46 41 37 30 27 25 25 28 30 35 39 35 34 39 39 30 25 27 62 69 58 53 55 52 40 39 43 43 38 36 38 42 47 48 44 41 39 37
13 11 15 14 16 19 21 22 20 18 22 51 46 40 32 27 27 26 27 31 34 38 38 37 36 32 32 26 24 30 71 63 53 52 54 46 41 47 44 38 38 45 45 47 44 41 40 38 45
14 14 14 15 14 18 20 19 14 12 16 23 47 45 38 32 29 30 28 29 32 34 36 36 34 31 31 28 22 34 35 62 62 56 51 55 52 51 50 40 45 50 48 47 40 40 44 46 39
10 16 18 14 14 14 19 19 14 8 10 16 21 45 44 40 34 35 32 29 31 34 32 31 31 32 31 30 26 38 41 47 68 65 59 57 61 59 55 46 50 49 47 42 39 46 46 44 43
14 16 16 20 14 15 16 19 18 15 13 11 13 19 46 46 43 35 35 35 31 31 35 30 27 30 30 30 29 31 63 70 82 79 71 66 60 60 54 50 51 47 43 36 41 43 52 55 54
16 16 18 21 23 15 15 14 15 20 22 19 13 12 17 39 49 41 36 38 36 34 30 34 31 26 25 27 27 30 60 81 83 74 75 69 61 56 56 51 49 48 43 49 50 52 54 51 45
13 16 21 27 23 20 17 9 13 12 21 21 20 15 12 13 31 47 41 39 36 39 32 27 31 30 24 24 27 56 67 83 75 71 68 62 59 54 47 49 48 47 53 52 48 48 44 42 42
16 16 19 29 32 25 19 12 13 16 20 25 22 20 17 15 14 21 46 43 41 38 37 28 28 29 20 21 27 48 62 79 80 73 58 55 54 48 48 48 45 38 47 52 46 43 38 26 13
17 15 17 18 28 37 22 13 13 14 18 19 25 20 18 17 16 14 18 43 44 39 37 31 28 29 16 17 24 41 55 75 73 68 55 54 52 50 48 48 26 39 43 40 34 22 12 12 18
15 16 15 24 27 28 33 18 18 14 16 18 21 20 18 18 19 15 13 24 48 42 39 33 26 29 20 21 30 44 52 70 74 67 56 57 53 50 51 34 27 40 44 38 28 13 18 26 25
18 17 17 21 35 32 30 22 24 15 13 17 18 22 18 16 19 17 12 14 40 45 41 38 27 31 38 36 26 43 52 67 75 70 64 61 57 52 49 50 49 50 44 30 15 16 28 29 39
19 19 20 25 37 37 34 16 28 28 19 19 20 22 20 17 18 22 16 15 18 44 43 41 32 26 42 36 31 37 59 68 77 76 72 64 60 52 48 52 55 52 39 21 15 24 27 30 41
23 24 25 23 27 29 50 16 17 21 20 18 20 19 23 20 21 24 22 17 13 41 44 38 37 25 28 35 31 31 47 56 67 72 72 66 60 51 46 49 54 50 31 13 19 26 28 44 60
31 32 36 34 36 37 35 41 13 22 17 14 15 23 26 27 25 27 26 18 16 27 47 37 37 29 25 29 37 40 41 44 49 59 63 60 54 47 41 47 50 38 15 15 25 35 55 62 58
74 65 61 58 58 42 34 49 14 23 22 23 28 26 28 30 28 33 29 19 15 22 46 40 41 36 32 27 27 41 40 37 40 46 47 47 46 40 38 46 40 20 14 24 44 62 66 58 60
63 61 70 72 62 45 44 45 20 24 32 27 32 32 29 28 26 31 32 21 15 28 46 41 41 39 34 31 34 22 16 20 26 34 37 41 42 33 39 39 22 14 25 49 69 70 66 63 58
100 100 97 63 53 45 40 27 22 28 32 32 34 40 35 32 30 34 33 21 23 40 44 43 41 37 33 33 35 21 6 10 17 31 42 41 34 35 33 20 16 24 47 71 69 67 66 59 44
100 100 95 100 97 87 42 22 18 22 31 38 35 40 33 35 35 39 36 24 34 54 44 43 40 36 31 30 32 24 7 4 8 12 22 30 32 26 22 18 22 53 72 78 66 66 63 48 62
86 99 98 98 94 81 61 38 25 30 44 44 37 30 36 34 33 40 39 28 55 55 45 40 37 36 34 33 36 28 10 3 6 11 17 20 28 23 19 24 57 76 80 67 66 68 59 72 79
100 86 93 100 99 78 53 38 41 36 39 41 35 29 32 32 39 51 42 40 64 59 46 41 38 38 40 45 46 44 35 14 11 20 23 30 23 21 30 58 73 78 68 65 76 71 76 85 67
70 62 62 54 47 59 60 28 55 65 56 38 46 42 39 42 44 50 44 62 61 56 45 39 40 43 46 48 53 49 36 25 26 21 31 26 22 35 60 67 73 71 73 78 80 89 85 59 69

GFSSGP_500_rhum_003.txt.gz
RH
7 6 8 10 14 14 17 17 16 15 15 15 18 22 23 27 29 33 24 17 17 21 26 26 22 19 17 14 12 10 8 10 11 11 11 10 10 12 13 14 13 16 21 21 22 15 10 9 10
11 9 6 7 12 15 18 20 19 18 18 18 18 18 22 32 50 39 24 24 28 20 22 20 16 15 15 15 13 10 11 13 16 14 12 12 13 13 17 20 18 12 9 14 17 15 13 11 12
13 13 10 7 6 19 22 23 24 22 22 22 22 21 20 31 83 65 94 53 62 44 28 29 27 14 16 16 15 14 16 20 22 18 18 17 16 15 16 19 25 26 23 17 9 8 11 14 13
14 13 12 8 8 16 28 24 25 25 27 27 24 22 22 27 47 30 57 43 87 98 94 56 36 36 20 19 19 19 24 28 27 24 25 23 24 23 20 22 24 27 27 28 28 26 25 24 22
13 13 11 10 12 11 28 29 27 28 28 27 25 24 23 24 27 33 30 33 74 65 52 51 45 29 24 24 22 22 32 34 33 36 34 35 34 32 30 30 27 30 31 31 32 33 33 33 33
14 13 10 11 14 14 21 31 33 32 34 32 28 27 25 29 28 27 36 36 41 34 31 44 40 34 29 28 26 33 42 40 38 38 39 38 32 31 31 32 33 34 34 34 34 34 33 33 33
13 14 10 12 14 16 18 16 18 32 38 36 32 29 25 24 26 28 30 35 38 33 36 37 44 35 33 33 31 33 44 49 41 42 42 43 33 33 35 38 38 39 39 39 38 38 38 37 35
12 12 12 13 15 16 18 18 17 15 32 42 35 31 27 25 24 25 28 41 39 29 31 46 44 38 37 36 31 29 34 54 51 45 47 46 38 38 39 39 40 39 37 34 32 31 33 34 34
11 9 11 15 16 18 19 20 20 17 15 37 43 36 30 29 28 31 34 42 35 31 40 43 41 38 40 37 33 27 34 54 61 51 54 50 45 38 38 41 42 39 35 35 36 40 39 41 41
11 10 12 11 14 18 20 21 20 15 15 16 36 43 35 34 31 31 35 38 36 33 42 47 41 37 40 38 33 26 24 54 73 64 56 57 52 42 39 43 44 42 37 37 43 47 44 32 38
11 13 14 12 12 13 14 14 17 11 12 17 17 36 40 35 34 30 30 34 35 34 36 42 40 39 40 38 34 30 22 29 57 70 57 53 55 52 42 46 49 43 38 44 50 49 37 33 37
8 13 15 15 13 14 15 14 14 12 12 13 14 15 34 42 37 34 32 33 34 33 34 37 38 36 35 33 32 29 22 29 35 59 67 58 58 54 55 51 55 49 44 45 48 46 32 35 41
10 13 12 13 14 13 15 15 16 14 12 12 12 13 17 39 44 39 33 32 35 35 33 34 34 35 34 32 31 30 28 30 42 42 65 69 62 59 59 63 57 57 48 42 48 44 33 38 40
11 13 14 14 13 13 15 15 14 18 19 12 12 11 13 18 46 46 38 35 34 36 38 36 32 30 29 30 30 31 32 29 46 57 56 68 68 66 64 59 56 55 47 49 46 45 42 45 45
10 11 13 17 17 13 12 11 11 16 21 16 13 17 14 13 21 49 50 42 41 37 36 37 39 34 30 25 25 33 43 42 35 68 79 77 74 71 64 57 55 49 49 48 46 50 50 49 48
9 10 13 15 18 17 15 10 14 14 14 19 18 16 18 15 12 19 49 49 46 43 40 37 36 34 32 30 31 39 41 45 53 62 82 71 71 66 62 55 49 47 47 46 40 40 53 50 42
11 9 12 14 14 16 14 12 14 14 12 13 16 12 12 18 15 12 18 23 41 46 46 41 38 36 29 28 37 47 38 44 52 58 76 69 66 56 53 49 46 48 47 46 29 41 42 34 26
9 8 8 10 12 12 12 10 12 14 13 13 14 13 10 13 21 16 15 12 11 28 48 48 42 36 34 28 31 35 33 42 44 51 69 72 61 49 47 47 49 48 47 22 31 42 43 36 18
14 13 12 12 15 15 15 14 12 14 13 12 13 13 12 11 20 21 20 16 14 11 30 50 47 41 38 31 31 37 30 26 37 52 69 74 61 50 52 52 51 50 48 47 47 49 43 25 13
19 18 17 17 17 16 15 14 13 13 13 14 15 16 13 16 21 23 24 21 19 14 16 38 46 44 41 36 33 40 40 29 44 56 74 77 69 58 59 58 54 49 47 52 55 53 40 18 14
23 23 23 22 22 21 18 14 16 15 14 15 17 20 23 22 28 25 26 23 22 17 14 29 48 44 41 48 42 49 52 39 48 60 68 80 80 71 67 64 59 52 47 47 48 49 34 15 17
23 24 25 24 23 19 22 14 13 17 17 16 16 22 24 29 37 31 26 23 24 18 14 16 36 45 40 45 50 39 49 41 37 52 70 78 79 76 76 69 62 52 46 44 43 43 27 14 25
34 33 33 40 40 29 23 22 10 14 17 18 29 22 28 27 30 34 32 27 28 22 16 15 24 42 41 45 46 36 40 44 29 33 45 52 58 63 63 59 52 46 43 40 40 38 15 16 35
22 22 21 21 20 44 36 30 17 16 18 18 27 38 29 23 21 26 34 30 33 28 20 16 18 39 45 48 48 39 33 39 41 42 43 40 44 47 46 43 40 39 43 38 37 17 15 27 41
40 36 27 32 32 40 61 62 25 20 20 20 22 37 43 28 25 24 26 34 40 34 24 19 18 31 45 48 49 46 39 30 29 34 35 31 28 28 31 34 38 38 36 34 18 16 27 34 56
28 36 33 98 100 100 100 64 31 27 25 26 28 38 44 42 36 33 32 38 42 41 28 20 18 36 46 48 50 48 40 34 31 28 14 12 15 20 31 35 35 36 30 19 18 27 37 52 57
38 46 69 100 100 100 82 66 44 35 32 32 32 36 44 35 39 42 37 34 36 41 30 21 32 44 49 48 51 45 38 34 35 32 15 7 12 21 28 32 32 30 20 20 27 34 46 55 59
45 43 41 62 100 94 78 55 43 42 41 37 28 25 36 37 34 34 39 40 39 39 32 23 29 41 51 49 44 39 33 30 30 25 14 5 11 21 33 36 31 22 21 27 32 44 59 69 75
57 68 65 65 100 100 84 57 42 45 44 35 30 21 29 37 34 35 37 40 42 39 30 23 34 47 53 47 43 40 36 32 34 34 32 20 18 33 44 34 25 22 28 32 49 70 80 81 82
98 100 100 93 59 62 58 32 39 48 61 56 30 28 22 33 31 35 39 44 42 40 29 37 51 59 51 46 45 43 42 45 51 48 41 30 28 45 38 30 29 33 45 64 81 86 84 68 41

GFSSGP_500_rhum_006.txt.gz
RH
7 6 6 6 9 10 13 13 14 14 13 11 13 18 20 23 27 37 28 24 18 14 15 21 24 21 18 13 12 11 11 10 9 9 10 9 9 10 10 10 11 11 12 16 19 18 18 15 11
9 9 8 7 7 9 14 15 16 16 16 15 15 15 18 19 24 32 30 27 24 24 19 22 14 13 13 12 10 11 11 10 10 11 11 11 11 11 11 13 14 15 14 14 18 21 20 17 14
10 10 10 8 8 7 15 18 16 17 18 18 18 18 18 18 25 32 83 60 35 41 49 34 37 17 10 11 12 12 11 12 14 15 16 16 15 14 13 13 17 20 21 19 14 11 8 9 12
12 11 9 8 9 11 9 14 18 19 21 20 21 22 22 22 26 39 96 75 97 95 50 83 86 68 31 12 12 13 13 14 20 21 18 18 18 18 17 16 18 19 23 26 26 27 27 27 26
12 11 10 9 11 13 11 12 20 22 22 24 23 22 24 23 25 44 45 56 53 45 43 97 96 67 21 17 15 15 16 19 23 27 28 27 28 28 29 28 28 25 26 29 31 33 34 36 35
10 11 9 9 14 15 16 12 11 24 25 26 28 26 26 27 25 26 29 28 53 34 38 37 29 35 20 20 24 22 21 27 30 32 36 35 35 32 31 31 32 33 33 34 36 37 37 36 36
7 8 8 11 14 14 16 14 12 11 24 29 25 28 27 28 27 28 36 36 39 35 27 35 37 34 28 25 27 26 23 24 34 35 38 42 43 34 34 33 34 38 38 38 37 35 33 32 31
8 8 8 11 16 15 16 16 15 13 13 22 31 32 33 29 28 28 30 39 52 43 41 41 38 33 34 32 36 31 27 23 25 38 40 49 47 40 37 38 39 40 40 38 36 34 32 37 40
10 7 8 12 15 15 17 16 15 14 14 14 18 31 34 33 30 28 28 32 38 37 45 36 36 44 40 35 39 36 29 24 26 43 48 47 52 48 42 40 41 42 44 39 37 36 37 45 40
9 8 13 13 12 14 17 16 16 14 14 14 15 17 22 35 36 34 30 33 32 33 39 33 31 41 44 41 53 60 34 28 22 32 50 51 51 56 50 43 45 46 47 44 40 40 41 47 36
8 9 12 14 12 10 10 12 14 14 12 15 16 15 14 21 39 41 37 35 31 32 38 38 37 46 50 48 42 41 38 34 25 24 33 48 51 51 56 53 44 46 51 50 43 44 40 47 39
8 10 11 15 14 12 10 9 10 11 12 10 10 10 12 13 18 41 43 38 33 33 35 37 38 42 45 45 42 36 36 32 28 23 32 39 54 52 52 55 56 50 53 58 51 48 38 47 44
7 10 11 12 14 13 11 11 10 10 13 12 10 11 11 12 14 27 46 44 36 33 36 34 35 36 38 39 38 34 32 30 30 27 31 34 42 54 61 60 57 58 58 61 55 52 42 47 46
9 11 12 13 13 12 11 13 9 15 14 12 12 13 14 12 14 17 44 48 42 37 34 33 33 34 34 35 35 33 30 30 31 32 32 45 47 47 56 64 65 61 56 56 52 48 47 47 47
8 10 10 14 14 12 12 10 9 14 13 12 12 11 14 11 12 14 20 47 50 45 34 33 33 34 34 34 33 30 28 28 29 32 44 36 52 64 72 72 72 66 59 53 48 47 47 46 41
10 9 10 15 12 11 11 12 13 14 14 13 14 13 12 16 16 12 15 22 39 48 44 37 37 36 36 36 35 34 31 28 33 41 44 44 51 70 75 73 69 63 59 50 45 47 48 46 28
10 8 8 9 9 8 9 9 13 14 13 12 13 13 11 14 18 19 13 14 19 22 41 46 45 41 37 35 35 33 34 37 47 47 42 40 56 70 73 70 62 55 47 44 47 48 42 25 39
8 7 8 8 9 9 9 6 10 12 12 12 13 12 12 10 13 18 19 15 13 11 15 46 52 47 43 39 37 46 46 41 46 43 38 40 49 66 75 68 51 46 43 49 49 47 46 37 45
12 11 10 12 14 11 10 6 8 12 13 13 13 13 14 13 11 14 16 21 16 12 11 11 46 54 50 45 41 41 46 44 35 34 28 32 45 68 76 68 48 49 53 53 50 47 47 51 54
15 16 16 15 15 14 11 6 9 10 12 16 14 13 15 17 18 14 17 19 26 18 15 13 15 44 57 56 53 56 56 52 42 37 34 28 51 61 74 71 59 58 59 59 57 53 48 45 45
18 17 17 17 17 16 16 7 12 12 13 14 15 14 16 17 20 19 20 19 27 24 21 18 14 26 43 58 54 57 52 58 54 49 48 38 51 59 73 79 74 71 70 71 69 59 50 48 47
14 14 13 13 13 14 13 11 11 12 12 15 18 18 17 19 22 22 20 23 27 26 26 24 21 17 21 44 53 54 60 56 53 54 56 43 49 62 71 83 85 77 74 77 81 54 47 48 45
16 21 26 29 32 30 26 23 15 14 12 13 15 21 21 20 22 26 23 25 29 29 28 27 25 20 19 39 50 54 65 60 57 47 53 45 38 50 62 70 67 62 61 58 50 44 44 54 45
28 30 34 38 40 28 24 24 21 18 18 18 16 19 22 23 22 27 32 25 28 26 27 28 25 20 16 16 35 57 60 54 49 39 39 50 40 38 41 41 41 43 42 37 34 38 42 38 32
36 42 45 45 43 34 22 17 18 18 15 13 22 27 24 24 23 28 29 32 30 32 31 31 26 23 18 14 18 56 54 54 50 52 42 42 46 45 40 34 31 27 26 27 36 35 32 28 23
44 47 57 60 48 30 19 25 17 17 10 12 40 48 32 26 27 27 30 29 27 27 32 35 30 28 22 18 17 40 52 56 60 60 48 39 32 26 20 14 13 15 23 30 31 30 27 21 18
46 55 68 74 60 59 50 33 35 37 53 74 92 91 48 29 28 30 36 26 23 23 35 41 38 35 28 21 20 25 47 60 60 55 49 42 37 30 19 15 14 19 25 29 33 30 19 20 19
55 62 88 99 97 95 85 59 26 52 90 99 85 64 60 40 29 29 35 34 23 27 38 43 42 40 34 25 23 21 44 60 57 48 44 42 34 25 17 15 18 26 34 35 30 23 21 21 36
66 71 88 96 85 98 98 62 72 54 66 98 74 53 45 39 30 30 34 37 34 36 38 37 38 38 37 28 20 30 49 59 51 46 44 43 44 45 46 38 33 40 37 32 26 22 38 61 69
83 95 100 100 100 100 100 42 79 53 77 58 65 50 39 33 27 30 36 37 41 43 41 36 34 35 36 29 32 39 60 57 52 52 51 58 62 60 50 42 44 41 37 29 30 62 78 71 64

GFSSGP_500_rhum_009.txt.gz
RH
8 7 6 6 6 6 10 10 11 12 14 11 11 13 12 14 30 57 34 25 18 10 10 11 9 8 10 11 10 10 9 8 8 7 8 8 8 8 9 9 10 10 11 13 17 18 18 17 17
9 9 8 7 6 6 10 10 10 12 13 13 14 15 15 17 14 21 28 27 24 21 18 14 14 12 12 10 9 9 9 9 9 8 8 9 10 10 10 11 11 11 12 13 14 15 16 19 19
11 10 9 8 8 7 9 7 9 10 14 15 15 16 15 16 15 16 24 30 37 30 21 24 26 43 28 11 10 9 10 9 10 11 11 11 11 11 12 11 11 14 16 17 14 12 11 11 10
13 12 10 9 8 11 9 7 7 12 15 17 17 19 17 17 19 21 23 27 82 67 62 50 42 58 72 30 28 12 10 10 10 12 12 12 12 12 13 13 14 15 15 19 25 24 24 27 29
12 11 10 8 9 12 11 10 8 7 13 19 18 20 20 19 21 24 26 31 83 70 87 81 48 36 72 75 39 12 14 14 13 16 17 18 18 19 20 20 21 19 19 21 22 27 30 34 34
12 11 10 8 10 13 13 11 9 8 9 19 23 23 24 20 21 23 26 30 71 54 32 39 26 28 44 39 17 14 15 18 21 28 26 27 27 25 26 26 28 29 30 32 33 36 36 37 35
13 12 9 8 9 12 13 12 10 12 10 12 19 22 27 23 21 21 26 28 32 48 39 47 26 23 24 22 15 17 19 21 20 27 30 31 34 35 34 31 31 32 34 37 38 38 36 34 32
14 11 8 8 10 13 15 11 12 12 11 11 10 27 34 18 27 26 25 25 25 24 25 24 31 30 29 27 21 21 25 29 25 22 25 29 34 41 44 37 35 37 41 41 41 38 36 35 32
14 9 6 9 12 14 14 10 13 11 12 12 14 18 14 23 31 30 29 28 26 24 21 22 25 34 28 27 25 25 30 31 28 24 25 32 37 45 52 46 41 42 43 43 43 40 38 37 35
12 8 8 14 13 12 11 11 12 10 12 12 14 17 15 16 25 33 35 33 31 28 26 25 26 34 30 28 31 33 34 48 40 31 24 28 43 44 52 56 48 42 43 44 46 44 42 39 38
10 8 14 11 13 13 11 10 12 10 12 13 14 16 16 16 15 25 41 40 36 34 29 28 30 35 32 30 39 40 38 37 32 32 31 24 29 52 55 54 57 54 45 43 48 51 48 46 40
8 9 11 11 11 14 13 11 10 9 11 12 11 12 11 16 15 15 18 43 44 40 35 29 30 36 34 35 42 41 39 38 34 30 29 27 23 27 43 55 50 49 55 55 48 49 53 52 43
8 9 9 10 10 13 13 11 10 8 11 12 10 8 10 12 11 12 14 17 41 48 40 34 33 35 38 34 42 40 39 38 35 32 30 29 27 29 37 39 46 47 49 50 53 55 54 56 46
8 8 10 10 10 11 10 13 8 10 11 9 9 8 8 9 11 13 14 16 19 46 46 39 32 32 35 36 34 41 36 36 35 33 31 31 33 33 34 43 41 46 51 57 57 54 54 54 48
9 11 11 11 11 10 9 9 9 13 11 10 10 10 9 8 10 12 12 14 16 22 49 46 39 33 33 34 33 34 36 33 32 31 30 29 32 41 40 38 49 63 70 71 72 65 58 51 46
12 10 11 10 12 10 10 10 11 12 11 10 10 11 11 11 11 14 17 14 15 15 20 42 47 42 35 35 37 36 37 34 32 34 30 30 38 43 45 45 56 74 74 74 69 65 61 50 46
14 14 14 12 12 9 9 9 13 12 13 11 11 12 12 11 10 10 16 16 13 11 12 15 31 46 43 36 37 41 39 42 36 32 33 36 45 49 44 40 57 72 73 70 64 53 47 45 48
18 16 16 16 14 13 9 7 10 11 14 12 13 13 13 12 12 11 11 17 19 15 12 8 11 25 45 47 42 42 42 44 42 42 51 43 42 44 41 46 51 59 75 70 54 44 45 50 48
15 15 14 15 13 11 8 6 5 7 8 14 13 14 13 13 15 14 11 12 19 20 19 15 10 12 14 31 52 52 48 46 58 54 50 46 43 36 33 40 43 56 74 73 50 50 54 55 56
14 15 14 13 14 12 12 7 8 9 8 9 10 12 13 14 15 15 14 12 12 15 22 21 17 13 10 13 36 51 59 58 58 56 58 60 51 40 42 29 43 57 74 76 60 60 62 64 67
17 15 15 14 13 12 11 6 12 8 8 10 14 12 13 16 16 16 17 17 16 14 15 20 18 19 15 12 15 19 46 60 61 64 64 58 56 52 51 33 46 59 74 77 77 73 76 77 77
15 16 16 16 15 14 12 8 10 10 9 10 11 16 14 16 16 16 17 17 17 16 18 16 17 19 21 16 16 12 21 52 60 63 63 63 60 61 67 55 52 58 68 75 81 86 84 76 69
18 15 13 12 15 17 18 22 8 15 16 17 14 12 12 16 19 17 17 18 20 19 16 18 15 21 22 22 20 17 13 16 63 60 68 65 66 54 59 50 44 44 59 68 73 65 50 47 42
15 20 29 28 26 20 22 38 11 16 24 19 18 15 15 17 13 16 18 20 18 19 18 20 15 22 23 25 25 22 17 17 62 61 62 62 62 48 42 53 59 45 39 42 44 42 36 28 22
31 26 25 25 27 25 35 43 24 24 35 32 28 26 25 22 16 16 16 20 20 20 18 22 23 25 27 27 29 26 19 21 44 53 64 63 58 56 52 46 47 49 45 37 25 20 21 21 20
25 25 39 35 38 43 40 47 37 41 35 32 28 21 15 12 18 18 16 18 20 20 18 25 32 30 34 33 30 24 22 23 33 47 65 61 62 64 57 48 41 36 30 21 18 23 28 26 23
29 34 41 46 52 61 40 46 50 45 53 38 24 22 20 36 13 11 16 18 22 20 21 27 37 35 35 33 28 25 26 28 44 44 61 64 66 63 58 52 45 39 31 23 21 30 34 37 34
36 44 52 65 60 74 49 75 68 86 80 49 32 54 48 67 81 29 13 18 23 20 26 31 35 33 38 34 30 30 30 29 36 47 56 71 67 64 57 51 44 37 45 51 46 42 45 37 29
48 52 58 72 82 92 63 22 98 100 100 96 77 70 74 90 83 93 78 29 24 22 31 36 32 28 32 38 35 35 36 35 38 53 62 77 69 60 54 53 57 65 63 58 48 49 41 33 37
52 60 62 74 93 76 64 23 71 83 86 71 46 46 67 87 73 60 62 42 26 24 39 40 30 25 38 43 41 42 40 41 39 44 70 72 66 61 60 66 78 81 70 52 60 55 36 68 85

GFSSGP_500_rhum_012.txt.gz
RH
4 4 4 4 5 6 9 12 9 10 14 12 9 11 19 24 21 28 31 23 28 20 9 8 5 5 7 9 8 8 8 8 8 7 7 6 6 5 6 7 8 10 11 10 12 14 16 18 18
7 7 6 5 5 4 5 8 6 11 9 12 15 13 14 18 14 17 23 19 26 24 20 13 12 9 10 9 9 8 8 7 7 7 7 7 6 6 7 8 9 11 11 12 12 12 13 16 17
10 9 7 6 6 6 6 8 6 6 7 13 15 15 16 13 10 14 18 19 20 24 23 23 18 17 13 11 8 7 6 6 6 7 8 8 7 8 9 9 10 11 12 14 15 14 13 13 13
13 11 9 8 8 9 8 8 5 5 8 11 13 18 17 15 14 20 18 19 18 21 30 34 36 28 27 23 19 12 12 6 6 7 8 8 9 11 12 12 12 13 13 13 15 18 22 23 23
12 11 10 9 10 11 11 10 6 7 6 8 13 21 17 16 16 17 19 20 21 19 46 49 46 48 51 28 28 28 37 12 9 9 9 10 12 14 16 19 20 17 17 17 18 19 21 24 25
11 12 10 10 11 12 13 12 11 9 8 7 8 19 16 14 18 20 21 22 21 21 34 46 45 60 54 25 25 34 28 13 12 11 12 16 16 18 20 21 22 24 26 28 28 29 30 32 33
11 11 11 11 11 11 13 14 10 11 10 9 9 14 21 10 14 21 22 22 24 19 27 42 29 21 24 23 21 21 15 16 15 15 17 19 23 23 28 29 29 30 31 32 33 35 36 37 36
12 11 10 10 11 11 12 12 9 8 10 12 10 10 28 10 16 23 24 26 26 22 22 20 20 19 19 17 21 20 17 19 21 22 21 20 22 28 32 37 38 34 34 35 38 40 40 39 37
10 8 8 10 13 11 12 12 10 8 10 10 9 13 12 10 10 22 25 27 27 27 24 25 22 20 19 19 23 21 19 22 27 29 25 24 22 25 28 35 42 40 37 38 41 43 44 42 39
11 8 8 12 13 10 10 10 8 7 11 9 9 13 9 13 16 18 26 26 27 28 27 25 25 22 20 21 24 22 22 24 29 30 29 31 26 24 28 35 39 42 44 40 42 43 44 46 46
11 8 11 13 12 9 11 12 11 11 9 8 10 11 12 11 12 13 15 14 23 30 30 30 27 24 24 24 25 24 22 26 29 30 29 29 31 30 24 33 47 44 49 54 49 44 44 46 47
9 8 11 14 10 8 11 12 9 10 10 10 10 10 11 9 10 12 16 17 15 18 30 36 33 33 31 26 29 31 26 28 32 34 33 32 30 29 30 25 29 40 49 50 50 52 54 53 48
6 6 12 14 10 8 10 10 11 8 8 14 12 10 10 8 11 17 14 15 16 12 15 33 37 36 34 29 30 33 33 35 35 37 37 36 34 32 32 30 28 31 32 34 34 34 40 45 52
6 6 11 13 10 11 9 9 9 8 13 10 9 9 8 9 8 9 8 9 11 11 11 13 34 43 39 33 32 35 42 35 39 40 36 36 33 32 31 34 34 32 33 34 34 39 45 49 57
7 10 14 10 11 10 10 8 8 10 12 9 8 8 8 8 8 7 7 8 10 11 10 10 12 28 44 40 36 37 39 38 44 37 36 32 32 32 29 30 39 40 40 40 42 57 67 71 70
16 12 14 12 9 9 10 8 11 8 10 8 8 8 9 10 10 10 8 9 12 12 9 8 8 11 30 44 41 40 38 36 41 38 37 34 35 36 33 34 43 44 44 38 45 53 72 72 69
20 16 14 10 10 11 10 8 12 9 10 8 8 8 9 10 10 11 12 11 12 14 12 8 8 7 13 35 43 44 40 39 44 46 45 46 45 36 34 38 42 45 41 38 44 48 68 71 66
21 16 12 12 10 14 10 8 9 10 10 10 10 10 10 10 10 12 14 14 13 14 15 12 12 10 8 21 26 37 45 44 48 49 52 52 48 41 51 46 39 34 33 33 39 44 64 75 59
19 16 17 16 16 14 14 9 9 12 9 13 11 10 11 12 14 13 13 14 14 13 13 13 15 14 12 10 10 14 22 42 50 52 56 59 61 56 56 53 53 43 36 34 30 47 62 78 65
22 22 27 28 22 14 15 11 10 9 8 8 10 11 15 15 15 15 12 12 14 14 13 12 16 19 14 12 12 13 10 11 13 40 55 67 66 62 54 56 59 51 44 36 30 51 62 76 78
26 24 22 18 18 14 11 8 10 7 7 8 10 11 10 11 12 12 13 13 14 14 15 14 13 16 16 10 19 18 13 10 12 22 28 53 65 64 66 63 56 59 61 55 45 52 60 74 80
23 20 19 18 16 13 12 8 8 9 8 9 10 12 12 11 11 13 14 14 14 15 16 15 16 16 13 12 11 18 20 13 13 15 20 34 61 66 66 64 64 63 60 63 47 45 49 63 72
18 16 16 16 15 12 12 10 5 6 7 12 16 13 12 12 13 14 15 14 15 15 16 17 16 16 14 16 14 17 19 18 16 18 18 26 46 64 62 67 72 70 49 52 57 55 42 36 40
18 17 18 15 14 11 15 16 5 10 14 21 18 21 20 17 14 16 16 15 16 18 17 17 16 15 13 18 17 14 20 21 21 20 21 26 28 59 66 67 66 61 56 49 45 46 47 44 37
20 16 17 19 17 13 19 11 7 18 21 25 17 13 15 25 33 27 19 15 17 15 17 18 16 18 14 20 21 16 21 25 25 25 36 41 33 47 65 67 68 64 61 58 50 44 40 36 29
21 24 34 22 17 13 17 9 17 22 25 21 19 19 20 21 38 38 30 26 21 16 15 18 17 18 18 24 26 21 16 30 30 31 43 50 49 42 52 64 66 64 64 60 54 48 41 31 29
30 31 28 24 23 18 17 19 23 52 28 20 24 26 36 46 40 39 27 24 25 23 19 16 16 20 22 25 32 20 22 34 35 47 46 53 47 44 48 65 70 71 62 54 51 47 51 60 58
25 28 28 34 32 24 19 22 51 40 38 28 29 32 49 64 56 40 27 19 14 18 19 20 16 20 21 26 33 24 36 40 36 41 57 59 65 48 51 65 73 69 58 55 56 64 73 71 61
30 30 39 37 39 44 24 25 61 56 40 33 38 33 46 67 86 65 34 23 13 23 17 14 17 18 19 26 31 37 47 41 32 50 47 46 44 57 57 67 71 66 64 66 79 92 86 62 52
32 42 43 47 63 51 57 21 47 45 54 60 51 56 55 73 49 50 46 52 51 69 49 15 17 17 19 34 42 40 42 41 41 46 43 45 53 54 60 74 72 69 83 97 94 93 60 66 77

GFSSGP_500_rhum_015.txt.gz
RH
13 10 8 8 10 9 10 11 10 10 11 10 10 10 17 17 19 26 22 20 25 29 22 12 8 6 7 8 6 6 6 7 8 8 8 7 6 6 6 5 5 6 7 8 9 11 13 13 15
10 5 3 3 4 6 10 11 10 9 11 11 14 13 14 10 10 12 16 20 19 23 28 20 18 12 10 8 8 8 8 8 7 7 7 7 7 7 6 6 6 6 8 9 11 12 12 13 14
6 4 4 4 4 5 6 5 5 5 6 12 12 12 12 9 11 11 12 15 15 15 17 19 24 24 15 10 9 10 9 7 6 6 6 6 6 7 6 6 7 8 9 11 12 15 14 13 12
6 6 6 6 7 9 8 6 5 4 4 9 9 15 10 9 12 13 12 15 13 14 13 13 21 30 29 20 16 12 11 8 8 6 6 6 6 7 7 7 8 9 10 11 13 15 17 18 18
9 8 7 6 9 11 11 11 7 5 8 10 12 11 8 10 14 12 13 14 16 15 14 14 17 30 38 41 42 29 17 15 14 10 6 7 7 8 9 11 12 14 14 15 16 16 18 19 20
10 10 8 8 10 12 12 14 10 7 8 6 8 8 6 8 10 13 11 12 16 18 18 18 21 37 27 30 41 42 18 24 29 20 9 8 8 10 12 16 19 22 22 23 25 25 26 28 30
13 11 10 10 10 11 13 14 12 9 8 10 8 8 4 5 8 11 10 10 16 19 20 21 19 23 22 18 16 16 14 16 16 13 12 13 13 14 15 20 24 29 30 31 32 32 34 36 36
16 12 10 9 10 11 12 12 12 9 8 11 8 9 6 6 6 12 17 11 17 21 21 21 20 20 19 19 17 16 17 18 18 16 18 18 20 20 20 23 25 28 32 32 34 35 37 41 40
16 11 10 10 11 13 13 10 10 9 7 11 11 10 8 7 7 8 15 13 15 22 24 23 22 22 21 21 20 19 19 21 20 19 20 24 25 24 23 27 27 30 34 39 36 37 42 44 44
13 11 11 13 12 12 11 10 9 6 6 11 12 10 10 10 9 8 11 14 7 15 20 24 29 30 26 25 23 21 21 21 22 22 23 25 29 30 29 26 25 29 34 39 44 40 42 44 46
12 10 12 14 12 10 9 10 8 7 7 10 13 10 9 8 9 10 8 9 9 7 12 17 19 24 29 28 26 24 22 24 25 23 25 29 29 30 34 32 29 25 26 34 41 45 50 46 45
12 12 12 13 12 8 10 10 8 7 8 8 12 11 8 9 9 8 9 10 11 11 9 10 9 14 25 31 32 30 26 26 29 26 26 30 34 34 33 34 34 30 26 26 30 36 44 45 45
12 11 11 12 11 8 9 10 7 8 10 12 12 10 10 9 9 11 13 15 13 10 10 9 7 8 12 26 33 36 33 28 30 28 28 32 34 38 37 34 34 32 30 30 30 31 31 32 32
12 11 10 9 8 6 8 11 6 8 11 10 10 10 9 10 8 10 14 17 12 7 8 8 5 4 6 10 20 36 38 35 33 35 36 34 37 38 35 33 33 30 30 30 31 34 34 35 37
11 11 11 11 11 9 11 10 6 11 10 8 8 10 9 8 8 8 9 14 8 7 5 6 8 5 6 10 18 27 39 43 41 39 38 39 39 42 33 32 34 32 32 33 37 38 38 33 38
10 10 10 16 11 10 10 8 10 9 8 7 8 7 8 8 8 8 9 9 8 7 6 7 8 7 6 6 24 14 32 47 46 42 37 40 40 41 40 38 41 32 33 35 36 38 37 35 39
10 10 10 12 14 10 9 8 9 8 7 7 7 7 7 8 9 9 9 10 11 10 9 8 10 10 8 14 12 25 25 36 45 48 47 48 50 46 49 52 44 36 50 43 37 32 28 31 35
13 10 9 10 12 11 10 8 8 8 8 8 8 8 7 7 8 10 11 11 12 12 12 11 10 12 11 10 16 19 18 26 36 47 54 53 49 51 54 53 57 52 53 51 50 47 37 34 30
12 11 14 21 16 13 13 9 7 10 8 9 8 8 9 9 10 10 10 11 11 12 13 12 9 9 11 30 26 12 16 17 18 28 35 52 57 58 63 62 61 61 54 57 52 53 49 41 31
12 13 19 21 18 10 12 10 9 10 10 10 12 11 12 13 12 12 12 11 12 13 15 14 10 8 9 14 23 22 21 20 25 23 18 20 27 41 44 54 63 65 64 66 57 56 56 59 46
19 17 19 20 20 17 11 9 10 11 14 14 13 13 11 11 12 13 14 14 13 14 15 16 13 10 10 11 25 32 32 35 41 36 26 19 21 22 40 44 58 66 70 67 64 65 61 64 61
26 25 24 22 22 17 14 8 10 12 11 11 11 10 9 9 9 10 11 12 12 13 14 13 13 12 11 12 16 18 24 22 29 27 28 25 23 27 28 28 44 58 62 65 71 73 59 49 54
26 22 24 22 19 15 13 10 6 9 10 10 9 8 8 9 10 11 12 11 10 12 13 16 15 14 12 11 17 20 25 24 29 36 36 33 33 33 29 21 27 46 60 63 70 67 67 62 55
23 22 20 17 15 10 10 9 6 6 8 13 13 13 14 12 12 13 13 13 14 14 12 13 17 16 13 13 13 15 20 22 32 40 35 32 42 30 32 27 43 40 58 65 67 64 67 66 57
18 21 21 17 12 9 8 7 6 13 15 17 18 16 16 18 19 14 9 8 11 13 15 17 18 16 14 14 14 15 21 21 30 38 38 32 36 42 42 47 41 46 49 62 59 67 68 60 52
22 23 21 16 13 11 12 10 11 15 22 23 20 18 16 25 26 26 24 20 15 10 14 16 23 22 17 15 15 16 18 24 34 31 32 29 37 47 53 49 50 53 44 53 63 68 62 56 54
28 26 24 21 18 14 14 14 14 26 41 37 32 34 34 37 39 39 36 26 20 14 20 22 33 27 22 17 17 18 18 26 35 31 32 34 42 46 64 61 58 49 58 63 61 66 62 62 66
26 26 23 20 18 18 16 20 26 41 37 32 32 37 46 56 63 64 36 21 18 19 51 37 36 34 25 20 18 19 26 36 36 39 39 39 44 56 69 66 69 69 64 59 65 70 68 72 82
26 21 22 26 36 31 27 22 56 42 37 40 48 60 73 87 100 61 40 30 25 24 47 33 23 28 33 22 20 18 27 34 44 40 44 48 52 63 73 66 75 56 59 62 75 77 75 78 84
21 30 39 47 44 40 38 30 46 52 50 69 68 69 90 100 92 78 64 54 30 59 51 32 19 18 34 27 22 18 25 36 43 43 50 54 62 72 73 72 68 60 60 75 78 76 79 91 83

GFSSGP_500_rhum_018.txt.gz
RH
15 12 11 11 11 10 11 12 12 13 13 13 13 11 12 22 27 28 18 20 21 18 26 19 14 12 8 5 5 5 6 7 7 9 9 9 8 8 7 6 6 6 6 6 7 8 9 10 12
14 12 12 11 11 11 12 10 10 10 11 10 11 10 11 13 17 16 14 14 16 18 16 20 21 22 16 9 6 6 6 7 8 8 7 7 7 7 7 7 6 6 6 6 8 9 9 11 12
13 12 11 10 9 6 10 10 10 10 10 9 9 8 8 9 10 11 12 14 13 13 14 13 14 22 21 18 13 9 8 8 7 7 7 7 7 6 7 7 7 7 7 8 10 11 11 12 12
13 13 11 10 6 5 4 4 4 5 7 8 8 8 7 7 10 13 14 16 14 12 12 12 11 14 16 21 21 16 14 13 12 10 8 7 6 6 7 8 8 8 8 10 10 11 13 17 19
18 14 12 9 6 8 7 5 5 5 5 5 8 6 4 5 7 10 12 13 14 14 15 14 13 12 14 20 22 27 25 24 17 13 15 15 9 6 7 8 9 10 10 12 13 14 16 17 18
20 14 10 7 8 10 10 8 6 6 5 6 8 6 4 4 5 6 11 13 12 13 14 15 15 16 15 18 19 20 29 36 18 15 19 18 17 9 9 10 12 12 15 17 23 25 24 24 26
18 11 8 9 11 10 14 11 7 7 6 6 8 5 4 5 4 6 8 13 13 14 17 18 20 22 22 21 20 18 17 17 16 15 16 14 13 11 11 12 16 17 22 24 26 28 31 33 35
12 9 8 9 11 12 14 12 10 8 7 8 6 6 5 4 5 4 6 8 13 22 28 33 36 36 30 19 18 17 16 16 16 20 18 16 15 16 14 17 19 24 25 30 31 33 34 35 38
11 8 8 10 13 14 14 12 11 9 8 7 8 6 6 6 5 4 4 6 7 16 30 44 45 40 25 22 20 19 17 16 15 16 21 19 19 21 23 23 22 24 27 30 39 40 38 38 39
10 6 10 14 16 15 14 10 9 9 8 7 7 8 6 6 6 6 5 6 6 16 19 38 40 40 29 33 28 24 22 20 18 18 21 24 23 26 35 31 31 29 27 32 39 43 45 42 42
12 9 14 15 17 16 12 11 8 6 8 8 7 7 6 6 6 6 6 6 8 10 18 20 24 38 43 37 34 31 29 27 24 21 20 24 25 29 32 34 34 33 32 29 26 29 39 44 47
12 12 14 15 14 13 11 10 10 8 8 9 7 8 7 6 8 8 9 7 7 12 10 8 22 35 33 35 26 34 34 29 29 26 23 24 27 29 35 35 35 37 36 33 30 29 28 29 32
14 13 14 14 14 12 11 10 9 9 10 10 8 6 7 7 7 7 9 8 9 10 14 16 15 18 16 13 31 28 24 32 32 34 30 29 28 29 38 39 37 34 33 32 30 30 31 32 33
13 14 13 13 12 12 11 11 10 8 13 11 8 6 7 8 7 7 8 10 10 10 8 13 18 24 26 14 9 14 24 22 30 37 36 34 31 35 40 37 39 36 32 32 31 29 30 30 32
15 14 14 14 16 14 13 9 7 8 11 9 7 7 7 7 7 6 8 10 11 9 8 9 21 25 12 8 6 8 18 21 23 35 42 44 40 38 39 39 43 37 36 40 35 32 31 32 36
12 12 13 15 15 14 12 6 7 7 8 8 8 8 8 8 7 7 7 7 9 9 5 6 12 22 31 10 8 14 32 30 16 24 44 46 44 41 39 38 40 43 45 46 36 38 45 39 38
12 10 11 12 12 12 10 7 9 7 6 9 9 8 7 7 8 7 8 9 8 8 6 6 7 28 16 10 24 24 24 20 30 34 41 51 49 48 47 45 47 45 47 49 48 46 49 51 46
20 17 13 11 10 10 9 8 9 9 10 9 8 8 8 7 9 10 7 8 8 7 7 6 6 8 31 35 31 30 32 33 31 26 30 43 50 53 53 50 49 51 52 52 54 57 55 55 51
21 20 18 14 11 9 9 8 8 15 9 11 10 8 8 9 11 9 9 8 8 9 8 8 7 8 16 39 41 36 40 45 24 19 24 28 37 45 46 53 52 52 56 62 63 62 63 64 57
21 19 18 15 12 10 9 8 10 13 11 10 9 9 10 12 13 12 11 10 10 10 11 11 10 10 10 15 26 30 24 27 30 20 18 27 36 38 27 24 22 23 27 45 60 67 66 67 65
21 19 17 15 13 11 9 8 10 12 12 11 11 11 11 12 14 15 15 16 15 14 14 14 12 11 10 10 19 33 47 48 44 45 38 46 44 39 34 29 25 34 32 34 45 63 63 64 68
17 17 16 15 14 11 12 9 10 12 12 14 15 15 16 16 14 14 13 12 12 13 14 15 17 14 12 12 14 26 31 38 33 45 47 50 44 46 42 36 30 33 26 24 43 61 63 63 64
22 22 21 19 16 12 14 10 10 12 14 13 13 12 12 12 12 11 11 10 10 9 9 10 12 12 12 13 13 21 38 40 36 31 37 50 61 57 54 52 50 43 41 25 33 51 57 52 59
32 32 25 20 19 14 15 12 9 10 10 10 10 11 11 10 10 10 9 10 11 10 11 11 12 13 11 10 11 13 27 33 39 34 31 36 44 58 52 50 60 56 41 36 46 42 48 54 56
33 29 24 18 16 14 12 10 9 13 16 14 14 12 11 11 12 12 13 13 14 17 15 14 15 14 14 12 10 10 12 14 20 26 26 40 51 50 65 56 54 53 51 52 59 54 50 48 55
24 21 19 16 16 15 13 9 14 17 16 16 15 15 16 16 15 16 17 18 20 21 22 19 17 10 12 14 14 15 10 11 15 24 29 38 50 59 64 62 54 56 67 64 58 69 50 55 52
24 22 22 22 18 14 14 13 17 33 26 22 21 20 19 18 20 25 31 34 33 37 36 35 34 29 20 10 11 14 16 12 14 20 25 38 63 67 76 58 48 67 73 66 67 62 63 88 54
26 24 23 22 17 14 13 19 47 34 28 23 25 29 33 39 49 52 51 53 62 68 63 59 45 35 28 22 16 12 13 19 17 30 41 56 57 67 64 64 52 68 71 70 69 69 65 73 54
23 28 24 22 24 24 26 42 30 35 30 25 28 35 38 38 36 30 42 63 82 80 73 41 26 20 19 16 15 11 11 26 22 31 45 51 62 61 65 56 56 60 68 73 75 76 93 51 56
24 24 27 28 38 46 41 45 42 33 39 44 44 37 30 24 23 32 74 100 96 76 73 49 37 28 25 26 32 19 32 32 28 36 49 52 60 64 55 52 59 67 71 84 93 70 57 60 68

GFSSGP_500_rhum_021.txt.gz
RH
17 15 14 14 14 13 13 13 14 15 14 16 16 20 20 20 22 23 19 19 21 21 24 18 21 21 16 10 6 3 3 4 5 5 6 8 8 9 8 8 7 6 6 6 6 6 7 8 9
17 14 12 12 11 10 11 12 12 12 14 14 13 13 13 16 19 16 14 14 17 18 16 14 13 22 22 18 13 7 4 4 4 4 6 6 6 6 7 8 8 8 7 6 6 7 8 10 11
18 17 15 12 11 13 14 11 10 10 11 12 12 12 12 12 14 12 10 11 12 12 12 11 11 13 16 18 17 17 14 9 7 7 7 6 6 6 6 6 7 8 8 8 8 9 10 11 12
21 19 16 13 12 16 13 10 10 10 9 9 9 8 8 9 9 10 10 10 10 10 12 12 11 10 12 13 13 16 20 19 17 13 11 10 9 9 7 6 7 7 8 9 9 10 12 14 17
22 19 16 13 15 15 10 8 6 5 7 9 9 9 8 8 9 9 10 10 10 12 12 13 13 11 12 13 12 12 14 18 25 26 23 18 14 13 12 9 8 9 9 11 12 12 13 14 17
23 18 15 13 19 14 10 6 5 4 4 4 4 5 5 6 6 8 8 10 12 12 12 14 15 15 15 16 15 14 18 23 22 25 18 13 14 16 16 15 11 11 13 15 16 20 22 22 21
21 19 16 18 20 11 8 7 5 5 5 5 5 4 4 4 6 5 7 10 11 13 16 16 16 15 17 21 21 17 16 20 18 17 16 17 16 15 14 14 13 14 15 17 20 22 23 27 28
22 19 15 18 18 11 11 7 6 6 7 6 6 6 5 6 6 5 6 9 10 11 12 15 15 17 20 24 30 25 18 17 16 15 16 17 18 17 16 16 16 18 18 20 25 27 28 30 31
24 18 14 19 16 14 14 10 8 7 7 7 6 7 7 6 6 6 6 6 9 10 11 23 34 41 39 33 33 24 20 19 17 16 16 18 20 21 21 22 24 25 24 24 26 29 35 40 38
20 15 14 20 14 16 14 10 10 9 8 8 7 7 7 6 6 6 6 8 8 7 9 16 25 34 37 39 37 28 25 26 23 20 20 18 20 21 25 28 32 30 31 31 30 28 30 34 40
12 11 12 17 14 16 14 12 11 10 9 8 8 7 6 6 5 6 6 6 8 7 6 8 20 32 38 41 37 32 29 30 26 24 24 22 20 21 24 28 34 34 35 35 34 32 30 28 27
10 9 12 17 17 16 13 12 9 10 11 9 9 8 7 6 4 4 6 6 7 9 8 8 12 18 23 23 33 45 40 31 22 28 30 28 26 24 28 29 31 34 38 38 36 34 33 31 30
12 12 15 16 18 15 14 12 12 11 12 10 9 8 7 5 4 5 6 6 12 13 15 19 19 23 22 22 29 30 21 21 30 28 23 30 32 31 29 34 34 36 39 38 36 34 32 30 29
14 14 17 17 18 16 15 14 12 11 11 11 9 9 8 6 5 4 6 7 7 10 25 29 26 23 24 23 24 21 15 21 22 19 26 30 36 36 34 33 34 39 40 39 37 34 33 32 30
18 18 18 16 18 16 16 12 9 10 13 10 7 7 8 7 5 5 6 7 7 8 10 15 24 26 26 31 32 27 25 18 21 20 26 34 38 40 40 41 41 38 38 42 43 40 42 38 33
19 18 17 18 18 17 15 9 12 11 12 9 8 6 7 8 7 7 7 7 8 7 7 7 7 15 22 31 41 41 18 14 16 28 44 34 38 46 48 47 44 40 41 41 44 46 49 47 42
15 16 17 19 18 16 13 8 13 12 10 9 8 6 6 9 9 9 9 8 9 8 8 6 6 6 11 24 38 47 46 30 25 34 30 32 31 46 55 51 47 49 48 48 46 45 46 49 51
16 15 15 15 14 14 11 8 12 12 10 8 8 8 8 9 10 10 9 8 8 8 8 7 6 6 6 12 28 49 50 48 46 43 29 30 34 36 44 54 54 54 53 49 47 49 49 56 60
18 15 13 14 13 11 10 8 10 11 9 9 8 7 8 11 13 9 8 8 8 8 8 8 7 7 8 17 19 35 54 68 64 48 43 37 26 22 32 41 50 54 46 36 36 36 35 37 55
19 17 16 18 18 14 13 10 10 10 9 9 8 8 10 10 11 10 9 8 8 9 9 10 9 7 7 9 11 9 14 33 57 62 60 51 21 20 31 39 40 34 24 23 22 29 31 31 40
20 19 21 22 21 19 19 17 14 11 9 9 9 8 9 11 11 10 10 10 10 10 12 12 11 9 7 8 12 14 14 13 25 40 62 51 50 39 34 38 43 40 31 26 25 30 22 20 26
28 28 25 23 21 20 19 15 16 14 12 11 11 10 11 11 11 14 15 14 14 13 14 14 15 14 10 10 9 28 26 18 20 41 50 64 74 69 57 55 58 58 52 42 36 34 30 24 22
30 27 24 21 19 19 17 15 14 16 15 14 14 12 12 12 12 14 15 15 15 14 14 14 13 13 13 13 13 14 22 23 26 24 34 53 64 68 74 71 66 57 59 60 54 50 45 32 32
21 21 20 18 16 16 16 14 14 15 14 14 14 13 12 12 12 12 12 12 12 12 11 11 11 11 12 11 10 10 11 20 29 40 42 56 58 62 67 63 60 71 68 64 65 62 55 44 48
24 24 21 20 18 16 16 13 14 16 11 10 11 11 12 11 11 11 11 11 11 11 11 11 11 12 12 11 10 9 9 8 10 16 46 46 60 61 61 63 61 69 68 60 68 65 58 53 57
30 27 27 21 19 16 13 12 15 17 13 10 10 10 10 9 9 10 11 13 16 18 20 19 18 19 17 17 16 15 12 9 8 17 20 38 50 43 46 73 65 75 80 68 78 73 66 63 62
38 31 26 18 15 13 14 17 19 15 12 11 13 18 23 24 23 22 26 27 26 27 31 34 36 32 29 27 23 20 17 14 14 12 10 24 42 42 36 60 77 78 79 93 83 76 72 72 70
27 23 21 20 16 15 13 20 28 18 16 21 29 28 23 21 25 30 31 32 33 36 39 43 47 50 39 33 28 23 19 15 13 12 14 16 32 41 45 42 78 78 78 85 83 76 79 70 67
24 25 23 24 20 16 16 40 28 25 30 33 27 22 24 27 28 20 17 20 23 26 25 24 27 42 62 67 55 39 34 28 22 14 11 18 33 33 42 50 74 71 73 73 65 66 72 60 70
30 30 25 22 20 28 40 52 48 39 33 26 27 30 30 26 26 22 22 23 30 36 35 29 41 71 81 68 62 62 59 44 35 27 18 13 54 38 44 61 70 62 66 70 55 55 56 74 98

GFSSGP_500_rhum_024.txt.gz
RH
29 25 24 19 23 20 23 24 24 27 27 26 28 26 24 24 22 21 21 21 22 20 18 19 17 20 18 13 10 8 6 4 3 3 4 4 5 6 7 8 8 8 8 7 7 6 6 7 8
28 23 19 18 20 16 16 15 16 17 18 18 19 21 20 20 19 17 17 18 19 17 18 18 14 14 16 15 15 14 12 7 4 3 3 4 5 5 5 5 6 6 6 7 7 7 7 7 8
29 23 20 17 16 16 15 14 13 13 14 14 14 14 14 13 13 13 12 12 13 13 12 11 10 9 12 12 11 14 16 16 15 11 7 6 6 5 5 5 6 6 6 7 7 8 8 9 11
29 25 19 17 14 15 15 13 10 10 12 12 12 13 13 13 13 12 10 10 10 10 9 8 7 7 8 10 9 8 10 12 14 16 17 17 14 11 10 9 9 7 6 7 7 9 10 11 13
28 23 18 14 15 21 20 16 13 12 10 9 9 9 10 10 11 10 10 9 9 8 8 9 10 8 8 10 10 8 9 10 12 14 16 18 19 17 16 16 14 12 12 8 8 9 12 14 16
26 21 16 13 18 26 21 16 14 12 10 8 8 8 9 11 10 10 10 10 10 9 10 10 10 11 10 11 12 12 11 12 15 16 16 16 14 14 14 14 14 14 14 12 12 14 14 18 20
25 22 18 19 23 22 21 16 14 11 8 5 4 4 6 6 6 7 9 11 12 12 9 10 11 11 11 13 14 13 14 15 15 18 16 15 15 15 16 16 16 15 14 15 16 18 21 24 26
32 25 20 19 22 26 21 16 13 11 7 5 4 4 6 5 5 5 6 8 9 9 9 10 10 11 12 12 14 16 20 25 18 16 16 14 14 16 16 18 19 19 19 20 20 20 23 28 33
33 25 19 18 22 31 23 16 12 10 8 7 6 7 8 7 7 7 7 7 9 10 10 10 11 12 18 25 28 33 33 29 21 18 17 16 16 16 18 20 22 23 26 25 26 25 24 25 27
32 21 19 22 29 35 26 18 14 10 8 8 9 8 10 9 8 7 7 8 8 8 8 9 9 10 15 26 39 42 41 36 29 26 25 22 19 19 19 21 23 25 27 27 30 29 29 29 29
29 20 20 29 34 38 27 19 13 10 8 9 9 8 9 9 9 10 8 8 8 8 8 8 10 10 12 22 29 35 42 40 35 33 29 28 24 24 24 23 26 26 28 32 32 33 32 33 33
28 24 25 28 29 34 25 19 12 9 10 9 10 9 8 9 9 9 8 7 8 7 9 11 11 10 12 20 30 32 30 27 38 45 36 27 30 31 28 28 27 27 29 33 37 37 34 33 32
19 19 18 20 19 19 19 15 10 9 11 10 11 10 9 8 9 11 15 8 6 6 7 8 9 12 10 16 21 25 21 26 38 32 25 32 37 26 27 31 31 29 30 32 33 36 37 34 29
18 16 18 20 18 15 13 11 9 10 13 13 12 10 9 7 8 8 9 7 6 7 8 10 15 12 15 19 22 23 33 23 24 19 15 27 20 22 27 32 35 32 30 31 35 36 37 36 31
20 19 19 18 20 14 12 10 8 13 15 14 12 11 10 7 7 7 9 8 9 10 10 10 20 24 26 28 26 28 32 32 31 35 25 18 15 18 28 33 37 37 37 37 37 37 37 40 42
19 20 19 19 21 16 14 10 9 13 14 14 12 10 8 7 6 6 9 10 9 10 9 13 20 27 27 19 25 34 39 50 53 41 20 14 18 35 31 29 38 42 44 44 41 38 40 42 44
17 16 18 22 21 19 13 11 12 13 13 11 11 11 10 9 8 8 9 10 8 9 8 8 8 8 13 13 11 21 26 44 56 67 60 30 29 38 29 27 23 39 51 51 48 46 45 46 44
16 16 18 20 21 18 12 8 13 14 13 12 11 12 12 11 10 9 7 8 9 7 8 8 8 9 9 9 11 15 26 25 38 55 54 54 54 38 22 29 30 40 50 53 53 52 48 45 33
24 19 16 16 16 16 14 11 13 15 13 13 12 11 11 11 11 8 6 7 9 8 8 8 8 9 10 8 10 10 16 33 33 52 62 66 67 49 37 30 31 39 38 43 47 43 30 21 20
24 21 19 18 16 14 13 11 13 13 12 11 11 10 10 10 10 10 8 8 9 10 8 8 8 8 9 10 10 10 13 18 30 34 61 79 86 74 76 44 29 39 28 34 37 33 24 22 21
26 24 25 22 18 13 12 10 11 11 11 10 10 9 9 9 10 9 8 8 8 9 9 8 9 9 9 8 10 9 11 11 12 13 19 35 74 77 74 63 61 41 36 34 40 43 30 27 24
29 28 25 21 17 13 13 9 16 19 20 19 17 13 10 9 8 8 8 8 8 9 9 9 9 10 11 11 9 10 11 14 20 28 23 21 26 50 62 67 68 76 57 45 53 55 58 51 41
50 31 24 19 17 13 14 14 19 21 19 18 17 15 13 12 10 8 8 8 8 9 11 11 11 11 12 13 12 13 14 15 16 20 36 47 37 37 62 82 93 95 95 85 68 62 66 66 63
57 46 33 25 22 18 21 20 23 21 18 17 16 14 13 12 11 11 10 10 10 10 11 12 13 14 14 14 13 12 12 12 14 17 22 38 51 47 45 57 74 88 91 95 95 87 79 81 76
50 29 28 26 24 21 22 20 20 18 17 15 14 13 12 11 11 10 10 10 10 9 9 10 10 10 11 12 12 12 12 11 11 11 33 29 40 51 63 66 70 75 77 88 90 87 74 72 81
24 22 22 21 21 21 19 20 19 16 14 12 11 11 10 9 8 8 8 10 11 13 14 15 14 12 12 12 11 10 10 11 12 12 27 40 42 32 52 63 73 78 76 71 72 83 74 82 88
26 22 26 23 23 23 19 18 17 14 12 11 9 9 9 12 16 19 22 23 21 20 22 24 28 31 29 25 24 22 17 16 14 12 12 13 29 37 47 52 70 82 78 72 57 69 75 81 83
33 41 33 27 22 19 19 21 17 13 11 10 10 15 23 25 25 21 19 18 18 19 23 20 19 27 40 48 47 39 36 32 28 24 19 17 19 51 74 76 62 77 83 76 68 58 74 73 80
45 41 28 23 21 18 19 22 16 12 14 20 27 31 24 22 21 18 20 22 22 20 18 19 19 21 24 26 30 50 60 53 49 39 32 28 26 42 93 90 92 93 83 72 64 58 66 67 83
27 28 30 26 24 24 30 32 22 26 39 32 26 24 25 20 18 17 19 19 23 24 18 20 17 26 40 37 37 34 28 52 54 43 38 32 25 22 29 71 73 65 55 56 53 51 55 64 67

GFSSGP_500_rhum_027.txt.gz
RH
52 46 36 38 39 36 38 38 35 32 29 25 23 20 20 18 17 15 15 17 18 18 18 17 16 16 14 13 13 11 9 8 6 4 3 3 4 4 4 4 6 7 7 7 8 7 7 7 7
41 46 35 34 34 33 36 37 35 34 33 32 31 30 28 26 25 23 23 23 20 20 19 16 15 16 14 13 12 13 13 12 11 6 4 3 3 4 4 4 4 4 5 5 6 7 7 7 7
32 39 36 30 30 29 28 28 28 27 26 26 26 24 24 23 21 18 18 16 16 15 15 14 13 12 11 11 9 10 10 10 12 13 12 10 7 5 4 5 6 6 6 6 6 7 8 8 9
31 35 36 31 26 22 20 18 18 17 17 17 17 16 15 15 15 14 14 13 12 12 11 9 8 8 6 7 6 6 7 7 7 7 8 10 12 13 13 10 10 9 8 8 8 7 8 8 9
33 32 33 31 22 21 21 18 16 15 14 14 14 14 14 14 14 13 12 11 10 10 10 9 8 7 7 7 8 7 6 7 8 9 9 9 10 12 12 11 12 13 14 14 13 11 9 9 10
33 29 30 28 23 23 21 17 15 13 12 11 10 10 10 11 12 12 10 10 9 9 10 10 10 9 9 9 8 9 7 7 8 7 8 10 10 10 11 12 13 12 12 12 13 12 12 12 12
30 29 28 27 23 24 25 20 19 17 15 14 12 11 11 14 13 11 10 10 11 11 11 12 12 11 9 9 10 10 10 9 8 12 13 14 13 11 11 11 12 14 15 16 16 16 17 18 17
37 31 26 25 23 25 28 22 19 17 16 14 11 9 8 10 11 11 10 9 9 10 10 10 11 11 11 11 10 14 14 16 20 23 20 15 14 12 10 10 10 14 16 20 21 20 20 22 23
36 32 23 21 22 27 30 26 19 17 15 13 11 7 6 6 6 6 6 7 8 9 11 11 10 11 10 11 10 17 24 29 35 31 25 19 15 14 14 13 12 15 17 20 22 24 24 24 25
36 29 24 23 28 32 32 26 19 16 15 13 11 8 7 8 7 8 8 9 8 8 8 8 8 8 9 10 11 16 24 39 41 43 35 30 25 22 19 16 16 17 18 19 20 23 24 24 27
35 29 29 30 36 36 30 26 21 17 16 14 11 8 7 8 9 9 9 9 10 10 12 8 7 7 7 8 9 13 23 35 41 45 40 34 37 32 25 21 22 21 20 20 24 26 25 26 27
45 33 33 38 38 34 31 26 22 19 18 15 12 9 8 10 11 11 10 11 9 9 9 9 8 9 9 10 15 11 20 31 37 36 29 35 40 36 23 24 26 23 24 24 26 27 30 31 29
57 45 40 46 40 34 30 24 22 20 20 16 13 10 9 9 10 10 12 11 9 11 12 14 10 10 8 9 11 10 15 17 20 22 22 31 33 23 20 26 17 16 21 26 28 29 29 31 32
79 63 50 43 40 36 29 26 21 19 21 18 13 11 10 10 10 10 10 11 11 11 11 8 9 10 10 10 10 15 31 21 31 48 36 22 21 15 15 16 14 19 18 20 29 30 29 32 34
38 66 43 29 26 24 22 20 15 21 19 17 14 12 11 10 10 10 10 11 10 10 9 12 11 10 17 19 19 24 26 32 28 33 43 45 29 30 16 15 14 22 22 21 26 31 32 36 37
27 34 38 29 20 17 15 14 12 13 16 16 13 12 12 12 10 10 10 9 8 9 10 8 9 13 11 19 24 26 38 45 45 32 35 45 45 34 15 13 22 32 21 22 28 31 35 40 40
24 26 25 24 21 17 14 14 12 11 14 14 14 15 14 14 13 12 10 9 9 7 8 9 8 9 10 17 28 30 34 36 32 42 45 56 65 71 48 25 30 32 24 24 22 30 37 45 44
21 21 20 22 22 19 16 17 14 16 13 14 16 17 16 14 14 12 10 9 9 8 6 7 8 8 10 10 12 12 20 28 26 27 36 40 58 71 70 52 44 33 23 27 24 22 31 39 40
24 20 19 18 18 16 15 13 12 17 16 17 16 16 15 15 14 13 11 9 9 9 8 6 7 9 9 10 10 11 12 15 19 18 20 32 35 51 63 62 72 62 30 29 26 24 27 28 31
29 24 20 18 16 16 15 13 17 18 16 15 14 14 14 14 14 13 11 10 9 8 8 7 6 7 8 8 10 10 10 11 14 23 21 25 38 45 71 82 81 75 68 42 40 46 26 29 31
28 26 25 22 18 15 14 14 16 17 16 14 12 13 13 12 12 10 10 9 9 8 8 7 6 6 8 8 8 8 10 10 13 18 22 19 32 40 55 76 87 91 87 78 71 39 31 36 36
29 29 27 24 20 18 15 13 15 14 13 12 11 10 10 9 10 10 9 8 8 8 8 7 7 7 8 9 8 8 8 10 13 15 16 16 21 22 30 37 57 74 96 84 82 74 57 45 45
42 36 30 24 21 18 16 15 17 15 13 12 12 15 17 17 17 16 15 13 11 10 9 8 8 8 8 8 8 9 8 8 11 14 15 16 21 32 37 42 38 44 64 87 90 94 98 94 70
58 44 35 28 20 16 15 15 18 16 15 16 18 18 17 16 15 15 14 13 12 11 11 10 10 9 9 8 9 10 11 12 12 14 15 17 18 20 25 39 52 52 58 77 95 94 97 97 96
96 67 44 34 22 19 20 19 20 20 19 19 19 18 18 17 15 14 13 12 11 10 9 8 8 8 8 8 8 8 8 9 10 12 15 16 19 25 28 42 53 64 64 66 84 79 82 97 91
89 65 56 37 30 26 25 22 22 21 20 19 18 17 16 15 13 12 11 10 8 8 9 10 14 18 19 20 21 20 16 12 10 11 12 13 15 24 48 42 48 60 66 66 75 85 86 90 95
74 57 38 30 29 26 26 24 23 21 19 17 14 13 12 11 9 8 9 10 13 19 23 20 18 18 20 24 26 24 23 30 31 22 16 16 17 17 18 46 51 54 71 82 84 97 100 99 93
30 33 35 30 29 29 26 21 18 17 15 13 11 11 10 10 11 14 18 19 18 17 15 16 17 17 19 20 21 23 21 23 33 48 47 34 25 24 23 24 49 61 66 71 85 92 95 97 90
33 35 33 35 31 26 22 20 17 14 12 11 11 13 16 23 24 22 18 16 15 15 17 15 12 11 16 21 29 27 18 27 33 50 76 71 56 40 34 31 31 83 85 79 72 76 96 92 88
40 40 39 32 26 24 21 18 14 13 17 18 24 26 24 23 22 19 16 17 18 15 8 9 12 21 24 30 27 45 40 22 47 60 68 84 93 77 57 44 35 35 44 78 93 97 94 98 86

GFSSGP_500_rhum_030.txt.gz
RH
64 60 48 50 49 49 44 39 31 27 23 20 18 16 15 14 14 13 14 14 13 13 15 16 17 16 15 13 13 12 11 10 8 7 6 4 3 2 3 3 3 4 5 6 7 7 7 6 6
48 63 58 45 48 46 46 42 39 33 29 25 22 20 18 18 19 19 19 19 20 20 21 20 18 16 15 15 14 12 12 13 13 12 10 8 5 4 3 3 3 4 4 5 5 5 5 6 7
50 43 58 51 39 41 44 45 41 40 36 32 31 28 27 26 26 25 24 24 22 21 19 17 15 14 14 13 11 10 8 9 9 9 11 11 12 11 9 8 5 4 5 5 5 5 6 6 7
52 37 51 49 43 38 43 43 41 40 39 36 35 34 30 28 27 24 23 21 19 15 14 13 12 10 9 7 7 5 5 5 5 5 5 5 6 7 7 9 11 10 10 9 8 6 8 8 7
55 35 37 47 44 35 36 36 37 36 34 32 28 26 24 21 18 17 16 16 14 14 12 11 10 9 8 7 8 7 6 6 6 6 5 5 5 6 6 7 6 7 8 9 11 12 12 13 11
62 33 32 39 43 36 30 28 26 24 23 20 18 18 17 16 15 15 14 14 13 12 11 10 9 8 8 8 7 7 6 5 6 6 6 6 8 9 10 10 10 9 10 11 11 12 11 12 12
64 34 29 33 36 34 24 23 22 19 17 17 16 15 14 14 15 15 14 12 10 10 10 11 11 10 9 9 7 6 6 6 6 9 11 15 17 15 13 10 8 8 9 11 13 14 16 16 16
72 41 30 30 34 31 25 22 22 19 16 15 14 13 12 12 13 11 10 10 11 11 11 10 12 11 10 9 7 7 8 8 10 17 23 26 22 17 15 13 10 10 9 10 13 16 19 19 18
65 51 27 27 33 31 29 25 21 20 17 15 15 14 13 13 12 12 12 12 12 12 11 12 10 9 8 8 8 8 8 11 16 21 30 32 29 24 21 17 15 13 11 11 13 14 13 17 20
65 52 29 29 31 33 32 29 22 19 21 18 16 14 13 10 7 7 7 6 6 6 6 7 7 7 8 8 8 8 9 10 13 18 29 31 34 31 26 26 22 18 14 14 14 13 14 18 22
83 59 38 34 34 35 32 31 26 21 20 18 16 15 13 10 8 6 6 7 8 7 7 7 8 8 8 7 7 7 8 8 11 15 27 33 33 29 30 36 31 18 18 17 15 14 17 20 23
86 60 46 41 42 37 32 33 29 23 18 17 16 15 13 10 8 8 10 8 11 9 8 8 8 9 7 7 7 7 11 11 9 13 24 32 31 22 25 32 26 19 21 16 13 15 20 25 26
83 73 60 53 45 40 33 33 34 27 20 18 16 16 14 11 9 10 10 15 16 15 11 9 10 10 12 11 8 8 8 12 21 13 16 20 20 18 20 24 14 13 17 12 12 15 21 26 27
77 78 80 67 45 40 37 34 34 31 25 19 17 18 16 13 10 11 12 12 12 10 9 8 9 10 10 10 10 10 9 11 18 48 33 21 33 40 33 22 20 12 10 9 13 16 19 24 25
49 83 96 73 57 40 35 32 28 32 29 20 18 19 18 15 11 11 12 12 11 10 9 8 8 9 10 10 10 13 14 16 24 36 39 38 23 28 41 37 29 22 13 13 16 21 18 21 21
36 44 95 96 63 45 38 30 26 30 28 24 20 17 19 18 12 12 12 12 12 11 10 9 8 8 8 8 12 11 16 17 21 31 36 44 51 46 38 39 39 31 14 12 23 28 18 19 21
48 35 56 95 76 53 38 28 26 25 25 24 20 19 21 19 13 12 13 12 11 11 10 8 7 7 9 9 8 12 16 19 23 28 38 46 43 44 59 51 58 69 39 20 27 30 23 21 18
47 39 36 60 85 64 51 33 22 20 18 16 16 18 19 17 15 12 11 10 10 10 9 9 10 9 8 9 10 10 12 15 15 26 37 44 42 40 52 65 61 65 68 50 37 33 23 26 23
38 27 28 31 40 59 39 40 19 16 18 20 16 16 15 15 13 12 11 12 11 10 9 10 9 10 10 8 7 10 10 12 14 11 12 14 19 38 55 49 66 74 79 64 61 64 28 28 25
30 25 24 24 26 43 55 50 23 19 18 18 18 17 16 15 14 13 13 11 10 10 10 9 9 9 9 8 7 6 9 10 10 15 10 18 14 27 41 43 48 61 68 73 70 78 70 41 37
35 28 23 21 20 20 23 22 20 20 17 14 15 17 18 16 15 13 12 11 10 10 9 9 9 9 9 8 8 6 6 9 10 10 10 12 13 17 24 42 48 40 63 80 93 91 90 74 61
38 33 28 23 20 18 18 17 17 16 16 14 13 14 14 14 13 12 11 10 9 9 8 7 8 7 8 8 7 7 7 6 9 10 10 11 12 14 17 49 41 37 43 64 83 98 100 96 85
40 34 33 28 24 22 19 20 18 16 14 14 14 14 13 12 11 10 9 9 9 12 14 15 14 13 12 11 10 8 8 8 9 10 12 14 17 17 17 34 63 48 50 54 54 76 96 99 92
41 36 34 32 28 24 21 20 19 16 14 13 12 12 11 10 10 10 13 15 15 15 14 14 12 12 11 10 10 9 9 9 9 10 11 14 17 20 20 22 52 56 44 49 61 56 58 62 68
50 42 38 33 30 24 23 20 18 16 14 12 12 11 11 12 14 16 17 18 16 15 14 12 11 10 9 8 8 7 7 8 8 9 10 12 11 14 19 27 26 35 52 56 57 64 69 75 80
78 62 51 40 34 26 23 20 16 15 13 11 10 12 14 17 19 19 18 16 14 12 10 8 8 7 8 10 12 14 16 17 18 18 19 20 22 18 17 18 24 32 34 52 60 64 74 88 87
100 100 92 66 55 40 30 22 21 18 16 14 16 18 19 18 16 14 12 10 9 8 8 9 10 12 14 13 12 12 13 14 15 18 21 25 26 28 39 28 20 22 34 56 60 64 82 95 93
100 99 91 79 54 35 30 27 24 23 21 21 21 20 17 14 12 10 9 9 10 11 14 14 14 13 12 12 12 10 10 12 13 15 20 24 22 22 27 50 57 31 29 33 59 74 77 84 98
71 54 52 45 34 36 32 28 26 24 23 20 17 14 12 10 10 10 12 16 18 15 13 12 13 15 9 10 10 13 22 26 31 36 43 32 40 33 33 40 51 76 50 36 36 41 70 79 84
52 37 34 37 43 38 32 27 24 21 18 15 13 12 11 13 15 20 18 17 15 14 16 17 14 8 9 11 15 21 20 22 27 34 33 75 38 43 34 53 61 86 98 72 56 47 44 71 77

GFSSGP_500_rhum_033.txt.gz
RH
78 67 55 53 53 52 43 33 26 19 16 13 12 10 10 10 12 15 12 12 11 10 10 12 12 14 15 15 14 13 13 12 12 10 9 8 6 4 3 3 3 3 3 3 4 5 6 6 6
75 76 68 54 53 51 51 43 34 27 21 19 16 14 14 14 14 14 14 15 15 15 16 18 19 18 18 16 15 14 13 12 12 12 12 12 11 10 8 6 5 4 3 4 4 4 4 5 5
90 68 68 66 51 50 54 49 43 36 30 25 22 20 18 19 17 17 18 19 20 22 23 22 20 17 14 14 13 12 10 8 7 7 7 7 8 9 10 11 11 11 11 8 6 6 5 6 6
96 84 62 58 58 47 53 46 47 43 38 33 28 25 23 22 22 23 25 26 25 25 22 17 14 13 11 10 8 7 6 5 4 4 4 4 4 4 3 4 4 5 6 7 9 10 11 12 12
93 81 72 54 55 54 46 46 47 46 43 40 35 32 31 31 30 30 29 28 25 21 17 15 13 11 10 9 8 6 6 5 5 4 3 3 3 3 3 3 3 4 4 5 6 7 8 10 10
91 69 70 54 48 55 49 41 44 44 44 42 42 38 35 34 32 28 25 24 20 17 17 16 13 10 9 7 6 6 6 4 4 4 3 3 4 5 8 10 11 10 8 7 7 7 7 10 10
87 62 57 61 40 50 51 42 38 41 42 44 38 37 32 28 24 19 16 16 17 16 15 14 12 10 8 7 6 6 6 4 3 4 5 6 12 17 19 17 15 13 9 6 6 6 6 8 13
97 97 71 56 42 40 48 44 36 35 35 33 30 24 22 19 18 16 16 15 14 13 12 11 10 9 8 7 7 6 4 4 5 4 6 14 21 24 23 21 19 16 12 11 10 8 8 9 10
96 98 85 56 40 38 43 44 35 30 28 24 20 20 18 16 15 14 14 13 12 11 10 9 9 8 8 7 6 5 4 5 6 6 5 11 20 24 27 26 24 20 18 15 11 8 9 10 10
82 88 90 73 43 36 39 42 34 28 24 22 21 18 16 14 14 14 12 11 11 11 11 10 9 6 5 5 5 6 6 5 5 6 6 7 12 20 27 29 26 28 28 20 10 12 12 12 12
78 70 84 76 45 32 38 42 34 28 24 23 20 17 16 15 15 13 10 9 7 6 5 5 5 4 5 5 6 6 6 6 5 6 6 7 8 16 24 27 20 25 28 18 15 15 13 11 13
80 67 93 72 58 37 38 44 35 31 28 22 19 18 16 16 14 12 10 8 6 6 6 6 6 6 6 6 8 7 6 6 6 7 12 10 9 13 21 20 16 22 25 16 15 17 12 10 11
97 74 85 75 53 44 39 38 42 32 26 25 21 19 18 16 14 12 10 8 7 8 7 7 8 7 7 7 7 7 9 9 8 7 7 10 26 16 12 22 24 18 18 15 11 12 11 10 12
72 84 78 92 79 49 41 37 39 37 27 24 22 21 19 17 15 13 10 9 8 9 11 12 14 12 9 9 10 17 10 8 8 8 8 12 21 40 39 23 27 38 37 23 22 13 12 10 16
48 81 90 97 96 64 45 36 33 39 31 25 22 20 19 19 18 15 12 10 9 9 8 9 9 9 9 9 9 9 6 6 7 10 11 13 24 36 42 40 35 27 37 35 28 22 13 13 20
46 64 92 98 96 80 50 39 40 41 34 26 23 22 19 20 20 18 14 11 9 10 11 11 10 9 8 8 8 8 8 7 7 8 9 16 18 29 41 50 53 52 44 41 44 38 15 12 22
61 45 88 98 94 91 59 44 38 41 41 36 31 25 21 21 20 22 18 13 10 10 10 10 10 10 9 9 8 14 17 18 17 13 12 16 20 27 32 44 45 50 56 55 52 58 62 36 24
76 71 82 73 82 95 66 48 42 37 41 39 34 27 22 20 19 21 20 16 11 10 11 11 12 12 11 10 9 9 10 12 13 11 17 19 16 16 15 21 34 49 47 53 68 66 67 68 48
52 67 72 58 54 84 83 59 49 38 35 33 31 27 22 19 19 15 17 16 12 11 11 12 13 12 11 10 9 10 9 10 10 8 10 11 12 14 16 13 13 17 23 47 60 68 75 83 76
50 57 70 76 54 62 93 70 53 49 32 24 22 20 18 15 13 12 13 12 12 11 10 12 12 11 11 10 10 9 9 9 9 8 9 10 12 13 14 16 14 18 18 30 46 51 53 62 79
48 42 46 56 65 39 58 78 73 52 33 20 18 17 16 14 12 11 10 10 10 10 11 11 11 10 10 9 9 8 8 8 8 9 9 10 12 10 10 10 12 12 14 16 38 48 60 61 64
46 38 36 31 75 33 32 38 79 62 38 27 21 19 18 16 17 20 14 12 11 11 11 10 10 9 8 8 8 8 8 8 8 8 8 10 12 14 14 13 16 28 36 47 66 68 87 90 78
68 42 33 28 54 65 24 24 31 32 53 54 46 25 17 13 14 15 13 12 12 11 10 9 8 8 13 15 15 14 13 12 12 11 10 9 10 12 15 16 15 17 19 39 58 75 86 89 76
72 49 40 32 27 51 40 21 20 20 18 16 15 15 14 13 12 11 11 11 10 9 8 9 12 15 15 14 13 12 11 10 10 10 9 9 9 9 12 16 19 22 26 28 31 55 79 97 94
73 51 42 38 33 29 40 32 23 19 18 17 15 13 12 11 11 11 10 10 9 10 14 17 17 16 15 13 11 9 8 8 8 9 11 14 17 21 21 19 16 14 15 21 31 36 42 62 95
100 58 45 38 34 30 29 28 26 22 18 16 14 13 12 11 10 10 9 11 14 17 19 18 16 13 10 9 8 8 9 11 12 13 12 13 14 14 16 21 29 36 33 22 19 21 33 45 51
88 76 51 44 38 35 33 28 24 20 17 15 13 12 11 10 10 12 14 18 20 19 16 12 10 9 10 9 9 11 11 11 12 10 9 9 13 16 20 19 16 20 24 42 53 38 30 40 46
96 86 76 60 54 48 42 34 27 22 17 14 13 13 14 15 16 18 20 20 16 12 10 10 10 10 10 11 10 10 12 9 8 12 16 18 20 20 24 32 36 34 26 33 53 63 62 63 51
98 100 99 98 89 85 66 51 31 26 22 18 18 20 19 20 22 20 16 11 10 10 10 11 12 11 10 10 12 11 8 11 13 23 26 19 18 20 26 35 40 56 54 54 50 49 63 81 74
100 95 98 94 88 69 56 37 33 27 26 26 24 23 22 19 14 11 10 10 10 13 12 11 9 10 15 13 11 8 14 23 28 29 22 19 16 22 39 52 82 100 100 77 51 54 70 71 84

GFSSGP_500_rhum_036.txt.gz
RH
63 59 56 54 49 43 30 22 17 14 12 10 8 7 10 11 8 10 11 9 9 9 8 7 7 9 10 13 14 14 13 13 12 12 12 12 12 10 9 7 6 4 3 3 3 4 4 4 4
78 70 60 56 51 50 46 34 26 20 16 13 11 11 11 11 11 10 13 13 11 11 10 11 11 13 16 17 17 15 14 13 12 12 12 12 12 12 12 12 12 12 11 11 10 8 5 4 4
90 86 69 55 53 51 53 50 40 31 22 18 15 13 12 11 11 12 13 14 14 15 15 16 17 18 18 16 14 14 13 11 10 8 6 4 4 4 3 4 4 5 5 6 7 9 10 11 11
96 85 77 62 54 55 56 58 50 42 32 25 20 17 15 15 15 16 15 16 18 20 22 22 21 18 16 15 13 11 10 8 6 4 4 3 3 3 2 2 2 3 2 3 3 4 5 7 8
96 93 76 67 65 61 64 57 46 49 42 34 28 23 21 20 20 19 19 20 24 26 26 24 19 15 14 13 12 11 9 8 6 5 4 3 2 2 2 2 2 3 4 5 6 7 7 6 7
97 97 92 69 65 68 62 60 46 50 49 43 37 32 29 26 24 23 25 29 28 27 25 20 16 15 13 12 10 8 7 6 5 4 3 2 2 2 3 5 8 11 12 11 9 7 5 4 4
96 97 92 90 73 64 68 63 44 52 52 49 44 41 36 34 32 31 31 30 29 26 21 17 15 14 13 11 10 7 6 5 5 4 3 3 3 4 9 14 16 17 18 17 13 9 7 7 6
98 98 94 95 92 73 58 66 56 46 47 48 46 44 51 39 36 34 32 28 22 19 17 16 15 13 12 9 7 6 6 5 4 3 3 4 4 6 10 10 14 18 20 18 14 13 10 6 6
98 97 95 86 95 88 63 56 59 53 44 41 44 40 38 43 33 30 25 21 16 17 15 14 13 11 9 8 8 7 5 4 3 4 4 4 4 4 6 9 13 18 20 18 21 18 9 9 9
96 91 89 83 96 97 95 61 54 54 46 39 38 38 35 32 24 20 18 17 16 15 13 11 9 8 8 7 5 4 3 3 4 4 4 4 4 4 6 6 11 18 21 16 19 18 11 12 11
89 82 100 98 98 94 96 74 48 52 47 38 34 32 29 26 20 17 15 14 12 11 10 9 8 7 6 4 4 4 4 4 5 4 4 4 7 11 9 8 9 18 18 13 17 16 10 13 15
86 94 96 97 98 97 92 69 47 45 46 37 30 30 24 20 18 16 14 12 12 10 9 7 6 5 5 5 5 4 5 5 6 5 6 6 6 6 10 20 10 13 15 14 14 13 10 9 11
85 97 97 98 90 90 80 48 43 42 44 39 34 26 24 20 17 14 14 13 11 10 8 12 6 6 6 5 6 6 6 7 9 13 12 9 7 6 8 18 37 21 22 31 33 24 19 17 10
67 100 97 93 73 91 90 62 41 46 40 38 31 27 24 21 18 17 16 14 12 10 9 8 8 8 9 10 13 8 10 10 10 14 6 5 5 8 9 13 33 41 41 30 26 34 35 27 24
61 93 97 90 70 97 93 81 45 49 40 37 32 29 24 21 20 19 17 15 12 11 9 9 9 8 10 9 7 7 7 12 9 7 6 6 6 7 10 14 20 31 41 46 48 47 39 39 38
61 86 92 97 83 96 90 74 54 54 42 39 33 29 25 23 22 20 19 16 14 12 12 18 12 10 11 8 8 8 8 10 7 10 12 14 12 9 9 11 16 21 28 38 46 51 56 52 51
66 81 78 91 98 97 93 75 57 50 46 39 35 30 26 23 22 22 21 19 16 15 12 11 9 10 10 16 17 12 11 9 9 10 10 13 14 18 12 11 11 14 15 17 32 42 48 46 56
55 60 80 66 96 93 91 90 64 47 47 43 37 33 28 24 22 22 21 18 17 17 16 12 10 10 10 10 10 10 12 11 14 12 11 24 10 9 16 22 20 13 19 17 16 11 19 25 38
58 67 92 52 71 89 92 97 88 55 46 49 44 37 30 25 24 22 19 19 20 21 20 16 12 10 12 11 10 10 11 10 9 10 19 19 25 20 20 33 41 25 27 29 27 16 14 19 26
83 81 96 74 56 73 82 90 95 70 46 50 47 38 33 30 27 19 18 19 19 18 19 17 13 11 12 12 12 10 10 10 10 9 8 11 16 18 24 23 28 35 30 25 29 27 26 19 28
75 84 79 83 64 74 96 80 88 78 52 50 42 37 35 31 27 20 20 18 14 13 13 14 13 12 12 12 10 10 10 9 8 9 8 8 8 12 23 23 30 34 42 29 33 43 55 58 73
64 86 55 63 64 69 93 68 68 94 63 59 51 38 29 24 21 19 16 14 12 11 11 11 11 11 11 11 10 9 8 8 8 9 11 10 10 10 10 15 24 32 31 22 22 34 44 56 61
74 72 70 49 48 77 81 79 51 69 80 68 59 48 34 21 16 17 18 22 25 24 20 14 13 12 10 9 8 8 11 14 14 14 13 13 12 12 11 11 10 12 21 26 26 27 28 53 64
99 83 73 49 44 72 46 85 54 47 45 77 70 58 45 39 39 33 34 30 24 18 14 10 9 9 9 8 10 14 15 15 14 13 12 10 9 8 8 13 17 15 14 18 18 19 25 36 42
92 88 90 53 41 62 44 58 70 45 37 32 52 71 58 53 50 39 31 25 14 11 10 10 9 9 9 13 16 18 17 14 11 8 8 9 10 11 13 13 16 19 21 21 25 30 32 34 38
100 100 100 72 46 42 46 37 75 52 28 21 20 19 17 16 14 13 12 12 10 10 10 9 10 12 15 19 18 14 10 8 9 10 11 11 10 10 9 9 10 12 16 17 18 18 20 33 33
98 90 85 80 55 44 38 33 30 51 58 45 27 20 17 15 13 12 12 11 10 9 9 11 15 19 20 16 10 9 9 10 10 8 8 9 9 10 15 20 18 18 21 24 29 28 26 24 29
98 100 94 81 57 46 42 36 30 27 29 30 28 21 16 13 12 12 11 10 9 10 15 20 20 17 13 11 11 9 8 6 7 11 9 11 12 15 23 24 20 19 17 24 38 55 81 82 80
89 96 97 90 71 54 48 41 32 30 28 25 21 18 15 13 12 12 11 12 15 20 21 18 14 12 11 10 9 7 7 10 9 8 9 14 20 21 23 20 16 10 12 14 24 64 80 99 100
99 99 99 97 84 76 65 56 46 41 36 31 25 21 17 15 14 15 17 20 21 17 13 11 11 11 10 7 7 10 9 8 10 11 15 19 25 24 19 15 12 10 12 20 75 100 88 100 100

GFSSGP_500_rhum_039.txt.gz
RH
59 50 44 36 27 18 17 17 12 10 6 6 6 9 14 13 15 12 9 6 8 8 7 6 6 6 8 9 11 13 13 13 13 12 12 12 12 12 12 12 11 11 11 9 9 9 9 8 4
79 55 49 41 36 26 24 20 16 12 10 9 8 10 10 12 11 9 9 12 11 9 9 8 8 9 11 14 15 16 16 14 14 13 13 13 12 11 9 8 8 8 7 7 8 8 8 9 9
94 66 52 43 43 41 40 29 23 18 15 13 12 13 9 8 8 8 10 12 13 12 12 12 12 13 14 16 17 16 14 14 12 11 9 6 4 3 3 3 3 2 2 2 3 3 3 3 4
94 89 60 47 43 50 53 44 31 25 21 17 15 13 10 10 10 11 11 12 15 14 14 15 16 17 18 18 18 15 14 13 10 8 6 5 4 3 2 2 2 2 2 3 3 4 5 6 6
97 92 79 53 50 60 52 54 45 37 32 24 20 17 14 13 13 12 13 14 14 16 18 20 22 22 20 18 16 14 12 10 10 10 7 5 3 2 2 2 2 3 6 8 10 10 10 8 6
98 95 91 66 59 71 58 52 54 46 44 36 29 23 20 18 17 16 17 18 18 20 22 25 24 22 19 17 16 14 13 10 7 5 5 4 3 2 2 3 5 8 11 13 14 14 12 9 7
95 97 96 94 80 95 68 57 50 48 52 47 40 34 32 35 28 29 22 21 21 25 26 27 24 21 17 16 15 13 11 7 5 5 4 3 3 2 2 3 5 6 8 12 15 15 12 11 9
99 96 99 97 97 96 93 81 57 49 56 53 47 42 48 41 37 36 32 28 30 31 28 26 23 19 16 16 14 12 7 6 5 4 3 3 3 3 3 3 3 5 7 11 15 15 16 14 9
97 96 95 97 95 97 95 86 69 63 54 52 50 46 45 46 51 51 40 42 36 32 28 23 20 17 16 14 12 9 6 6 4 3 3 3 3 4 3 3 4 5 7 13 16 14 14 14 10
96 94 84 95 100 97 96 98 77 70 62 48 50 50 47 46 51 59 41 38 33 29 27 21 17 15 14 12 9 7 6 4 3 3 3 3 4 4 5 9 9 9 7 11 16 12 12 14 12
96 89 100 97 98 96 96 94 98 69 66 55 47 48 46 44 49 59 46 34 31 25 19 16 15 13 10 8 7 5 4 4 4 4 4 5 4 4 3 5 6 16 13 10 13 12 12 12 12
91 97 97 98 96 98 95 97 94 69 59 60 51 42 40 39 38 40 43 26 22 18 16 15 11 9 8 7 6 5 4 4 4 5 4 5 8 9 8 6 5 8 25 18 15 25 29 26 19
92 97 97 97 96 98 97 89 100 84 61 56 55 45 38 36 35 32 27 23 18 16 14 11 10 9 8 6 6 6 6 7 8 8 10 9 9 5 5 5 6 8 13 31 36 29 24 24 38
71 96 96 96 89 96 97 96 99 90 72 51 53 49 37 34 30 26 21 19 17 14 12 10 9 9 9 7 8 8 10 11 7 6 7 8 6 5 5 5 6 8 11 22 36 40 43 43 37
68 93 96 90 88 96 98 98 95 96 74 50 45 48 35 30 27 23 20 17 16 14 12 12 10 10 9 10 7 7 7 7 7 6 12 9 6 6 7 8 7 8 10 13 16 25 32 43 49
66 93 90 88 86 95 98 84 88 76 65 53 43 43 38 30 27 24 22 20 16 13 13 12 11 11 11 11 11 10 8 6 7 7 7 6 7 10 9 11 13 16 13 11 12 13 14 20 31
75 88 80 82 96 97 96 81 92 74 58 51 45 40 39 33 30 27 24 21 17 14 14 14 13 12 12 12 11 10 11 14 13 9 8 11 17 12 11 19 14 9 11 19 21 16 12 15 13
39 56 60 67 80 97 94 80 94 88 65 51 43 41 39 35 32 30 25 20 18 17 16 14 15 14 13 12 10 9 8 8 9 13 22 28 22 24 26 18 20 29 29 26 28 28 27 27 26
49 63 55 58 66 91 92 94 97 87 80 58 46 41 39 38 33 27 24 21 20 18 18 18 15 13 15 15 12 10 9 12 21 19 12 19 24 25 20 44 42 38 42 39 39 36 48 43 44
41 59 58 62 74 93 89 89 96 83 74 62 51 42 38 34 33 29 24 21 23 23 22 21 20 17 15 15 13 10 9 10 11 10 9 8 10 13 18 21 30 35 43 46 48 55 65 76 73
24 45 57 56 60 74 69 71 88 89 81 68 64 49 40 37 31 28 25 23 24 23 21 20 19 18 15 13 12 10 9 9 9 10 10 10 8 6 7 10 19 28 33 34 52 59 65 66 65
28 46 65 60 62 74 76 59 74 92 93 83 67 58 48 39 33 29 25 26 25 22 20 19 15 12 11 11 10 10 9 10 9 8 8 9 13 15 15 14 13 14 21 32 31 28 36 46 54
45 59 63 81 84 80 86 65 61 80 84 78 70 59 48 42 36 32 29 26 23 20 18 14 13 17 18 14 13 12 10 9 8 8 9 14 16 15 14 13 12 10 8 9 15 24 28 37 44
46 58 62 65 96 81 78 76 57 73 74 76 77 58 57 48 40 33 28 19 17 18 20 24 27 25 20 12 10 9 8 8 9 12 15 17 16 14 11 9 9 16 15 13 14 17 19 25 33
45 70 75 73 66 66 62 59 50 60 68 69 76 69 63 66 46 33 31 29 35 39 36 33 31 27 18 10 9 8 8 9 14 18 18 14 10 8 9 11 12 11 10 9 13 17 18 22 24
76 94 84 88 62 61 68 54 51 53 66 72 46 53 72 78 65 64 62 59 54 49 45 37 30 17 10 9 9 8 10 16 20 15 10 9 9 8 7 10 9 11 13 15 25 26 20 17 19
76 73 86 94 89 82 63 56 54 50 52 68 40 24 31 50 60 59 48 29 22 16 13 12 11 9 9 9 9 13 19 20 12 8 10 9 6 7 10 8 10 17 23 20 15 14 11 9 8
80 100 100 99 94 86 69 56 44 48 41 60 70 37 25 21 20 19 17 16 14 12 11 11 10 9 9 11 18 20 17 10 10 9 7 8 8 8 8 15 19 22 16 14 16 14 10 10 16
99 93 100 100 100 93 82 64 52 45 38 31 37 72 53 42 31 23 18 13 12 12 11 11 10 11 16 22 18 11 10 10 8 7 8 8 9 11 14 16 16 16 16 19 15 12 10 18 22
93 100 94 98 98 99 83 68 58 48 42 38 33 29 26 25 21 18 14 13 13 12 11 12 15 21 21 13 10 11 9 8 10 10 8 12 15 13 15 15 18 21 21 19 15 14 15 23 27

GFSSGP_500_rhum_042.txt.gz
RH
58 44 38 30 22 18 14 13 13 17 20 16 40 53 56 44 36 31 26 20 8 8 5 7 6 5 6 7 10 12 13 14 14 13 13 13 13 13 13 13 12 12 11 11 10 10 10 9 9
71 62 49 36 27 20 18 15 14 11 12 12 26 27 31 31 31 26 18 10 9 8 8 7 6 7 9 11 12 14 15 16 15 14 13 13 13 10 6 4 3 3 3 2 3 3 3 3 3
94 78 62 46 34 27 22 17 15 13 9 9 12 13 12 9 12 12 9 9 14 12 9 9 9 10 11 14 15 16 17 16 14 13 13 10 6 4 3 3 2 2 2 2 2 2 3 4 5
96 94 75 56 42 40 32 20 18 16 13 12 11 10 7 7 8 9 9 10 11 13 12 11 12 12 13 15 17 18 17 16 14 11 9 8 6 4 3 2 2 2 2 3 6 7 9 10 10
99 82 87 63 58 51 39 33 24 20 17 15 12 11 9 9 8 10 10 12 13 14 14 14 15 16 18 19 20 17 14 12 11 13 12 7 5 4 3 2 2 3 5 7 9 10 12 12 11
95 90 73 78 73 62 50 42 31 23 21 19 16 14 13 11 10 10 11 12 13 14 15 16 19 21 23 22 20 17 15 13 11 9 7 4 4 3 2 2 3 4 5 5 7 10 12 13 11
91 95 73 81 91 80 59 44 38 33 32 26 22 20 18 16 15 14 13 14 17 17 18 19 22 24 25 22 18 17 16 15 12 7 5 4 3 3 2 2 3 3 3 4 6 9 12 14 13
100 96 98 96 97 93 70 58 46 41 42 40 33 30 27 24 22 20 29 27 19 20 21 22 25 27 25 22 18 17 15 15 9 5 5 3 3 3 3 3 2 2 3 4 5 6 10 11 12
95 91 80 94 96 86 78 69 59 50 46 49 45 42 38 34 35 40 36 44 31 27 26 28 30 27 24 20 18 17 14 11 6 5 4 3 3 3 3 3 3 5 7 7 6 6 9 10 9
96 84 72 83 98 97 91 79 67 63 50 51 49 47 47 42 42 48 48 48 44 40 41 35 31 27 22 19 17 15 12 8 6 4 4 4 4 4 4 3 4 6 6 10 12 8 8 8 8
91 86 88 98 98 96 97 96 73 71 54 55 57 51 54 56 58 55 53 62 59 46 39 34 29 27 22 18 15 12 8 6 5 4 4 4 4 4 5 7 7 6 5 5 9 13 10 12 18
94 97 95 96 94 97 97 97 90 82 64 51 56 54 52 59 62 62 63 67 65 47 37 33 27 22 18 16 12 8 6 5 5 5 5 6 7 8 9 5 4 4 4 4 5 9 20 19 18
93 97 98 97 97 97 96 94 96 81 80 65 63 59 49 48 52 55 59 60 58 53 32 29 22 19 16 12 9 8 6 6 6 7 8 9 9 7 7 5 4 4 4 4 6 8 14 31 34
85 97 99 97 96 96 97 96 96 94 86 87 68 66 57 47 45 46 47 50 51 45 32 22 18 15 12 10 9 10 8 8 8 9 7 5 6 9 8 5 5 5 6 6 6 7 8 12 17
54 96 97 95 97 97 97 98 95 98 77 78 72 66 63 56 45 41 40 38 34 30 27 23 17 14 12 10 9 9 10 8 8 7 6 6 6 7 6 6 10 11 10 11 13 14 12 11 12
61 85 88 97 97 97 96 98 100 94 94 87 77 67 62 60 51 41 36 34 30 27 23 21 16 14 12 11 10 9 10 11 11 10 7 8 12 8 8 12 14 10 14 18 13 10 12 18 21
56 71 66 88 96 97 96 98 98 98 96 86 85 74 56 57 52 42 36 32 28 22 19 17 15 14 13 12 13 15 13 13 11 10 12 11 8 9 20 25 22 23 24 20 21 28 33 30 31
48 58 61 78 96 92 96 97 98 96 86 70 74 72 50 48 50 45 38 31 26 23 20 19 17 15 13 12 12 12 12 11 10 8 8 14 30 37 38 35 34 34 25 24 34 38 42 44 46
41 61 74 84 92 91 95 98 96 95 84 76 68 69 56 44 44 43 38 30 26 24 22 20 19 18 16 15 13 12 11 11 11 14 23 31 34 30 40 32 18 14 21 28 32 52 50 64 68
34 46 69 86 97 96 98 93 98 92 80 84 72 59 54 48 42 40 38 34 28 25 22 21 20 18 17 17 16 15 15 15 12 11 11 9 8 8 8 9 10 8 8 10 15 31 40 44 59
20 43 49 54 76 78 90 77 94 81 72 75 78 70 57 46 41 43 41 34 30 27 26 22 19 17 15 14 14 14 15 15 14 11 9 9 9 9 8 7 6 8 13 14 14 14 27 36 49
14 24 36 42 50 63 70 66 80 100 76 75 90 84 68 55 45 38 36 35 32 29 26 24 21 19 19 18 16 14 14 11 10 10 10 10 10 9 7 7 9 12 15 15 14 12 10 15 23
30 25 20 34 45 54 56 60 70 78 79 65 78 86 73 60 52 43 36 33 32 31 27 24 21 20 20 18 17 13 12 17 24 18 14 10 9 8 10 14 16 17 16 12 9 9 12 14 12
77 54 46 29 40 45 53 58 56 71 60 80 80 83 84 65 54 47 40 38 35 31 27 25 22 21 18 15 17 26 27 21 16 14 10 8 8 12 17 18 15 11 9 10 10 8 9 8 8
51 43 36 36 38 20 56 72 40 68 55 61 75 78 86 77 64 55 48 41 35 29 24 22 19 19 20 26 28 28 25 22 16 10 8 8 11 16 19 12 9 11 13 11 10 10 12 17 18
42 39 32 32 26 36 51 60 45 64 62 61 67 78 81 79 74 54 47 40 35 31 22 23 34 43 46 40 40 36 30 16 10 8 8 10 16 19 13 10 11 8 9 12 10 11 19 19 14
53 53 59 52 53 51 47 39 46 55 58 58 65 72 61 71 84 65 63 57 45 37 34 40 49 48 44 40 35 29 15 8 8 9 14 20 17 10 10 8 7 8 8 9 16 19 18 17 16
54 47 47 56 67 71 61 53 38 49 55 57 57 66 60 44 42 66 72 71 67 61 57 52 48 41 31 17 11 10 9 8 10 17 20 14 10 10 7 8 7 9 12 13 15 17 16 17 17
42 35 36 61 75 75 73 53 55 55 56 50 55 53 87 42 27 24 40 51 48 44 37 30 18 14 12 11 10 10 10 13 19 20 11 10 8 8 9 10 14 14 15 18 19 19 21 21 18
52 47 72 89 88 99 83 65 76 76 68 56 46 45 86 73 59 43 30 27 24 21 18 16 13 12 11 11 10 14 20 21 13 11 9 10 10 10 8 12 15 16 17 20 19 22 24 24 23

GFSSGP_500_rhum_045.txt.gz
RH
64 50 40 34 27 17 14 13 14 35 70 71 75 66 55 48 44 43 39 28 22 16 11 7 7 6 6 4 6 8 11 13 13 14 14 13 13 13 13 11 7 4 3 3 3 3 3 3 3
79 60 47 37 27 23 18 15 13 19 42 50 52 56 58 48 36 37 41 36 28 16 8 6 7 6 5 6 10 12 14 15 16 15 14 14 13 12 8 4 3 3 2 2 2 2 2 2 3
96 70 57 42 32 27 24 18 14 16 20 31 41 40 56 37 37 35 37 27 16 10 8 8 8 7 8 10 12 13 15 16 16 15 15 14 12 10 7 4 3 2 2 2 2 4 5 8 9
96 94 66 50 35 38 31 21 17 16 15 16 23 37 33 32 28 22 18 12 8 8 10 9 9 10 12 14 17 17 18 18 16 15 13 13 13 10 6 4 2 2 2 3 4 7 9 10 11
95 95 77 54 48 50 39 25 20 17 15 13 13 15 17 17 15 14 10 8 8 8 9 11 10 12 14 17 20 20 17 16 15 14 14 14 9 5 4 3 2 2 2 3 4 5 6 8 10
96 95 90 60 59 62 49 35 25 21 17 14 11 10 10 8 10 9 9 8 8 9 10 12 13 14 18 22 23 22 18 15 13 11 12 11 6 4 3 2 2 2 3 3 3 4 5 6 8
84 93 94 79 70 67 58 46 34 25 19 16 13 10 9 9 10 10 9 8 8 10 12 14 16 18 21 24 24 22 19 17 16 14 11 6 5 4 2 2 2 2 2 2 3 4 4 5 7
95 93 96 96 97 83 63 57 43 32 21 19 17 13 13 13 12 11 11 11 12 13 17 18 19 20 23 26 25 23 20 19 18 17 10 6 4 3 2 2 2 2 2 4 5 6 5 6 8
97 96 89 93 97 93 74 64 54 40 29 21 21 18 18 18 17 16 16 15 15 16 18 20 22 23 26 27 25 22 19 18 17 13 7 5 4 3 3 3 3 3 3 4 4 5 8 8 7
96 97 75 87 98 98 88 74 62 51 39 33 34 26 24 26 25 23 22 22 26 33 26 26 27 28 31 29 26 21 18 17 15 9 6 5 4 3 3 3 3 4 4 4 5 5 6 8 10
98 91 96 100 96 97 96 94 73 62 50 41 49 37 35 34 38 41 39 45 42 41 42 36 36 38 34 30 27 22 18 15 10 7 5 5 4 4 4 5 6 6 5 4 4 4 4 5 11
90 90 99 97 93 93 97 96 82 66 61 55 47 50 42 44 47 46 41 50 52 53 52 49 44 39 34 29 25 21 16 12 8 6 6 6 6 8 9 9 7 6 4 3 4 4 4 5 5
82 99 99 97 96 88 96 97 97 75 68 62 56 60 60 52 55 58 56 55 56 58 59 60 48 39 34 28 22 18 14 10 7 7 7 7 9 8 6 5 7 8 5 5 6 8 8 8 7
80 88 98 92 97 97 96 97 97 96 84 69 63 60 68 59 57 63 63 62 60 59 63 62 54 38 31 25 20 16 12 9 9 8 8 8 7 6 6 6 8 7 5 6 8 8 8 10 11
82 96 97 98 97 97 100 96 95 97 95 79 73 79 67 61 57 64 65 65 65 59 57 59 56 42 26 21 18 14 11 9 9 9 9 8 8 7 6 8 9 6 7 10 12 11 16 17 15
60 90 97 94 98 98 96 91 95 96 92 83 81 87 94 71 57 54 54 54 52 49 52 54 49 36 23 19 16 13 11 10 9 10 11 12 10 9 13 11 7 8 19 22 22 25 27 26 29
66 61 76 97 97 97 93 98 97 98 98 98 85 94 95 95 78 58 52 48 46 45 42 39 34 28 22 18 15 13 11 11 13 15 12 10 9 9 8 9 19 32 37 36 36 38 31 24 31
37 52 60 84 96 96 99 98 96 95 97 91 100 100 91 89 87 80 60 53 46 41 38 36 31 26 20 17 15 14 13 12 12 12 11 11 10 12 19 44 55 46 41 37 18 13 18 22 23
41 45 57 55 93 96 98 94 98 98 96 96 94 86 93 97 81 76 71 60 53 42 35 31 28 24 21 18 16 14 14 14 14 14 14 13 14 22 39 40 22 17 11 9 11 8 7 11 22
36 44 51 51 65 96 98 91 98 95 93 96 81 72 82 100 78 67 66 65 60 47 35 30 26 24 22 20 17 15 13 14 13 13 13 14 14 14 10 12 11 11 10 9 8 8 11 14 15
29 42 54 68 74 88 92 91 88 92 97 97 88 86 84 76 81 64 53 52 54 51 39 30 26 25 23 21 19 18 18 17 17 16 15 14 13 12 10 12 15 14 11 8 8 12 15 16 15
21 35 51 56 71 70 92 77 89 96 94 94 97 88 74 66 64 67 53 44 43 43 41 36 30 26 23 21 20 19 17 17 17 17 17 15 12 11 17 17 15 12 9 8 12 17 18 14 10
18 20 34 48 47 49 50 69 80 94 88 90 72 81 76 69 66 60 56 51 45 42 41 39 38 36 30 25 21 19 17 16 16 16 14 11 14 16 15 13 11 9 8 10 14 19 13 10 10
20 17 19 28 32 31 40 39 38 78 77 86 89 88 81 72 67 66 61 50 43 40 40 40 37 33 29 28 27 23 22 19 17 14 19 26 23 17 14 12 9 9 13 16 18 15 12 9 7
24 16 17 20 18 16 20 29 17 50 70 74 74 84 82 73 66 69 73 63 52 43 38 35 33 31 28 26 24 23 20 20 20 26 29 26 24 16 12 9 11 17 19 16 13 10 8 8 9
37 35 34 35 37 37 31 24 14 30 52 64 71 65 70 74 73 75 75 68 56 47 42 37 34 32 30 26 26 21 22 29 37 40 36 34 23 12 9 10 16 18 15 11 10 8 9 8 12
53 49 56 47 31 28 23 17 15 21 52 63 70 61 58 67 76 81 78 80 69 57 50 46 39 32 25 19 23 33 48 43 39 35 27 22 13 9 10 17 18 13 11 9 9 10 13 14 14
55 56 49 45 42 36 26 24 18 21 27 52 67 67 66 68 81 80 81 80 79 64 48 42 37 32 29 28 31 41 39 39 32 25 14 10 10 12 18 18 12 11 8 10 11 14 14 16 18
58 52 58 54 41 30 26 28 36 44 47 43 59 61 57 62 75 68 69 76 77 77 58 50 46 42 42 44 44 44 41 31 15 11 10 11 16 18 15 11 9 9 12 9 13 15 14 15 20
81 73 69 48 31 36 26 22 42 56 64 68 64 75 76 78 56 66 34 38 36 53 74 68 64 62 58 53 49 33 15 11 10 10 13 18 16 14 10 10 12 11 12 13 15 16 17 18 15

GFSSGP_500_rhum_048.txt.gz
RH
94 67 50 39 30 20 17 12 25 84 100 95 81 70 65 56 52 57 53 49 37 26 16 13 8 8 6 6 6 6 8 12 12 12 14 14 14 13 13 10 6 4 3 2 2 2 2 2 2
96 79 58 46 32 21 19 15 17 44 92 91 86 69 58 59 48 45 49 48 43 30 20 13 7 6 6 5 6 10 13 14 15 15 15 15 15 14 13 10 6 4 3 2 2 2 2 3 4
93 96 68 51 37 24 22 18 16 24 45 72 74 58 55 60 57 46 38 44 45 33 23 10 7 7 6 6 8 12 15 15 16 16 16 15 15 15 13 9 6 4 2 2 2 2 3 4 5
100 91 89 61 42 33 29 22 17 17 23 50 40 52 33 46 54 60 40 40 38 27 14 7 8 8 9 11 13 14 16 18 18 17 16 16 16 14 8 4 3 3 2 2 2 3 3 4 4
97 91 96 72 49 40 32 28 22 18 16 19 27 34 30 25 34 54 46 39 28 15 8 8 8 10 12 14 17 19 19 19 18 17 17 16 15 11 5 4 3 2 2 2 2 2 3 3 4
96 90 93 92 58 47 38 33 26 21 18 15 16 22 24 27 18 30 25 23 12 9 7 8 9 11 12 16 20 23 22 20 18 16 16 16 15 9 4 3 2 2 2 2 2 2 3 3 3
56 87 84 92 88 65 45 36 30 26 21 16 14 15 18 21 18 15 14 10 9 8 8 8 9 13 15 19 22 24 24 21 19 18 16 16 13 6 4 3 2 2 2 2 2 2 3 4 5
82 65 83 94 97 88 62 44 36 30 23 20 16 15 14 14 14 10 10 8 9 9 9 10 12 15 18 21 23 25 24 22 20 19 18 15 9 5 4 3 2 2 2 3 3 3 3 4 6
100 53 69 81 95 95 81 56 44 36 29 24 20 18 14 11 10 10 10 12 11 11 13 14 16 18 20 23 24 26 25 23 21 20 17 13 7 5 4 4 3 3 3 3 3 4 4 4 5
97 96 63 72 97 97 93 68 55 45 39 30 21 21 25 14 12 12 13 13 15 12 14 14 17 19 22 25 27 28 27 24 21 18 16 10 6 5 4 4 4 4 5 5 5 4 3 3 3
94 82 84 100 98 97 93 88 64 55 45 39 28 26 28 34 29 30 21 16 14 15 18 23 23 24 27 29 32 31 28 25 22 18 14 8 6 5 5 6 7 8 7 5 4 4 3 3 4
94 86 100 100 97 98 97 89 75 63 56 48 39 35 33 47 47 40 32 41 27 23 24 32 40 39 36 37 37 33 28 25 21 17 11 7 6 6 7 7 6 4 4 7 8 6 6 7 8
85 100 99 99 96 96 94 95 86 71 60 57 47 43 42 55 67 57 47 43 42 41 45 44 43 44 44 43 39 34 29 24 19 15 10 8 7 7 7 6 5 5 6 7 6 5 6 8 9
72 88 95 97 98 98 97 96 97 100 79 63 54 58 49 52 81 79 55 48 47 46 48 50 51 51 52 54 43 35 28 22 17 13 10 9 8 8 7 7 7 6 9 8 6 8 16 18 18
43 82 96 99 96 97 98 94 86 98 86 84 74 66 60 52 68 94 90 53 50 49 51 54 53 55 63 58 44 32 26 20 15 12 10 9 9 9 10 10 8 10 11 7 12 26 31 30 31
44 60 89 90 95 95 97 86 90 100 94 91 76 82 77 69 63 78 95 78 64 65 68 62 59 61 63 60 53 38 25 20 16 13 10 9 9 13 13 10 10 9 8 19 41 42 36 35 30
36 58 73 97 100 97 94 94 100 93 95 95 88 72 87 92 89 70 81 92 72 70 68 67 66 62 60 59 52 35 26 23 19 14 11 10 14 12 10 10 9 10 24 42 48 41 38 34 14
21 34 56 88 96 85 98 89 94 98 96 96 85 87 82 77 84 92 75 70 68 69 69 69 59 54 49 44 40 46 64 20 16 14 13 12 12 11 11 12 12 22 39 41 24 15 12 12 9
28 46 42 70 100 93 97 97 94 95 96 96 92 97 83 91 88 85 92 90 63 58 55 51 48 46 43 39 33 27 21 18 16 14 13 12 13 12 13 14 14 13 13 11 12 10 10 11 10
31 40 48 61 68 97 97 95 100 89 98 97 97 86 91 95 84 77 81 85 91 70 56 51 46 42 39 36 30 24 20 19 17 16 16 16 15 15 15 14 17 16 13 11 12 15 15 11 9
31 42 52 57 61 72 89 96 86 99 99 97 96 96 97 87 89 86 77 78 77 81 83 69 57 46 40 35 30 26 22 20 18 17 16 16 15 15 15 15 14 12 10 20 20 19 15 10 9
37 49 53 56 60 60 71 64 94 98 99 93 85 93 88 85 83 88 88 83 78 74 77 77 66 57 45 37 32 30 26 23 20 20 19 18 17 17 17 15 13 11 20 23 20 15 10 9 13
26 45 50 51 53 50 50 51 62 84 93 85 98 94 97 97 100 100 100 98 90 74 65 59 57 57 54 42 33 28 26 24 23 22 20 19 18 18 17 13 14 21 21 16 13 11 9 12 18
24 32 42 50 49 51 55 47 45 74 74 87 97 96 97 92 92 94 85 80 83 70 56 48 45 44 43 40 38 36 34 29 26 24 22 21 20 18 14 22 23 22 18 16 14 9 10 18 15
23 19 25 36 34 27 32 31 26 30 39 62 88 94 95 93 80 84 80 75 69 63 61 58 53 47 43 43 42 40 36 32 31 31 26 22 17 18 26 32 32 28 21 15 9 11 18 14 12
32 19 14 14 18 16 18 13 14 21 43 63 73 88 89 95 86 82 75 68 68 67 63 59 53 47 43 40 39 37 34 30 28 26 31 21 26 38 39 32 28 23 13 9 14 18 13 11 9
40 24 15 13 12 14 22 22 26 26 22 39 57 66 91 96 97 98 84 80 72 70 68 68 64 57 51 42 37 34 33 31 28 24 27 42 38 36 31 28 23 12 10 16 17 14 10 10 10
40 39 29 26 33 32 24 18 17 23 19 19 41 57 64 80 84 79 90 86 81 79 74 71 66 59 52 46 44 41 35 28 22 28 32 34 33 33 25 17 10 13 17 16 12 10 10 12 12
59 51 45 58 51 30 26 25 24 20 20 20 18 27 54 68 79 71 61 67 74 76 78 78 74 68 63 55 50 41 36 32 28 32 36 38 38 20 11 11 15 17 13 11 11 11 11 12 14
60 58 64 54 44 43 41 20 22 24 32 40 36 24 28 42 67 79 70 65 78 80 77 74 78 75 72 55 47 41 39 40 41 40 45 37 14 11 11 16 16 12 11 15 16 15 15 18 21

GFSSGP_500_rhum_051.txt.gz
RH
60 96 92 46 32 26 24 20 29 83 96 92 82 84 77 71 65 64 63 58 47 39 26 18 12 9 7 6 6 8 6 8 12 13 14 14 14 14 14 12 10 7 5 3 2 2 1 2 2
90 83 95 78 37 24 23 24 25 50 91 93 82 81 76 68 62 62 61 60 56 48 32 18 12 8 5 6 5 6 8 13 14 15 15 14 14 14 14 12 10 7 4 2 2 2 2 2 3
99 80 96 93 51 29 23 22 23 33 76 98 92 80 79 70 64 56 53 57 60 55 34 24 16 7 6 6 7 10 13 15 16 17 16 15 15 15 13 8 5 3 3 2 2 2 2 2 3
100 97 85 90 64 38 28 23 22 27 58 76 98 85 77 74 67 59 50 51 56 52 38 25 16 7 7 8 10 12 15 17 19 18 17 16 16 15 12 6 4 3 2 2 2 2 2 2 2
100 97 81 86 70 47 35 27 22 23 31 66 62 86 83 74 67 52 49 48 55 50 37 20 11 8 9 11 14 15 16 18 20 19 17 18 17 16 12 5 4 2 2 2 2 2 2 2 2
82 98 82 59 91 55 45 34 25 21 21 36 43 37 56 60 48 45 38 44 44 43 30 14 8 10 11 13 17 20 22 22 21 19 18 18 18 15 11 5 3 2 2 2 2 2 2 2 3
56 97 80 72 73 90 55 42 32 25 21 23 36 32 28 30 40 29 23 28 34 33 17 10 8 10 12 13 17 23 25 24 22 20 20 19 18 15 10 5 4 3 2 2 2 2 3 3 3
94 80 100 85 91 97 90 52 42 30 25 23 23 23 18 22 26 25 25 20 18 18 13 12 10 10 13 16 19 22 24 25 23 22 20 20 18 14 9 5 4 3 3 3 3 3 4 4 4
100 86 76 81 95 94 96 78 52 38 29 26 23 18 16 15 21 27 23 21 15 12 11 12 11 11 14 17 20 23 24 25 25 23 21 19 17 12 6 5 4 4 4 5 5 5 4 3 3
88 86 43 56 95 98 98 95 67 49 36 30 26 22 17 15 21 33 26 15 14 10 11 12 12 14 16 19 22 24 26 28 26 24 23 20 16 10 6 5 5 6 7 8 6 5 4 4 4
97 91 79 52 71 98 96 96 93 66 42 31 28 23 23 18 18 42 29 17 10 10 13 12 14 15 18 20 24 28 30 31 28 26 23 20 16 9 6 6 6 7 6 4 4 6 8 7 5
97 100 95 95 66 89 98 97 93 85 54 37 31 27 24 27 23 27 52 27 18 14 15 13 14 17 21 25 30 34 36 34 30 27 23 19 15 9 7 7 7 6 5 5 5 6 6 5 8
78 96 98 99 92 79 95 97 96 91 67 49 37 33 28 26 27 39 63 51 28 22 16 17 20 28 34 38 39 40 41 37 33 28 23 18 14 10 8 7 7 7 7 6 7 10 6 9 21
37 94 100 98 100 99 97 96 97 98 83 61 48 42 35 31 35 36 66 71 57 49 29 26 27 36 41 42 46 48 48 43 36 28 23 19 15 11 9 8 9 10 10 8 10 8 9 28 36
23 73 88 94 97 96 98 95 79 100 85 82 60 50 45 40 39 43 66 82 87 77 46 38 40 45 45 48 50 51 54 46 35 28 23 20 17 12 9 9 11 12 9 8 8 9 26 41 40
22 52 80 92 95 99 96 84 92 98 80 86 87 68 52 51 46 47 64 88 92 95 51 43 43 47 50 53 54 60 60 53 43 31 23 21 17 12 10 12 13 10 9 9 10 19 32 36 31
33 48 61 95 95 99 98 100 100 96 85 82 92 91 72 56 59 54 53 73 84 96 94 50 46 49 54 58 62 65 62 58 51 37 26 22 16 13 11 12 11 10 10 11 12 17 24 29 15
26 15 45 77 78 95 90 100 97 95 96 100 88 86 95 92 78 69 65 65 75 90 96 89 57 61 67 68 65 62 58 59 53 46 44 24 18 15 13 12 12 12 12 13 13 13 13 12 12
30 23 52 64 81 96 96 94 97 91 85 100 74 67 77 94 94 94 91 84 87 90 86 88 81 72 71 70 68 57 50 45 40 35 34 25 20 16 14 13 14 14 13 14 14 18 13 11 14
29 32 32 51 69 78 91 95 95 82 85 95 92 81 71 82 91 93 94 96 98 96 86 88 84 74 68 66 58 51 46 41 37 32 28 23 19 18 16 15 14 14 14 15 16 15 12 14 18
25 35 40 48 63 89 96 95 79 80 92 91 95 83 69 72 84 92 98 100 98 98 97 95 84 73 62 56 51 47 43 39 34 29 25 22 20 18 17 16 16 16 16 16 16 12 14 22 21
26 27 40 45 50 53 77 66 70 86 95 74 92 86 85 100 99 96 91 100 99 98 96 97 97 97 92 65 50 46 41 36 32 28 24 25 29 22 20 18 17 16 17 17 14 18 27 26 20
61 25 35 40 42 45 50 49 62 96 92 74 92 100 99 98 97 100 99 98 95 95 96 96 95 93 94 95 87 71 56 44 37 36 37 32 29 25 23 21 19 21 21 15 21 24 28 22 20
57 29 31 39 46 43 46 43 40 73 66 86 95 88 96 97 93 95 98 85 94 100 100 97 93 86 82 78 80 82 73 66 60 44 32 29 29 27 25 27 27 25 17 23 31 32 29 22 15
46 31 28 31 36 33 42 34 30 46 46 49 67 95 97 96 96 98 96 94 100 100 98 96 91 86 79 68 60 55 53 50 45 40 37 36 33 30 31 28 26 20 26 35 33 29 25 16 10
44 21 20 20 20 25 34 40 40 41 38 52 76 80 80 92 94 89 96 98 96 93 85 77 72 74 73 65 55 48 45 43 42 43 44 41 35 30 26 25 33 37 36 32 29 23 14 12 17
35 23 20 18 15 17 21 25 32 37 42 52 63 81 76 70 77 88 96 93 96 95 88 78 69 65 64 61 58 54 49 45 42 39 36 34 32 27 28 39 39 31 32 30 23 10 15 16 13
46 38 29 22 13 11 13 15 21 24 25 27 35 54 61 69 68 79 91 96 98 83 76 74 69 64 63 62 62 61 58 53 48 42 38 34 28 30 32 29 32 35 35 17 11 15 16 13 12
59 47 40 33 19 12 13 20 36 32 29 28 27 26 31 50 58 61 73 88 97 93 73 64 61 61 61 60 58 57 58 55 51 48 47 39 35 29 29 32 38 40 15 12 16 16 12 12 15
55 47 41 38 30 27 27 30 30 28 29 34 28 24 22 20 23 38 52 62 90 90 81 81 77 74 72 70 62 60 56 55 54 53 50 43 38 41 41 44 40 13 12 16 14 12 14 16 17

GFSSGP_500_rhum_054.txt.gz
RH
45 66 95 57 35 34 29 24 43 97 95 89 79 85 84 86 84 78 71 65 53 39 32 23 22 18 12 8 6 8 7 6 10 12 14 14 14 13 12 12 11 9 7 4 3 2 2 2 2
29 84 88 85 44 31 31 26 24 76 95 91 82 82 86 82 80 74 70 67 59 48 37 26 18 12 8 6 5 6 7 8 12 14 15 15 14 14 13 11 7 5 3 3 2 2 2 2 2
33 86 95 97 60 33 30 30 26 39 97 92 88 79 81 81 78 72 70 66 62 58 50 34 20 13 8 5 5 6 9 12 14 16 17 16 15 15 14 10 6 4 3 2 2 2 2 2 2
33 77 85 95 90 47 29 29 28 38 45 97 96 88 81 83 78 71 66 67 64 64 57 41 25 17 9 6 6 9 12 15 17 18 18 16 16 16 13 10 5 3 3 2 2 2 2 2 2
48 73 81 69 86 67 39 29 28 38 50 47 98 97 88 86 81 73 66 64 58 60 59 47 26 16 9 8 8 12 16 18 20 20 19 18 17 16 13 10 5 3 2 2 2 2 2 2 2
59 50 74 64 57 95 51 36 28 30 49 75 85 99 96 91 90 79 72 65 54 53 56 50 26 13 10 9 12 14 17 21 22 20 19 18 18 17 14 11 6 4 3 2 2 2 2 2 3
63 60 67 90 80 66 93 52 33 27 34 77 76 98 98 94 91 78 67 62 50 50 52 50 26 11 12 12 13 18 22 24 23 22 20 20 19 18 15 11 6 4 4 3 3 3 3 4 4
20 45 83 92 83 84 95 90 46 30 26 40 76 64 76 89 87 78 61 49 41 40 46 46 21 12 12 13 14 19 25 26 25 23 22 21 20 18 16 11 6 4 4 4 5 5 5 5 4
57 38 68 99 98 91 97 95 80 41 29 26 38 51 40 61 74 66 54 41 33 27 27 30 18 12 11 13 15 19 23 26 26 25 23 22 21 18 15 9 6 5 5 6 7 7 5 4 4
60 51 58 96 92 97 97 96 93 60 39 30 27 28 35 36 56 58 49 37 44 30 21 19 13 12 10 13 18 20 23 26 28 27 26 24 22 19 15 8 6 6 6 6 6 4 5 6 7
68 89 63 50 100 99 95 97 94 86 56 41 31 26 23 24 31 42 40 30 22 18 15 14 11 11 12 13 17 20 24 29 30 30 28 25 24 20 16 10 7 6 6 6 5 5 5 6 6
54 87 64 58 84 99 96 96 97 95 74 54 44 34 26 24 24 28 33 32 48 35 14 10 12 11 12 16 18 20 26 31 35 34 31 27 24 21 17 12 8 7 7 7 7 7 7 10 8
52 65 91 84 83 92 100 97 96 94 93 74 52 45 33 27 29 24 26 27 43 37 21 11 16 13 14 16 18 23 30 35 39 38 34 30 26 22 19 16 11 8 8 8 10 9 9 9 8
60 56 92 90 96 86 83 93 97 98 92 93 74 50 41 31 28 32 23 23 30 56 39 16 14 15 14 19 28 35 39 43 44 44 41 34 27 23 20 17 13 9 8 10 11 9 8 8 11
70 78 100 98 100 97 92 66 77 98 88 88 84 81 47 38 32 30 29 25 29 64 58 32 17 16 18 27 35 40 41 46 51 52 46 35 29 24 21 17 13 10 10 11 10 9 9 10 17
76 66 85 96 98 95 98 66 77 98 93 96 86 81 86 47 36 32 31 26 34 54 77 74 59 23 22 29 40 46 51 55 56 58 51 45 36 26 22 19 16 13 11 11 10 10 11 11 12
53 63 83 96 96 98 96 100 79 89 93 84 96 89 74 90 51 40 35 34 37 53 74 93 96 58 38 43 49 50 58 66 64 61 57 53 47 34 26 21 18 16 13 12 12 13 12 12 13
28 38 56 42 70 95 99 98 94 93 91 94 90 89 86 81 91 53 45 42 46 51 84 94 96 93 61 55 54 56 60 66 67 63 59 55 51 47 44 24 18 18 15 13 13 14 12 13 14
30 29 27 24 45 88 98 97 89 86 89 89 88 78 78 85 91 87 60 54 50 51 71 85 90 95 95 68 62 55 60 64 67 64 58 50 43 37 33 24 20 18 16 14 14 15 13 14 15
36 31 31 26 60 88 89 95 99 78 87 96 94 83 75 83 93 96 90 80 68 66 68 69 73 88 87 90 77 67 66 67 67 63 54 46 42 37 31 25 21 19 17 16 18 19 15 15 16
54 40 34 27 40 98 96 85 83 91 100 97 96 100 89 81 94 96 97 92 85 84 81 94 87 79 84 86 83 88 81 69 65 60 52 46 41 36 31 26 21 27 31 19 20 18 16 18 17
58 41 37 30 25 46 62 39 51 86 88 81 88 78 94 86 87 88 93 96 95 97 97 100 97 96 93 98 96 93 80 67 59 54 48 44 40 34 30 25 38 44 30 22 21 20 22 24 17
77 37 32 35 36 28 34 38 50 60 81 80 79 71 76 93 91 84 96 98 95 94 95 98 90 94 96 93 96 96 90 78 63 53 46 42 40 38 34 49 51 29 26 26 25 27 23 18 27
92 33 26 25 28 20 21 26 28 58 65 83 95 92 66 80 93 95 99 94 86 89 97 97 97 97 96 97 95 90 85 93 97 82 66 60 42 44 62 74 38 35 31 29 28 24 26 29 35
96 62 39 23 20 17 19 22 21 50 51 54 92 89 88 76 81 90 90 94 93 95 95 96 96 93 86 84 87 91 93 91 87 89 90 86 73 71 54 39 38 39 36 30 24 30 36 34 32
84 82 48 24 18 17 22 25 41 52 57 48 58 84 70 88 92 96 99 100 100 100 93 96 91 90 90 88 88 88 85 81 72 64 57 51 46 43 42 44 44 38 31 28 36 38 37 30 32
60 66 42 24 20 21 21 24 40 60 63 63 68 83 70 52 49 82 96 97 97 99 98 99 89 80 80 86 88 87 86 79 69 60 54 50 49 47 45 40 36 32 28 37 35 32 28 37 18
73 65 40 21 19 19 15 20 28 35 42 42 53 63 66 54 62 58 59 81 94 95 95 97 97 95 88 81 73 69 65 64 62 60 57 52 48 46 43 40 37 30 29 30 27 30 40 19 12
70 53 34 24 24 17 14 12 14 22 28 31 30 32 40 60 71 80 69 67 94 94 90 88 96 96 92 83 77 72 67 65 63 62 61 60 58 54 47 45 45 40 33 34 41 45 20 12 16
62 54 43 38 34 32 30 16 13 17 40 43 39 34 32 32 31 36 50 64 67 74 90 98 95 92 96 87 76 72 70 64 61 63 63 60 58 54 52 52 45 38 43 45 48 16 13 16 15

GFSSGP_500_rhum_057.txt.gz
RH
46 72 82 90 50 74 46 66 43 94 92 88 87 86 93 97 99 96 79 80 67 54 42 33 26 24 18 14 10 9 10 7 9 12 13 13 12 12 12 11 10 8 6 4 3 2 2 2 2
40 81 88 94 80 44 40 82 32 54 92 90 95 98 96 92 89 88 87 80 67 56 40 32 24 20 13 8 6 5 7 8 11 14 14 14 14 13 12 11 8 5 3 3 2 2 2 2 2
39 95 95 88 89 47 39 61 45 30 83 98 98 97 92 84 94 89 86 78 71 60 50 35 27 20 12 7 5 6 7 9 12 13 15 15 15 14 14 11 8 4 3 2 2 2 2 2 2
32 89 89 80 85 56 47 67 51 44 44 96 97 97 96 96 94 90 88 78 71 65 61 50 37 24 15 8 5 6 8 12 14 15 17 17 16 16 14 12 8 4 3 2 2 2 2 2 2
21 61 87 60 66 91 55 40 36 66 74 66 96 95 95 96 96 96 89 76 70 70 67 60 47 29 18 10 6 7 9 15 17 18 18 18 17 17 16 12 9 5 3 3 2 2 2 2 2
17 34 69 44 39 80 87 38 37 45 51 50 95 95 87 98 100 95 86 73 68 67 65 62 53 37 18 11 8 9 13 15 20 21 20 19 19 18 17 14 10 6 4 3 3 3 3 3 3
14 28 29 36 55 99 70 80 40 46 58 68 38 93 94 98 100 98 89 74 66 62 59 59 57 42 18 12 9 10 14 18 20 22 21 20 20 19 18 16 11 7 4 4 4 4 5 5 5
17 29 57 70 89 93 61 89 66 41 44 66 66 40 94 96 98 97 93 83 71 62 58 54 57 53 17 12 10 12 15 20 22 23 23 22 21 20 19 16 11 7 5 5 5 6 6 5 4
14 41 63 55 99 92 58 77 95 48 37 44 69 47 66 98 95 96 97 95 80 65 55 47 53 52 23 11 12 12 16 22 25 25 25 24 23 22 20 16 12 7 6 6 6 6 5 4 5
18 29 76 73 58 63 80 94 90 85 46 39 57 61 74 72 97 95 97 99 90 66 46 33 45 45 26 11 12 14 17 23 26 27 27 26 25 23 22 18 13 7 6 6 6 5 5 6 5
38 24 40 93 99 56 91 96 96 95 70 40 33 48 58 72 91 98 98 95 99 66 37 30 29 40 23 11 11 14 17 22 26 29 30 29 27 25 23 20 16 10 8 7 6 6 7 7 7
68 46 70 69 57 55 82 90 97 96 87 50 41 34 41 42 62 88 100 91 81 53 32 20 18 22 21 18 12 14 18 21 26 31 33 33 31 28 25 23 19 14 9 8 8 8 9 9 9
65 53 69 63 45 42 97 85 97 90 84 92 57 44 32 30 40 52 76 67 73 53 38 35 42 21 14 17 13 14 17 20 27 34 36 37 36 32 28 24 21 17 12 9 9 9 11 10 8
85 64 77 89 98 45 73 97 85 96 96 85 95 57 46 28 31 36 47 52 64 64 40 36 48 39 16 15 13 13 18 21 30 37 41 42 42 39 32 26 22 19 16 12 10 10 11 10 9
98 83 79 58 90 60 41 78 76 99 90 93 81 94 58 47 33 33 35 36 38 37 30 31 46 36 23 16 14 14 16 24 34 41 46 48 48 44 34 28 24 22 20 16 13 12 11 10 11
87 100 96 83 95 72 39 59 96 99 98 96 96 76 93 59 47 45 36 32 31 29 29 26 43 66 36 16 16 14 20 31 38 43 49 52 54 50 46 41 32 26 23 19 16 14 12 12 13
92 99 98 83 80 75 63 54 79 93 85 93 96 98 88 96 67 44 42 35 29 33 28 26 31 67 63 49 20 17 23 35 44 48 53 55 60 60 55 51 42 35 27 20 18 16 14 13 14
81 97 98 86 80 69 74 84 86 51 68 88 93 97 97 87 95 80 44 45 33 32 32 28 37 63 82 88 58 24 22 34 47 51 56 55 58 60 59 58 50 47 40 23 19 17 16 14 15
65 42 84 93 80 90 82 99 99 95 48 48 89 89 93 97 86 84 92 46 42 38 35 32 42 59 73 81 95 76 42 45 53 53 54 58 62 62 60 52 45 39 32 27 21 19 19 20 19
62 43 53 69 82 86 96 95 98 97 83 57 65 82 68 78 80 74 89 94 62 55 46 40 44 52 69 73 91 91 96 72 66 63 62 67 68 67 62 53 46 41 38 32 33 28 42 30 23
81 39 43 63 59 64 82 77 85 98 97 100 88 92 88 77 79 80 91 96 96 83 69 55 50 51 58 60 64 72 89 95 90 83 78 76 72 69 61 53 46 40 34 28 24 55 52 31 23
97 51 50 34 39 61 76 86 56 88 100 93 89 93 96 89 94 96 82 95 95 96 86 75 71 64 64 70 70 72 81 92 86 83 82 82 77 66 57 50 45 40 38 32 42 55 29 26 28
96 57 43 40 38 33 28 84 65 55 86 98 96 100 100 100 94 98 67 87 96 98 97 85 79 82 78 77 94 88 82 92 89 85 93 93 86 70 61 52 47 44 39 31 43 66 34 33 33
100 93 59 42 39 32 23 19 26 25 28 44 79 96 95 91 85 78 90 92 88 90 95 97 97 97 97 98 97 99 96 92 91 89 89 85 87 86 78 63 54 51 40 50 80 38 38 39 30
87 98 90 62 42 29 21 16 19 19 33 55 92 84 80 79 78 73 73 72 80 89 92 91 96 95 96 94 97 94 93 96 92 96 94 91 87 90 92 99 98 90 74 70 42 42 41 31 30
96 96 75 48 35 26 21 21 19 26 28 35 66 80 74 70 72 81 72 73 82 89 90 92 98 96 97 96 97 97 96 95 87 89 89 90 90 82 74 69 61 53 46 42 44 40 34 30 32
87 92 70 53 36 24 24 19 22 25 32 38 41 47 61 61 76 91 89 90 81 93 97 98 97 94 97 99 96 96 95 88 90 84 84 86 87 78 64 56 52 50 50 46 41 37 34 30 31
82 84 83 60 50 34 23 20 24 23 30 51 56 56 52 55 49 71 82 67 82 100 96 98 98 96 97 97 94 92 93 84 81 80 85 86 77 68 63 60 57 53 49 46 44 42 38 37 35
66 68 68 63 46 32 31 29 17 17 24 30 39 50 43 54 85 81 74 60 56 55 90 96 98 98 97 98 98 97 97 98 88 76 71 68 65 63 62 61 59 59 57 51 46 48 46 39 41
57 63 73 70 47 27 22 23 19 13 14 18 30 35 33 32 34 45 58 53 49 54 62 84 80 90 95 94 96 97 98 98 90 84 80 74 68 66 64 66 65 64 59 53 52 52 46 48 51

GFSSGP_500_rhum_060.txt.gz
RH
89 99 99 93 70 92 61 76 95 96 93 85 93 84 94 86 84 66 63 71 73 64 61 44 36 29 25 21 18 11 10 10 7 7 8 10 11 11 11 10 10 8 5 3 2 2 2 2 2
54 100 100 97 86 84 74 64 96 84 95 90 94 97 88 88 67 67 71 82 80 67 60 46 35 27 24 18 10 7 7 9 9 9 10 11 12 12 12 11 10 7 4 3 2 2 2 2 2
51 100 99 95 94 70 87 53 96 89 81 97 95 95 83 85 80 83 86 80 82 70 60 46 34 24 20 15 8 5 6 8 10 11 12 13 13 14 13 12 10 7 4 3 2 2 2 2 2
52 70 94 96 67 85 90 81 76 89 68 92 92 78 94 97 97 87 88 88 84 74 62 54 40 28 20 12 7 5 7 11 12 13 14 16 15 15 14 13 10 6 4 3 2 2 2 2 2
38 54 84 75 58 78 100 97 90 68 87 91 92 93 83 98 94 95 96 94 85 76 69 62 55 41 25 16 8 6 6 10 15 15 16 18 17 16 16 15 12 9 5 4 3 3 3 3 3
29 37 33 36 39 62 98 95 81 69 73 82 73 97 100 93 96 97 95 96 88 77 70 65 60 53 35 20 11 7 6 10 14 18 19 19 19 18 18 16 13 10 6 4 4 4 4 5 5
33 48 32 20 54 98 96 84 72 77 61 57 57 88 96 94 96 97 96 95 90 84 71 67 63 57 46 27 15 8 8 11 15 18 20 20 19 19 19 18 15 11 7 5 4 5 5 5 5
46 43 40 33 73 100 81 74 87 60 67 50 59 55 92 92 97 97 97 95 91 80 72 66 60 57 51 37 19 10 8 12 17 20 21 22 22 22 20 19 16 13 8 6 5 5 5 5 5
59 58 24 28 53 99 76 72 74 95 76 50 48 47 84 96 96 98 98 95 88 84 72 67 62 54 53 46 24 13 9 11 17 22 24 24 24 23 22 21 19 15 10 7 6 6 5 5 6
61 33 27 30 48 83 73 77 64 91 88 55 60 45 76 91 96 96 95 100 97 87 79 79 70 54 53 49 34 14 10 12 17 23 26 26 26 25 24 23 20 16 11 8 8 7 6 7 8
93 82 69 31 64 32 54 71 69 87 97 67 42 62 84 83 85 96 96 93 92 98 90 84 71 51 40 49 41 17 11 13 18 24 27 28 29 29 27 25 22 18 14 10 9 8 8 8 10
94 51 98 91 55 37 34 58 93 88 82 87 44 44 73 75 93 93 96 96 98 98 86 83 73 43 32 38 41 26 10 13 17 23 27 30 33 33 31 28 26 22 18 14 12 10 9 9 11
95 75 79 70 79 51 50 30 53 71 60 77 88 39 46 73 85 94 69 93 97 97 85 82 58 32 26 28 27 22 12 12 17 21 26 31 35 37 36 34 30 25 22 19 17 14 11 11 11
97 97 83 73 73 98 97 92 60 73 87 77 93 81 38 42 69 73 89 77 88 95 90 86 59 39 34 34 28 21 20 13 15 20 25 31 36 40 41 42 34 27 24 22 21 18 16 14 13
100 97 88 63 98 76 92 96 47 53 94 95 90 90 82 37 37 56 53 68 74 77 71 69 71 52 41 36 32 22 17 13 14 19 23 30 37 43 48 49 39 36 32 29 26 23 20 18 16
100 88 99 89 54 40 37 48 36 52 55 94 96 86 84 87 36 34 41 42 56 53 49 57 54 45 47 38 40 35 19 14 14 16 21 31 39 45 53 56 54 52 48 39 33 27 23 20 18
86 96 91 97 56 98 58 53 54 45 92 97 95 97 94 93 88 40 32 39 35 34 44 47 36 32 29 30 46 58 34 17 15 14 20 32 41 48 53 58 61 56 56 52 48 44 30 22 20
82 94 84 94 76 70 75 69 51 37 34 89 98 97 94 94 91 88 63 39 36 37 40 38 32 30 28 24 28 63 60 37 19 16 19 32 44 50 57 61 63 61 59 50 43 39 35 28 24
85 100 100 100 99 83 57 71 62 53 37 40 97 87 93 96 100 91 97 90 42 45 43 43 42 36 34 27 27 59 73 80 69 30 20 26 47 54 59 66 67 67 64 56 50 45 41 37 36
99 100 96 98 97 90 64 87 71 43 38 42 62 93 96 98 98 85 95 92 94 70 58 52 47 37 34 33 32 47 62 80 91 93 59 44 55 60 63 72 73 72 67 59 51 47 40 32 27
98 92 95 98 99 98 96 75 59 59 37 44 58 59 63 88 97 81 84 97 92 95 94 87 81 45 40 36 37 38 52 71 83 82 84 98 78 73 78 77 73 70 66 58 51 45 40 39 35
98 98 96 92 90 97 86 81 92 90 74 94 84 60 69 52 62 78 72 84 94 95 96 94 83 92 58 52 45 53 59 74 70 71 84 83 91 83 73 78 88 86 74 63 53 47 46 55 40
100 96 100 90 71 81 65 54 47 53 90 83 98 90 80 70 69 72 60 63 82 75 82 87 92 97 97 94 75 71 64 65 54 55 64 74 92 89 88 91 88 78 79 75 65 60 76 62 54
83 85 82 74 44 51 44 48 59 49 59 68 88 100 100 99 100 94 66 66 78 88 92 83 81 85 79 92 82 76 81 80 77 77 81 74 76 86 86 86 86 83 79 79 85 86 90 93 88
100 96 95 66 44 38 34 42 32 32 30 30 33 44 78 90 96 91 68 74 83 89 91 93 95 95 87 93 91 92 98 90 93 99 91 89 86 83 90 97 95 88 85 88 88 83 66 57 61
95 100 98 65 45 38 39 37 31 28 26 24 24 24 30 32 64 87 87 73 83 79 80 95 94 96 96 98 96 97 95 96 98 100 98 95 92 91 92 90 89 87 83 76 67 57 49 56 50
92 92 77 87 79 60 51 38 27 33 25 22 19 17 26 54 68 48 68 74 77 76 72 72 82 97 95 93 97 96 96 95 96 94 97 98 95 90 89 85 86 86 86 75 64 59 52 49 44
99 86 90 89 94 70 69 60 38 29 21 19 21 23 24 25 47 66 76 64 66 79 77 71 70 95 95 93 90 89 90 91 93 97 96 96 93 90 84 80 80 82 75 65 61 58 54 52 51
98 100 100 92 74 95 98 54 31 24 20 17 17 26 40 44 40 36 46 51 55 82 85 72 83 96 100 98 95 97 99 97 97 94 94 97 97 92 93 81 71 65 65 66 65 67 67 64 58
89 90 96 100 100 91 66 53 38 24 16 15 20 22 21 26 42 46 40 44 54 82 87 77 70 70 71 75 95 94 97 97 94 99 98 97 94 98 98 87 80 77 70 68 62 63 64 65 64

GFSSGP_500_rhum_063.txt.gz
RH
77 98 94 98 95 83 74 95 96 96 90 83 80 80 91 77 72 66 68 65 60 59 58 53 47 42 35 28 24 20 13 11 8 7 8 8 8 9 10 10 10 8 6 4 3 2 2 2 2
46 90 96 92 91 76 73 97 89 95 94 97 88 70 75 98 76 71 64 63 67 64 61 60 48 36 29 25 21 16 10 10 9 9 9 9 10 10 10 11 10 8 6 3 2 2 2 2 2
34 94 100 84 94 75 65 96 92 97 97 94 86 97 94 89 81 71 63 64 66 69 66 62 50 37 27 24 18 13 8 8 9 11 11 11 11 12 13 12 11 8 5 3 2 2 2 2 2
34 68 93 74 59 79 68 98 95 95 96 98 97 91 99 93 91 81 66 70 71 79 71 63 50 37 25 18 15 7 5 6 8 11 13 14 14 14 14 14 12 9 6 4 3 3 2 2 2
36 60 83 66 37 99 84 92 96 92 95 96 96 97 93 96 92 83 80 75 85 84 77 64 54 40 28 19 12 7 5 7 10 13 14 16 17 16 16 15 14 11 8 5 4 3 3 4 4
44 57 62 54 26 84 98 80 94 76 89 93 96 97 95 96 96 90 90 92 89 88 81 73 63 55 40 25 15 8 6 7 12 16 16 18 18 19 18 18 16 12 9 6 4 4 4 5 5
59 61 48 34 30 82 97 73 84 77 77 77 96 95 97 98 90 97 95 87 88 88 82 74 69 63 56 38 23 12 8 8 11 16 18 20 20 20 20 19 17 14 10 7 5 5 5 5 5
64 56 60 40 52 97 74 83 90 78 71 79 83 84 96 100 96 92 92 95 85 90 85 76 71 67 61 52 38 18 10 9 11 13 17 19 20 21 22 21 20 17 12 8 6 6 5 5 5
97 82 61 56 59 98 68 75 87 90 63 64 89 93 97 89 97 96 95 89 96 86 87 83 74 69 62 55 49 32 14 10 11 14 17 20 22 23 24 23 22 20 15 11 8 7 6 6 7
96 92 60 66 64 56 76 76 58 74 82 70 90 94 91 90 95 96 95 84 98 88 90 85 82 73 67 56 47 43 27 12 11 14 16 20 24 25 26 26 25 22 19 16 13 10 9 8 8
90 94 72 72 71 42 64 99 73 56 68 84 94 95 92 86 92 94 97 96 100 98 92 91 82 78 76 62 50 43 42 19 12 13 18 22 24 27 28 28 27 25 22 19 16 14 13 10 9
83 96 96 99 76 54 64 90 86 55 43 60 86 97 94 83 90 94 96 96 96 93 96 90 91 90 85 66 44 44 46 39 14 14 19 23 26 30 31 32 31 30 26 22 20 19 16 13 12
99 93 99 93 81 53 50 65 96 76 51 37 61 95 91 88 88 88 90 96 97 95 96 85 85 90 88 71 42 35 41 33 21 13 16 22 25 29 34 36 37 36 33 25 23 22 21 19 16
91 97 97 84 63 80 55 39 52 53 80 66 39 65 95 85 85 77 90 96 96 96 96 95 99 92 97 82 41 29 26 28 24 17 14 19 23 28 35 40 42 44 39 29 26 26 26 24 21
99 98 99 98 98 85 78 42 34 33 53 51 45 52 92 90 76 81 82 90 87 91 96 95 94 98 97 84 51 38 32 23 24 22 15 16 20 25 34 43 47 51 46 44 44 42 37 33 28
100 99 99 99 96 94 97 64 43 28 23 26 38 65 66 77 83 59 55 65 94 90 83 95 95 91 85 80 71 53 42 31 21 22 16 14 18 21 30 41 49 56 58 58 55 52 49 44 42
100 96 97 100 99 98 89 68 100 73 61 75 45 78 93 91 83 86 69 54 51 55 82 92 80 85 87 77 72 59 49 51 35 29 22 14 15 17 27 41 50 58 63 66 60 57 52 48 46
85 91 83 95 98 97 97 100 98 86 66 56 46 46 72 92 94 86 94 84 42 65 56 65 59 65 60 54 52 38 32 34 46 48 24 17 17 16 21 38 48 57 63 65 64 63 60 56 51
100 100 87 98 100 100 94 95 76 82 79 49 30 32 48 83 100 80 69 92 87 73 61 79 52 43 43 56 38 32 28 26 25 61 57 48 57 30 22 25 45 56 61 67 68 68 64 58 52
100 100 98 97 99 99 91 91 80 66 51 38 46 44 56 96 89 86 97 87 89 93 84 67 68 62 78 52 43 40 35 31 27 38 73 87 91 91 72 46 43 53 59 64 70 67 63 62 58
89 76 80 99 99 100 95 86 70 62 56 68 45 41 32 51 96 88 96 95 86 85 89 94 90 82 79 79 51 45 34 37 42 35 54 80 92 90 92 81 59 59 72 73 78 77 70 71 69
81 62 92 98 100 100 85 90 73 66 59 48 39 37 32 31 41 76 74 97 91 82 88 90 98 95 91 79 79 60 48 47 55 46 61 82 85 81 82 79 84 81 73 77 79 81 75 70 73
82 81 81 100 99 100 78 83 90 63 55 70 58 41 34 28 40 44 76 87 96 96 92 86 88 98 97 97 97 97 95 96 93 79 76 67 74 66 57 68 80 84 84 89 86 86 80 82 80
70 79 80 91 97 96 93 81 70 71 67 61 60 73 58 89 83 58 39 48 71 82 86 83 90 91 84 90 83 90 95 97 96 91 87 71 74 83 86 84 87 87 89 93 86 81 87 89 82
85 87 100 100 99 84 86 73 54 46 46 49 56 55 69 85 100 92 74 66 53 62 72 69 70 84 77 78 84 80 78 74 92 95 94 94 95 93 95 95 96 87 90 90 86 90 90 88 82
89 94 82 91 73 70 75 66 44 41 39 37 40 40 33 28 47 77 72 81 93 96 86 76 80 79 82 80 86 80 76 88 94 98 96 84 97 98 97 97 92 92 96 87 80 77 83 85 82
90 79 70 71 82 78 50 41 38 36 38 31 25 20 30 25 16 17 50 36 68 96 90 83 87 90 89 87 100 96 88 85 96 98 99 93 99 90 94 96 93 99 96 87 82 83 85 88 87
88 91 85 92 78 57 51 41 41 43 38 27 23 19 17 16 15 14 13 27 48 76 80 76 74 80 75 74 83 90 100 96 92 98 93 94 93 93 97 96 92 98 97 91 84 78 81 75 64
96 100 100 98 100 100 78 63 60 67 45 29 21 17 15 15 16 18 19 21 42 70 75 74 75 82 81 83 76 82 91 96 97 86 82 94 99 97 97 92 94 97 99 95 85 78 68 68 68
99 99 94 97 100 92 86 78 70 63 40 26 21 16 14 12 12 16 23 33 43 43 46 52 53 72 90 81 81 100 100 94 88 94 99 92 89 80 86 80 89 96 98 94 85 81 80 74 71

GFSSGP_500_rhum_066.txt.gz
RH
25 83 99 99 91 95 75 94 97 98 96 80 72 81 78 79 66 72 57 61 58 56 49 48 47 45 44 38 30 26 22 16 12 7 8 8 9 9 9 9 9 9 7 5 3 2 2 2 2
35 66 100 100 90 78 67 93 92 96 91 83 79 73 64 94 85 73 72 59 59 57 55 52 50 47 44 37 28 23 19 14 12 9 9 10 10 10 10 10 10 9 7 5 3 2 2 2 2
51 62 95 97 87 67 58 84 92 97 99 96 78 82 68 95 80 83 77 63 65 65 59 57 56 48 40 33 25 20 14 11 11 10 11 11 12 12 11 11 11 10 7 5 3 2 2 2 2
89 98 76 89 59 52 56 85 97 95 97 97 97 84 76 97 82 87 79 66 64 63 62 62 59 53 38 28 22 16 10 7 8 11 12 14 14 13 13 13 12 11 9 5 3 3 3 3 3
97 100 95 47 45 48 81 97 92 79 97 96 89 77 95 93 98 87 78 70 61 60 64 65 62 53 38 26 17 15 6 6 9 11 14 16 16 16 15 15 14 13 10 7 4 4 4 4 4
98 99 88 42 30 36 94 80 81 88 96 96 96 94 74 87 86 82 90 69 64 62 67 70 65 55 39 27 17 10 7 6 10 13 15 17 18 18 18 18 17 15 12 8 6 4 5 5 5
99 90 87 37 35 50 99 72 88 88 95 94 98 92 98 95 98 97 92 77 78 72 71 74 70 61 51 35 23 13 8 6 9 13 16 18 18 18 19 20 19 17 13 10 7 6 5 5 5
99 88 85 53 48 57 83 74 85 90 92 95 97 91 94 100 96 94 96 94 84 85 78 76 77 70 63 54 35 20 11 9 10 13 17 19 20 22 22 22 22 20 16 11 7 6 6 6 6
100 92 81 50 56 60 80 82 60 87 84 92 94 96 99 97 96 96 96 95 96 92 84 79 76 73 69 63 55 38 19 11 10 12 15 18 21 22 23 23 23 23 20 16 12 9 8 8 7
99 80 92 55 57 60 68 98 80 72 89 89 91 95 92 96 97 97 96 97 96 96 88 86 79 76 72 67 60 54 48 21 13 13 16 19 21 23 24 25 26 25 24 22 18 16 14 12 10
100 61 96 66 76 61 83 100 97 76 58 66 92 94 98 96 97 95 95 97 98 95 97 98 91 81 77 70 61 54 47 48 36 15 14 18 22 23 26 28 29 28 28 26 24 21 21 18 15
99 68 98 63 71 67 66 100 93 66 48 53 71 92 96 95 95 99 96 96 97 96 96 96 96 96 93 80 71 60 52 48 44 38 15 15 20 26 28 30 32 32 32 31 28 24 23 20 19
69 72 97 86 74 81 68 78 86 84 61 46 42 65 89 94 87 94 94 96 96 97 96 96 97 96 96 89 80 68 47 43 43 41 32 14 16 21 27 32 35 37 37 38 35 27 24 25 26
89 88 97 98 86 84 82 60 74 79 84 59 44 43 69 90 93 89 91 95 96 96 96 96 97 94 95 96 94 81 48 36 39 38 32 22 13 17 22 28 35 39 42 45 43 34 33 35 34
100 98 98 95 91 85 80 67 53 78 75 74 63 40 49 70 94 93 95 93 92 96 96 96 96 96 95 96 97 92 55 32 35 36 31 26 19 14 18 23 30 38 46 51 50 48 52 51 47
100 100 97 97 90 96 84 71 54 49 76 92 76 52 53 51 84 94 94 93 94 95 95 96 96 96 96 96 96 87 64 33 37 37 36 23 22 16 16 20 25 35 47 55 58 60 60 57 54
100 93 95 86 79 97 82 76 62 48 56 79 76 61 61 83 57 70 92 97 96 94 93 96 96 96 96 97 97 85 76 69 50 54 48 37 26 22 15 16 19 24 39 48 54 60 63 62 60
89 94 97 98 99 83 85 97 92 76 49 48 48 58 48 36 55 45 58 91 93 95 93 89 96 94 94 91 94 96 80 79 65 57 52 56 45 40 24 17 16 17 30 42 50 58 60 63 64
91 99 98 99 99 99 100 98 97 97 76 50 32 25 22 23 33 72 55 63 84 93 91 90 93 97 93 95 87 78 63 51 51 40 27 26 37 67 50 32 30 24 23 29 43 48 53 64 65
100 99 99 98 98 98 97 98 98 88 73 46 44 54 46 53 43 47 72 86 78 85 94 96 96 96 96 95 90 62 49 45 42 32 28 28 26 51 74 86 82 87 66 42 43 52 55 65 68
96 99 99 97 100 98 97 96 91 87 94 96 69 48 46 41 28 30 68 76 97 86 80 83 95 94 89 87 92 96 81 80 55 52 40 33 39 35 54 80 90 94 92 88 61 56 63 74 79
100 97 100 95 98 98 98 91 78 75 91 86 67 62 57 37 34 34 35 56 82 87 89 95 97 93 95 94 96 96 96 92 87 76 72 55 48 42 47 62 91 94 84 76 77 79 78 79 76
99 100 99 100 99 99 97 87 98 64 53 60 59 51 53 47 39 34 31 31 79 86 96 98 100 98 97 98 98 99 95 94 96 95 94 97 94 92 95 96 97 90 83 74 71 76 81 81 81
96 84 92 97 100 99 96 90 75 68 60 48 52 56 53 46 40 37 34 29 29 50 98 96 92 100 99 98 87 94 97 96 99 96 96 96 96 96 96 96 94 88 81 78 85 77 86 80 79
57 73 78 79 98 96 98 80 78 71 59 61 52 53 52 47 43 43 36 40 33 37 59 86 95 98 96 96 89 90 96 91 89 87 96 95 96 98 95 85 92 94 91 94 92 96 92 84 84
60 98 88 81 68 91 98 78 66 59 62 61 56 54 55 45 44 44 44 58 70 68 60 61 72 72 78 78 79 86 93 98 87 78 92 97 94 95 89 94 93 89 94 96 97 88 80 83 82
74 82 99 99 99 88 98 89 64 54 49 48 49 51 49 46 42 45 35 26 66 69 82 88 73 64 64 62 59 55 72 81 82 90 94 94 94 91 90 92 96 95 94 96 91 89 82 87 93
70 71 96 99 96 89 80 67 65 61 50 39 38 38 35 33 29 33 34 18 22 52 66 86 78 88 88 83 78 72 76 84 90 92 100 97 97 99 97 98 94 91 96 96 96 97 95 94 95
88 82 76 83 79 66 59 52 51 44 41 39 37 37 31 20 17 19 15 14 13 17 28 42 54 75 91 85 77 72 77 77 73 88 99 99 96 96 92 84 79 71 71 78 82 81 88 93 99
100 93 91 90 85 78 70 62 60 51 45 43 47 54 44 22 17 16 17 17 18 16 17 19 29 47 61 70 70 71 77 80 78 82 79 95 96 91 83 78 84 87 85 82 87 78 79 89 91

GFSSGP_500_rhum_069.txt.gz
RH
53 38 78 100 93 91 91 73 94 97 96 88 82 88 66 58 45 44 47 41 45 42 44 45 45 42 41 41 39 35 29 24 14 11 7 7 7 7 8 9 9 9 8 7 5 3 2 2 2
65 37 67 96 85 80 76 93 79 92 93 90 83 81 72 64 48 58 58 47 45 47 48 50 49 47 43 43 40 34 26 22 14 12 9 9 9 9 8 9 9 9 9 7 5 3 2 2 2
64 56 79 98 88 50 51 94 85 92 97 100 88 76 74 62 52 62 63 59 53 54 53 53 50 48 45 44 39 31 24 18 13 11 10 11 11 11 10 10 10 10 10 8 5 4 2 2 2
80 61 99 99 86 40 38 92 98 96 94 96 94 80 83 70 56 59 66 67 59 59 56 57 56 55 48 41 35 27 21 15 11 11 11 12 12 13 13 13 12 12 11 10 6 4 3 3 3
65 77 95 96 78 41 39 77 88 83 93 97 97 92 89 88 76 94 74 67 72 66 62 58 58 59 54 39 30 23 17 11 8 9 11 13 14 14 14 15 15 14 13 11 7 5 4 4 4
67 99 85 94 75 40 50 66 85 67 88 95 96 100 91 95 93 100 81 82 89 71 66 62 62 60 55 42 28 18 15 8 7 10 13 14 15 16 17 16 15 15 15 13 9 6 5 5 5
60 93 86 63 89 62 66 64 74 72 78 94 98 99 99 90 98 87 96 94 95 75 68 66 64 63 57 44 29 17 12 7 8 11 14 16 17 18 20 20 18 18 17 14 10 7 6 5 5
35 75 83 64 88 55 56 71 83 75 81 98 97 93 82 90 94 95 97 100 98 83 76 77 72 66 60 48 34 21 13 8 9 12 14 16 19 19 20 21 21 21 20 18 12 8 7 6 6
25 59 82 90 91 58 55 89 89 86 79 90 89 100 100 95 97 96 96 97 95 86 83 79 76 72 65 58 44 29 18 11 10 12 15 18 20 22 23 24 24 24 23 21 19 14 11 10 9
30 41 55 88 91 92 72 82 96 84 85 80 92 96 97 87 96 96 96 97 96 96 97 89 82 79 74 66 59 50 32 20 12 11 14 18 22 22 24 25 26 26 26 25 24 22 20 17 16
27 28 64 100 92 100 75 100 100 100 80 74 94 96 97 98 97 97 96 96 96 96 94 96 95 86 78 74 68 63 56 48 30 14 13 14 17 22 25 26 26 28 28 28 28 26 25 23 22
61 31 48 98 97 97 80 99 96 93 77 75 92 93 95 93 96 94 97 96 96 96 95 96 97 92 86 80 73 68 61 56 52 48 35 16 14 15 21 24 28 28 31 31 32 32 30 26 25
80 57 60 95 97 99 78 95 82 69 85 90 93 96 90 94 94 96 96 95 95 96 96 96 95 96 95 91 82 89 85 61 52 47 44 40 25 14 14 20 26 28 31 34 36 38 38 32 27
63 51 70 99 90 98 76 91 100 85 81 100 90 90 84 86 95 95 94 96 96 92 96 96 96 95 96 94 95 94 94 78 59 48 43 39 36 28 17 14 19 25 30 35 39 42 45 39 39
57 62 71 99 96 99 91 86 82 92 95 98 96 71 83 86 87 93 93 95 96 92 97 95 96 96 96 89 92 90 94 82 61 41 38 38 35 31 23 16 15 20 28 35 41 46 49 48 52
69 98 99 99 95 98 96 86 79 78 87 99 94 65 86 82 95 91 96 100 100 92 96 97 95 96 96 96 95 96 96 86 58 41 35 33 32 29 25 22 17 19 23 29 38 48 58 61 63
87 99 88 99 97 82 82 88 80 67 68 90 87 92 85 77 97 98 90 96 96 96 95 96 96 96 96 96 96 96 95 96 74 42 51 42 36 37 30 22 20 17 18 21 28 41 50 60 62
80 100 98 98 97 97 97 73 83 68 52 61 72 94 96 81 82 87 84 85 92 93 95 93 94 93 98 94 97 96 96 96 80 77 77 80 62 54 47 48 38 28 17 17 18 24 39 48 53
100 100 100 95 97 100 97 93 76 74 57 44 53 70 95 100 88 43 42 54 89 95 96 96 97 96 96 96 96 96 96 94 78 92 94 77 72 51 33 32 49 55 39 21 19 21 27 42 44
100 97 98 99 99 99 99 98 97 90 69 54 50 58 66 96 71 60 59 42 39 81 99 91 93 96 94 94 95 96 94 95 78 59 53 47 54 44 29 26 29 58 81 72 68 70 46 43 51
97 87 99 99 98 100 97 96 99 98 88 67 56 48 50 54 48 40 38 37 42 41 58 94 94 90 92 88 81 88 86 91 97 91 55 51 46 43 37 40 57 55 67 82 86 93 88 92 77
99 96 98 98 98 98 99 99 98 92 98 88 86 72 50 42 36 49 46 38 32 43 46 82 92 96 88 92 100 99 94 96 93 96 96 77 79 83 91 94 86 90 91 82 77 78 89 84 85
87 92 96 93 96 97 98 91 95 97 94 70 79 82 58 52 50 47 39 34 40 38 41 59 83 83 98 91 90 95 95 96 98 92 98 95 97 97 96 95 97 96 96 95 97 97 86 80 88
98 97 96 84 85 83 97 94 75 73 86 96 98 97 76 62 46 51 55 37 36 35 32 32 61 90 97 92 93 96 97 94 96 96 96 95 96 97 98 97 95 96 96 97 96 89 88 83 83
99 100 100 100 99 91 97 90 82 80 83 76 65 61 54 54 48 50 52 43 38 39 38 33 32 61 69 78 82 90 98 92 82 86 98 94 94 96 97 97 96 96 97 96 74 82 92 88 86
81 85 90 93 99 99 98 90 75 68 85 80 65 56 67 68 63 58 54 48 44 46 50 46 39 34 45 65 68 66 89 92 96 96 96 94 97 97 96 95 96 96 89 80 88 89 88 77 86
60 50 59 81 90 99 94 76 68 63 65 58 60 65 60 55 55 49 46 41 42 40 39 52 69 70 59 57 56 70 77 81 89 93 91 97 98 98 97 92 93 88 89 89 89 87 83 86 86
53 72 80 86 84 76 96 79 72 62 56 58 61 59 56 54 46 44 42 39 37 36 32 32 44 61 76 76 73 63 59 59 56 65 72 75 93 96 93 98 91 92 88 79 74 72 76 70 64
52 64 88 100 100 96 95 90 94 80 62 53 49 49 46 43 39 37 34 33 32 37 36 23 30 52 65 83 100 97 93 88 81 77 80 85 84 85 86 93 94 99 97 91 88 82 76 67 57
62 72 65 90 93 90 88 79 89 78 72 64 48 47 47 41 37 38 34 27 24 26 19 18 17 20 26 40 54 71 90 93 91 89 88 88 88 87 87 91 94 100 99 87 78 64 55 55 64

GFSSGP_500_rhum_072.txt.gz
RH
5 16 44 56 54 58 68 34 71 96 94 93 87 90 76 76 54 46 40 39 37 38 30 29 32 34 34 40 39 35 33 32 27 18 11 6 6 6 7 7 7 8 8 8 7 5 4 2 2
6 25 48 62 67 65 50 37 41 98 95 96 99 85 88 66 53 54 51 46 46 39 38 36 41 42 43 42 41 38 36 32 27 19 13 9 8 8 8 8 9 9 9 8 7 5 4 2 2
8 28 39 69 78 60 48 56 52 91 97 96 96 86 90 71 59 52 54 54 56 48 47 42 42 44 46 44 41 40 36 28 25 17 14 10 10 10 10 10 9 10 10 9 8 6 4 3 2
10 16 73 69 69 70 54 59 96 80 97 96 96 92 74 72 67 60 54 50 62 58 55 50 47 49 50 48 44 41 34 24 20 15 13 11 11 10 10 11 10 10 10 10 10 8 6 4 3
15 24 60 80 76 70 56 50 94 73 92 85 96 96 99 81 82 63 56 56 65 65 61 56 53 53 51 48 45 40 33 22 17 13 12 11 12 12 12 13 13 14 14 13 12 10 7 5 4
13 27 45 90 61 71 64 50 83 79 81 98 92 96 95 98 93 69 60 55 65 72 66 63 57 55 54 53 46 38 31 20 14 11 10 10 12 13 13 15 16 16 16 15 13 11 8 6 5
12 19 34 52 73 95 75 74 75 69 80 95 90 97 96 95 89 91 76 62 69 79 74 70 66 61 57 55 51 40 27 19 14 9 9 10 12 14 16 17 17 18 18 17 15 12 9 7 6
24 20 37 40 97 93 86 100 66 71 74 95 97 88 94 89 97 96 95 77 79 80 88 85 74 69 65 58 52 43 29 20 14 9 9 12 14 15 17 19 19 20 20 20 19 15 11 9 8
36 36 31 38 55 77 83 99 86 57 88 88 79 98 99 95 93 96 98 95 91 83 90 92 79 74 68 62 53 41 28 20 11 8 9 12 13 16 18 18 21 22 24 23 22 20 17 14 13
30 32 22 30 58 73 80 98 92 57 59 69 89 95 92 96 90 94 97 96 99 100 100 93 82 75 69 63 51 42 29 21 14 9 10 12 14 18 20 22 22 23 24 25 25 24 24 22 21
28 23 25 26 56 97 94 98 100 60 66 72 87 92 77 97 96 96 100 96 96 95 96 95 86 77 72 66 58 46 33 25 19 13 12 12 15 17 20 22 23 24 25 25 26 27 27 27 26
31 28 22 32 42 100 95 98 69 63 74 100 98 91 86 95 94 98 96 96 98 94 96 96 95 86 77 73 68 63 54 47 33 21 14 13 13 14 16 20 23 24 25 26 28 29 29 31 32
35 24 24 25 42 82 82 95 98 50 76 93 87 82 70 96 97 96 96 96 96 96 96 95 96 94 90 81 78 78 72 65 59 54 47 38 25 17 14 13 16 21 24 27 29 31 34 33 34
98 58 23 23 37 89 90 90 99 62 72 94 96 85 62 95 92 96 97 96 96 96 96 96 95 94 95 96 93 90 86 76 66 59 53 48 44 41 34 24 18 15 18 24 29 32 34 37 39
100 61 38 18 34 95 98 100 94 79 82 77 81 80 84 94 96 94 95 96 97 96 96 96 96 97 96 95 96 96 94 88 84 71 58 51 46 42 37 35 29 22 16 18 24 29 35 41 44
100 97 54 21 75 91 97 86 94 89 88 80 79 96 98 90 90 94 95 96 94 96 97 96 93 97 96 97 96 94 96 94 97 93 77 68 55 40 36 32 31 28 22 19 19 23 29 36 40
99 82 46 52 98 99 90 97 100 82 93 99 82 96 96 95 93 94 96 92 96 95 95 94 94 97 96 95 96 96 96 96 95 96 94 56 40 35 33 29 28 24 22 20 18 19 21 24 29
82 98 100 95 94 99 95 89 90 85 93 97 93 90 95 94 86 80 86 84 95 96 94 96 95 97 96 96 97 96 95 96 96 96 94 69 39 32 32 35 37 40 38 27 24 18 17 18 18
78 71 68 69 89 100 98 89 99 86 95 95 98 94 96 95 95 95 100 96 94 96 96 96 93 95 93 95 96 90 96 96 97 95 92 76 55 67 86 74 58 44 43 44 49 40 24 20 18
82 97 99 98 100 99 100 92 95 90 89 96 96 96 94 94 97 95 96 94 97 90 85 97 97 96 90 95 95 95 96 97 96 92 92 97 97 84 80 66 58 43 26 23 26 56 66 61 66
98 100 100 100 98 99 96 86 97 100 88 88 86 89 88 80 82 86 79 83 80 77 74 87 88 93 96 96 94 96 95 95 96 96 96 94 71 63 58 50 80 70 49 41 38 52 82 90 96
97 90 98 100 100 99 99 98 98 94 80 92 89 79 69 64 70 88 95 95 78 64 57 55 67 93 94 96 96 96 97 97 96 96 97 96 95 94 94 89 94 95 96 97 96 96 95 96 97
95 99 94 96 99 99 96 98 96 97 99 86 93 90 82 83 83 89 94 82 53 40 52 40 38 64 80 66 89 94 95 96 95 96 97 97 96 95 94 95 97 98 97 96 96 96 96 97 99
80 89 97 99 99 100 98 99 100 95 88 96 98 99 98 93 86 82 76 67 45 46 39 37 36 34 46 66 83 89 86 93 96 95 91 96 96 97 97 96 96 97 96 98 97 96 98 98 97
89 82 97 100 90 95 93 99 94 88 98 100 98 96 98 99 97 81 69 60 52 48 44 40 35 29 28 32 52 75 94 94 85 94 97 97 96 96 96 97 97 97 97 97 96 96 97 97 97
100 100 100 100 90 83 97 99 93 79 89 91 97 94 88 94 92 86 73 68 68 58 50 44 36 32 26 24 25 27 39 64 88 90 96 95 96 97 98 97 97 97 97 97 95 96 94 86 77
99 96 85 95 95 82 89 96 94 87 97 89 97 99 92 85 79 69 63 59 55 43 41 40 39 36 36 32 32 27 26 34 42 59 83 93 96 98 98 98 97 98 97 96 86 68 59 62 63
68 82 72 76 92 100 100 96 85 82 82 91 76 57 54 50 57 64 60 58 59 54 42 38 39 36 39 38 41 46 40 42 53 58 60 65 76 95 96 93 94 88 93 85 74 77 81 91 81
58 54 50 60 63 84 100 89 77 68 59 52 51 48 46 41 39 55 54 52 46 41 42 39 39 39 36 34 34 43 49 56 63 59 58 63 68 76 69 67 70 83 81 78 74 74 70 80 84
62 62 60 65 75 76 82 73 77 70 61 59 59 61 60 58 63 66 62 51 43 39 35 33 32 32 35 31 23 34 67 68 52 54 66 80 89 85 84 80 73 72 72 79 84 91 99 96 86

GFSSGP_500_rhum_075.txt.gz
RH
2 2 18 39 14 20 22 27 28 43 81 92 98 85 85 70 51 45 41 41 39 37 31 27 22 20 22 28 34 31 31 31 30 26 21 12 7 6 6 7 7 7 8 7 7 6 5 4 2
2 2 6 53 34 19 13 29 40 41 83 100 100 96 87 76 62 52 49 51 45 41 37 31 25 26 26 31 35 36 33 33 32 28 23 17 10 8 7 8 8 8 8 7 8 7 6 4 3
2 3 7 46 63 40 14 24 44 50 79 89 96 92 90 78 66 57 55 50 50 48 42 38 32 30 33 35 38 38 37 36 33 28 20 18 11 10 9 10 9 9 10 9 9 8 7 5 4
4 5 24 40 37 57 30 30 49 50 66 78 97 98 95 96 74 75 62 52 51 48 45 44 41 38 40 42 42 41 39 37 32 26 17 15 11 11 11 10 10 10 11 11 10 10 9 7 5
6 8 15 48 39 48 73 41 51 66 95 71 93 96 92 98 84 72 65 59 58 55 48 48 51 48 45 45 45 43 42 38 31 22 16 14 12 12 12 10 11 11 12 11 11 11 10 8 6
9 16 21 31 39 40 89 73 57 71 98 65 71 93 97 91 96 82 79 65 61 59 53 52 55 57 52 48 48 44 44 38 32 20 15 13 12 12 12 11 11 12 13 14 14 13 11 10 7
13 16 14 18 28 56 64 76 70 58 84 75 56 68 96 98 98 93 86 87 61 58 62 60 59 62 61 56 51 46 43 40 33 22 15 12 11 11 11 12 13 13 13 14 16 16 14 12 9
21 26 16 14 13 35 70 98 75 61 67 86 94 78 90 96 83 91 88 96 83 60 64 74 70 63 64 64 59 52 46 41 34 23 14 10 10 11 12 14 15 15 15 16 18 18 17 14 12
30 28 16 14 11 23 68 98 96 67 56 71 87 85 87 95 94 96 97 97 94 78 66 80 78 68 67 64 62 57 50 41 28 21 16 10 10 12 13 15 16 17 18 19 21 21 20 19 18
31 29 18 20 18 15 63 82 100 89 62 58 72 77 86 84 80 89 94 96 97 95 86 83 89 84 76 70 65 59 49 38 27 20 16 10 10 12 13 15 17 18 20 22 22 23 24 24 23
28 24 32 28 21 21 33 96 100 99 93 55 53 55 71 96 98 92 95 96 96 93 96 92 91 90 84 76 70 61 48 37 25 19 14 10 10 11 14 16 17 19 20 22 23 24 26 26 27
25 26 27 29 25 27 30 83 99 98 88 56 50 81 77 93 91 96 96 92 97 96 96 94 95 98 88 80 70 60 46 40 27 22 17 12 12 12 13 15 16 18 19 21 23 24 24 27 28
57 30 23 27 23 26 45 57 81 97 99 82 64 68 71 88 98 94 98 96 95 97 96 96 97 98 90 80 68 61 50 42 30 24 19 16 14 13 13 12 14 15 18 19 20 22 24 27 30
57 50 41 26 21 22 39 72 77 91 99 100 95 72 70 80 98 95 94 96 97 97 96 97 96 97 86 75 74 65 58 53 43 39 33 22 22 16 14 14 14 14 14 15 17 20 22 24 28
42 48 40 30 22 18 40 62 50 87 98 98 98 80 90 84 85 91 93 96 97 96 95 96 96 95 92 93 94 90 85 68 65 63 57 52 48 45 40 35 35 30 27 23 19 18 19 20 22
84 97 83 31 25 23 59 60 93 97 94 95 98 78 88 76 82 83 89 98 96 96 96 96 96 90 96 95 92 96 93 80 76 75 68 62 59 54 49 46 42 37 36 31 27 22 19 17 18
100 94 100 69 22 28 70 75 79 97 95 100 98 70 96 97 96 93 92 96 94 95 97 97 97 97 97 99 96 96 97 94 96 84 75 69 67 63 56 54 50 48 37 31 28 26 25 22 18
98 91 88 38 24 31 66 83 89 97 99 99 97 95 97 97 97 96 98 96 91 93 96 96 95 96 95 95 97 97 96 97 95 96 90 94 94 95 77 76 58 36 28 24 20 19 18 18 17
100 99 69 30 15 24 98 97 84 98 91 100 99 93 98 94 97 97 96 93 96 96 97 92 93 97 97 96 92 95 96 96 96 94 94 95 98 96 90 60 35 32 30 33 38 36 36 35 36
98 100 97 83 38 54 100 98 91 96 100 99 97 85 95 95 97 97 97 96 94 97 92 95 96 98 96 97 96 98 96 96 94 95 96 96 96 97 95 93 77 76 73 67 57 43 30 27 28
90 100 100 100 77 79 98 99 91 97 99 97 92 97 99 95 97 95 97 98 97 96 95 95 96 94 93 96 97 96 96 97 98 95 96 97 96 96 97 93 89 91 81 59 69 80 74 77 68
80 87 97 97 97 100 99 98 100 99 97 99 96 95 97 95 95 95 96 97 96 97 92 96 95 96 93 96 98 97 97 96 97 97 97 96 97 96 97 98 95 92 95 95 95 97 96 96 95
98 99 99 100 100 96 98 99 97 92 92 99 100 97 97 97 97 96 96 89 92 82 86 75 54 80 96 96 97 97 97 96 96 97 97 96 96 97 97 97 96 97 97 96 97 96 97 97 97
99 95 100 100 92 99 100 99 98 99 84 88 100 94 97 98 96 94 93 91 96 89 90 66 51 56 64 73 84 90 95 96 96 97 96 96 96 96 96 96 97 97 97 97 97 96 94 95 97
95 91 87 78 90 99 99 83 88 79 90 90 98 99 95 95 94 90 88 94 87 81 77 56 51 45 48 48 58 42 38 72 95 96 96 95 96 96 95 96 96 97 97 97 97 96 96 96 96
86 76 69 68 87 99 100 97 89 98 86 94 96 87 83 86 100 99 94 91 88 86 70 48 46 51 53 51 34 31 28 26 33 42 65 80 90 95 96 96 97 98 94 96 97 97 97 96 96
88 98 92 94 100 94 93 98 85 82 92 97 100 92 98 98 98 98 97 95 91 76 61 58 64 59 51 46 37 32 31 34 33 27 24 36 65 91 90 95 95 97 94 97 97 97 96 97 97
89 90 99 99 92 97 96 85 84 88 85 87 84 93 95 91 96 95 98 100 100 89 78 72 64 55 50 44 36 36 33 29 31 36 34 30 31 44 64 82 93 85 94 97 96 96 94 92 94
88 75 82 95 100 98 86 84 92 78 89 94 94 98 97 94 83 86 83 82 78 75 73 69 62 58 44 41 40 35 31 29 28 26 31 41 48 47 57 59 55 52 68 87 95 95 93 93 88
63 65 51 58 52 92 95 95 78 81 84 88 92 84 79 75 76 74 72 68 60 52 52 56 51 47 44 42 36 33 35 32 28 26 29 35 49 56 51 68 76 80 81 84 84 84 84 77 73

GFSSGP_500_rhum_078.txt.gz
RH
8 6 3 3 4 6 6 5 4 9 12 17 16 33 52 70 73 54 34 38 39 33 29 28 27 24 20 18 18 24 28 29 27 26 23 17 10 8 6 7 7 7 8 7 7 7 6 5 4
7 5 4 4 6 6 4 6 7 15 14 24 31 31 72 92 84 70 48 46 44 43 40 34 30 26 23 20 21 29 30 29 31 29 26 20 13 10 7 8 9 9 9 9 8 8 7 6 5
4 4 4 5 5 4 4 5 10 20 17 22 42 41 46 97 89 79 62 50 49 46 49 43 33 27 24 24 25 33 34 31 34 31 29 22 19 12 10 9 10 10 9 10 9 8 8 7 6
4 4 5 3 2 2 3 6 8 29 27 30 53 91 66 90 83 78 73 58 52 49 52 51 42 32 27 29 31 34 35 36 35 32 30 23 18 14 12 10 10 10 9 9 9 9 9 8 7
4 4 4 3 2 2 3 9 14 43 35 51 56 86 79 91 96 82 84 70 56 53 54 54 48 41 33 31 37 39 38 39 36 32 30 22 18 14 12 12 10 10 9 9 9 9 10 9 9
5 6 4 2 3 3 5 13 33 65 46 46 63 70 72 91 98 92 84 88 65 54 53 54 52 51 40 37 41 45 44 40 38 33 29 24 16 14 12 12 11 10 10 10 10 11 11 11 11
7 3 2 3 3 4 7 29 40 63 46 42 79 65 69 94 97 94 86 93 86 68 60 55 55 55 49 42 45 48 48 44 40 36 31 24 16 13 12 12 12 12 11 11 10 12 12 12 12
4 3 2 3 4 4 10 35 54 62 84 43 53 72 61 78 92 96 97 93 97 88 72 68 61 59 59 52 53 52 51 47 42 37 32 25 18 14 12 11 12 12 12 12 12 13 15 15 14
4 3 3 4 4 6 13 20 56 57 89 58 52 62 67 75 92 96 96 91 94 89 85 77 72 65 64 59 58 56 52 45 40 36 31 23 17 13 11 11 12 12 13 13 13 14 16 18 18
5 3 4 7 10 18 16 14 26 71 86 80 56 76 68 90 82 97 98 96 96 96 94 90 77 73 72 63 63 61 60 51 43 37 31 22 17 13 11 11 12 13 14 14 14 16 17 19 19
8 5 9 10 15 22 16 15 25 65 89 72 56 59 78 77 79 97 97 96 96 97 97 96 91 88 84 75 68 66 63 56 47 36 30 21 18 14 11 12 12 13 14 14 15 17 19 20 21
8 13 17 14 21 24 20 26 23 66 80 81 70 52 62 75 96 95 97 96 97 97 97 96 93 92 93 84 75 72 67 56 45 33 26 20 18 15 12 12 12 12 13 14 16 17 20 21 22
11 33 36 19 24 29 30 31 23 42 81 99 86 55 62 79 86 91 94 99 97 95 95 96 97 97 96 97 87 77 70 59 50 39 34 26 22 16 13 13 11 12 12 15 17 19 20 22 23
24 63 64 32 23 27 34 31 31 22 66 95 97 63 72 99 73 81 89 95 96 96 96 96 97 96 99 100 97 86 75 66 58 45 39 31 23 18 14 14 14 13 14 15 16 16 17 18 20
22 58 92 51 29 27 30 30 32 48 83 97 99 80 87 100 77 89 93 84 96 96 96 96 97 97 96 95 93 88 72 62 55 46 43 41 24 21 20 25 14 14 14 14 16 15 16 18 19
38 40 76 74 54 25 27 24 28 57 82 78 98 100 90 95 78 76 72 81 96 96 95 97 96 97 97 95 95 89 77 60 51 43 48 46 36 34 50 24 20 20 18 22 26 28 26 25 22
93 64 61 67 52 43 24 21 35 52 65 86 100 88 86 96 82 58 64 73 95 96 95 96 96 96 94 94 96 90 77 71 46 57 60 45 45 72 42 43 42 42 42 43 40 38 48 33 28
100 99 96 84 62 42 24 17 58 68 65 85 82 78 86 98 98 58 52 80 91 95 94 94 95 96 89 96 95 96 94 74 74 84 93 78 74 85 78 81 81 57 50 62 54 54 47 28 24
100 100 90 78 63 34 22 18 87 61 76 79 89 94 96 97 96 100 74 96 97 90 95 95 100 97 96 96 97 97 97 95 96 95 96 84 80 91 86 93 96 93 86 63 71 60 27 23 24
100 98 99 100 76 32 23 38 90 86 93 87 82 89 90 98 97 96 93 94 97 95 93 99 95 97 97 96 95 96 96 96 96 95 95 93 89 95 96 95 98 98 86 78 56 30 36 38 46
92 93 100 98 75 52 32 73 97 90 96 93 90 88 96 96 97 95 96 96 98 97 96 97 97 96 96 97 94 96 96 97 96 96 96 97 96 95 96 96 95 97 97 95 77 76 72 78 87
72 91 100 100 74 52 90 99 98 98 83 89 98 94 97 96 96 97 97 97 96 96 95 95 97 97 97 98 97 97 97 97 97 96 96 97 97 95 96 96 95 96 96 96 96 100 96 96 96
71 100 100 100 100 46 75 98 100 98 76 100 93 98 96 91 94 95 94 95 99 100 96 98 97 94 96 92 95 97 97 97 97 96 97 97 97 96 96 96 97 97 97 96 97 96 97 92 95
98 99 100 99 100 82 100 99 96 93 94 95 77 95 96 94 95 95 94 94 90 92 90 94 91 91 85 94 96 96 97 97 97 96 96 97 97 97 97 97 97 96 96 97 98 97 97 95 96
75 86 98 89 95 94 100 80 78 98 96 87 81 88 96 97 95 96 97 95 94 94 87 98 92 95 90 83 96 95 94 95 96 93 93 96 96 96 96 97 97 97 97 97 96 96 96 97 95
92 94 69 69 100 97 98 99 90 91 87 81 82 88 91 97 96 98 96 98 90 88 98 82 82 79 67 72 75 86 87 79 60 79 81 84 90 93 94 95 96 96 97 96 96 97 96 97 97
67 69 85 88 92 95 97 90 60 66 82 83 73 78 100 96 94 99 100 92 83 78 77 71 74 74 52 49 58 66 61 54 55 36 46 57 41 28 42 68 74 73 84 93 96 97 96 95 96
89 89 93 90 80 76 77 72 76 82 65 67 100 94 97 97 86 85 94 100 100 87 85 80 75 68 55 52 58 64 53 45 36 30 33 29 26 24 24 24 24 32 52 80 90 97 96 94 95
90 98 98 99 92 78 81 80 77 78 96 98 99 99 96 98 100 98 97 90 88 90 87 82 76 71 72 72 67 57 49 42 36 34 31 29 25 26 26 30 28 32 32 30 27 33 52 66 52
56 57 64 82 94 96 95 84 82 70 87 88 79 84 91 92 90 95 96 99 96 94 92 87 86 78 72 67 60 50 46 41 40 38 34 31 28 25 25 24 33 35 41 47 58 61 53 47 56

GFSSGP_500_rhum_081.txt.gz
RH
16 15 8 7 8 10 11 9 6 7 8 7 4 5 8 26 83 53 39 38 32 30 22 23 23 27 24 23 18 16 16 20 24 24 23 21 17 12 6 5 7 8 9 10 8 8 8 7 6
20 17 7 6 10 9 10 7 10 8 6 4 3 3 9 16 12 10 29 48 46 39 31 26 26 29 32 24 20 18 19 20 27 26 25 24 20 14 12 8 8 9 9 10 10 10 8 8 6
22 24 11 7 10 10 6 6 8 6 3 3 3 4 90 25 26 22 37 76 69 49 37 33 30 33 33 27 23 20 23 25 28 30 27 26 24 18 12 12 9 10 10 10 10 9 8 8 7
24 25 13 9 8 6 5 5 6 4 3 2 3 36 51 18 26 45 44 95 92 66 48 40 38 38 38 30 26 25 26 30 30 32 30 29 27 23 17 12 10 10 11 10 9 9 9 9 8
29 25 20 10 6 5 5 6 6 4 3 2 3 39 42 17 27 62 84 97 96 80 58 47 44 43 43 36 30 30 30 33 34 34 32 42 30 24 19 13 12 11 11 10 9 8 8 8 9
33 32 21 12 7 5 5 6 6 4 3 3 5 7 28 27 33 51 77 97 84 90 71 59 49 48 48 42 35 32 35 35 39 37 36 47 30 24 18 14 12 12 11 10 9 8 7 8 9
34 32 27 16 8 5 6 6 4 3 3 3 16 56 22 34 30 46 70 96 92 82 80 65 57 51 55 50 41 34 36 38 41 39 33 40 30 25 17 15 13 12 12 10 9 8 7 9 10
32 28 27 17 7 5 7 5 3 3 3 5 10 28 40 47 37 61 70 96 88 71 82 69 62 55 54 56 52 45 42 40 44 43 37 34 28 24 18 15 14 12 11 10 9 8 8 9 11
25 27 23 10 6 6 5 4 4 4 4 10 31 52 45 36 36 56 90 96 97 90 89 92 76 69 64 58 59 55 49 47 47 45 40 35 30 26 21 16 14 12 11 10 10 9 9 10 11
21 18 11 7 7 6 5 5 4 13 5 23 46 78 51 28 31 56 89 96 94 97 86 94 93 85 72 64 60 60 54 52 50 48 44 37 32 28 24 18 14 11 11 11 11 10 10 11 12
18 15 9 7 6 4 4 5 5 10 6 24 56 72 72 29 27 37 73 96 98 96 78 97 96 81 83 75 68 63 58 54 51 48 43 36 30 27 23 18 14 12 12 12 11 10 10 11 12
19 11 9 8 5 4 6 7 7 10 10 16 53 73 84 32 37 28 50 92 97 98 96 93 89 97 90 75 71 71 67 60 55 50 43 35 29 28 21 17 16 13 13 12 12 11 12 12 14
10 9 8 6 4 4 9 9 10 12 17 16 38 79 89 42 59 39 46 77 96 97 98 96 90 96 96 85 75 76 74 71 66 60 48 38 28 26 22 20 18 14 13 13 13 13 14 15 16
9 7 6 4 3 7 19 13 17 13 23 16 45 72 96 53 91 61 56 76 92 95 96 95 98 97 97 95 92 82 75 74 72 63 52 43 37 31 26 21 19 16 14 14 22 27 15 15 17
7 5 5 4 6 24 42 19 16 23 28 18 48 70 86 52 92 98 66 70 89 92 95 96 98 96 97 96 96 90 84 82 79 74 60 46 39 32 30 24 19 17 14 28 47 13 14 15 18
7 6 6 9 13 43 60 20 19 40 30 22 38 88 84 69 76 98 93 72 70 93 97 96 97 96 95 95 96 99 88 85 84 80 71 47 40 32 28 24 19 23 23 88 23 14 13 14 15
62 46 39 30 33 77 77 24 26 38 34 48 28 75 87 96 77 98 79 65 74 87 96 96 96 96 96 97 99 97 96 90 79 77 77 66 51 39 29 27 48 20 82 60 15 15 15 17 22
80 99 100 88 57 60 66 30 28 33 28 41 58 78 94 98 80 94 97 74 66 68 96 96 94 94 96 93 96 96 95 94 87 83 66 63 60 50 41 48 56 33 91 28 44 27 35 40 41
84 82 80 99 100 68 55 34 23 48 34 75 84 97 95 95 69 76 96 84 70 61 78 95 96 95 95 97 95 97 96 95 96 95 94 88 67 57 80 91 75 90 93 78 76 84 68 45 75
97 87 73 97 86 88 49 37 20 26 59 99 83 84 87 58 95 96 95 97 94 82 89 94 93 96 94 96 96 96 96 96 96 95 95 96 95 93 94 96 91 91 95 93 88 84 72 87 69
98 89 100 100 56 55 47 42 28 31 98 86 76 79 97 61 89 96 97 97 97 90 83 96 96 97 96 97 96 96 96 95 97 95 94 96 96 92 94 96 95 84 97 96 99 96 96 86 79
80 90 92 83 75 71 46 35 31 79 100 68 68 76 87 100 98 97 96 97 97 99 95 97 97 97 97 97 97 97 96 96 97 96 94 97 94 95 95 96 95 94 96 95 96 96 98 98 98
97 88 99 100 54 71 68 95 94 96 99 90 69 84 94 99 98 98 98 97 96 96 97 97 97 97 98 98 97 96 96 97 97 96 97 94 96 97 96 96 96 94 96 95 96 94 96 96 96
98 99 98 100 91 86 57 84 98 97 90 76 90 75 93 94 90 97 97 97 96 96 94 96 94 96 97 96 97 96 97 97 97 96 96 97 96 96 94 96 97 96 94 96 96 96 95 97 96
100 99 100 100 100 87 94 98 98 100 75 93 95 98 97 94 94 96 98 97 100 100 96 95 96 96 94 94 95 96 96 97 96 96 97 97 97 96 97 97 96 92 96 96 96 96 96 97 97
100 98 99 100 100 100 100 100 97 98 87 97 95 97 97 94 92 97 96 97 90 91 90 90 90 92 91 94 92 92 98 92 94 95 95 96 94 96 95 96 95 96 97 97 97 97 97 96 95
95 87 96 98 100 99 98 100 98 96 96 87 78 90 92 99 98 98 96 94 93 93 86 80 82 82 77 80 93 95 94 96 93 92 95 93 75 73 92 91 91 90 96 92 90 77 91 90 95
98 99 100 100 100 97 97 77 68 71 72 74 69 73 78 88 95 98 96 96 94 93 90 83 73 65 66 68 76 86 86 90 94 92 93 72 63 48 35 45 42 51 72 63 67 68 60 54 50
100 96 96 95 76 81 88 96 98 97 78 84 88 99 100 94 100 98 99 94 89 86 92 95 83 77 71 64 66 64 58 60 63 68 53 52 41 46 48 28 25 26 30 33 31 34 37 34 32
99 97 97 91 86 78 75 69 75 83 98 100 95 85 95 96 97 97 96 98 98 97 75 75 76 70 70 72 70 71 68 67 65 58 49 43 34 34 33 28 25 24 24 27 22 27 26 31 34

GFSSGP_500_rhum_084.txt.gz
RH
20 23 22 19 19 17 15 12 8 9 9 7 8 9 10 7 6 7 7 12 5 10 40 31 24 19 18 21 22 23 20 16 15 19 21 20 19 16 12 7 5 7 9 10 10 9 11 10 8
19 22 22 21 19 17 18 11 9 7 8 9 8 11 10 5 6 5 7 8 6 6 48 43 31 24 21 23 23 24 22 18 17 18 21 20 21 20 15 11 6 8 10 10 10 10 10 8 7
17 16 20 20 22 21 19 15 8 8 7 8 11 11 8 6 6 6 29 28 14 31 44 63 39 30 26 24 28 26 22 20 21 19 21 21 22 23 20 15 12 9 10 11 10 10 9 8 8
19 18 17 20 24 26 24 19 10 8 7 7 8 10 11 10 7 6 47 47 64 68 56 78 58 38 31 28 30 29 25 24 26 24 21 22 23 25 24 20 14 11 10 11 10 10 9 8 8
24 19 18 17 24 28 26 22 11 6 5 5 7 8 12 12 6 5 54 66 43 23 34 78 71 51 38 32 33 34 28 27 30 29 24 23 23 27 26 23 18 13 11 11 11 9 8 7 6
38 31 23 22 26 31 30 25 18 9 6 5 6 9 12 11 5 8 38 49 33 17 24 82 79 65 47 36 37 40 34 31 35 34 29 27 22 29 28 26 21 15 13 12 11 10 9 6 5
47 45 34 31 31 31 32 29 22 11 6 5 6 7 10 9 10 6 20 50 20 54 26 94 84 82 60 44 39 41 38 34 35 38 36 30 25 39 31 27 22 18 14 13 12 10 8 6 6
58 53 44 42 40 36 29 28 25 17 8 6 6 6 8 6 4 3 3 15 28 90 43 71 100 94 75 59 50 48 43 37 38 42 40 32 30 36 36 28 22 18 16 13 12 10 9 7 6
68 58 50 50 43 35 29 24 18 12 8 6 6 7 6 5 4 3 7 12 14 54 81 98 96 98 74 66 59 55 51 44 42 42 41 36 37 34 33 29 25 18 16 14 12 11 9 8 7
67 62 55 48 44 38 30 23 14 10 8 6 6 6 5 4 3 3 4 16 12 38 92 96 96 89 89 69 62 60 56 49 46 45 39 40 39 37 35 31 24 19 17 14 12 12 10 9 8
58 56 55 51 45 38 28 19 10 7 8 6 6 6 4 4 3 29 27 13 12 52 95 96 97 98 93 87 72 62 63 61 53 49 42 40 41 40 36 30 22 18 16 14 12 12 11 10 9
52 52 49 48 42 36 29 15 11 8 7 6 6 5 5 3 4 83 94 15 11 27 89 96 97 95 90 94 77 66 65 63 58 54 50 41 43 44 39 31 24 19 16 16 14 13 12 11 10
27 29 30 31 30 26 23 21 15 10 8 7 6 4 4 4 4 7 100 22 18 22 89 93 97 92 98 98 92 96 67 66 62 62 54 48 49 45 40 29 22 20 18 17 14 14 14 14 12
14 17 22 21 20 15 15 20 14 11 10 8 6 5 5 4 21 88 74 67 29 31 86 95 97 98 96 90 96 96 93 79 68 68 60 56 47 40 32 27 22 23 18 16 16 14 14 14 46
10 14 15 13 9 9 8 12 10 8 15 11 8 7 8 7 66 90 99 62 63 42 57 97 96 99 99 93 96 96 97 97 83 76 69 63 56 50 37 27 22 23 18 16 16 16 15 27 82
9 10 10 10 9 9 8 11 10 16 21 15 13 20 18 15 88 60 87 62 75 62 52 96 96 96 97 94 96 96 96 95 87 88 81 72 64 55 46 33 24 20 20 18 17 17 18 51 84
16 30 22 26 26 19 9 7 21 42 30 19 22 23 20 15 39 77 80 81 84 99 70 92 96 96 96 98 99 96 96 97 96 94 92 86 73 60 47 33 27 22 23 22 19 22 33 88 54
62 57 39 45 66 60 52 28 43 64 36 25 32 30 24 20 43 80 74 69 96 100 84 79 96 96 96 96 97 97 96 95 96 96 97 95 92 76 59 35 32 30 27 28 22 68 71 93 36
62 50 43 60 76 84 91 51 74 100 67 61 36 43 32 40 69 86 63 57 97 98 93 89 87 94 95 95 95 96 94 95 95 96 97 95 95 93 93 86 50 53 74 58 30 80 77 95 31
78 65 66 62 82 82 100 64 68 58 66 58 57 47 39 73 87 73 55 60 98 97 94 92 89 93 95 96 92 79 95 96 96 96 94 96 98 97 97 95 93 93 88 59 71 95 92 95 92
82 70 83 93 94 88 95 60 39 43 92 49 41 85 81 99 91 86 46 81 97 97 97 97 88 87 88 97 96 94 91 96 96 95 97 97 96 95 95 96 92 93 95 97 96 94 95 96 96
75 66 100 88 48 53 39 46 67 41 32 34 65 97 95 99 100 85 81 86 96 98 98 97 98 96 95 96 96 97 96 96 97 96 94 95 97 95 95 94 94 94 94 96 95 94 90 97 96
77 93 100 68 83 78 58 76 26 24 30 80 97 92 99 98 100 96 95 97 92 93 97 96 96 96 98 97 96 96 96 96 95 96 96 97 96 95 94 92 96 96 96 97 96 96 96 96 96
100 100 100 91 76 69 67 98 63 82 96 87 82 77 77 80 96 96 95 96 97 97 96 96 97 100 97 97 96 96 98 97 96 96 97 97 94 96 97 86 95 96 95 94 98 98 97 96 96
99 100 100 100 100 91 96 97 99 100 99 80 77 65 91 99 88 97 98 97 97 100 100 98 95 98 94 94 96 98 97 97 97 97 97 95 93 97 92 99 98 97 79 59 89 81 85 94 96
100 100 99 100 98 98 99 99 100 83 98 98 87 71 69 98 93 96 96 96 93 88 91 95 97 97 96 96 97 97 97 97 96 96 97 97 98 100 99 98 95 98 89 94 92 98 98 97 97
98 99 100 99 100 98 100 100 99 99 94 97 98 98 97 99 97 94 93 98 97 95 89 92 90 91 93 93 93 93 96 94 95 96 96 94 95 96 95 97 96 96 95 97 96 95 96 96 97
97 100 98 96 100 98 99 96 95 99 97 97 86 91 95 98 98 98 98 93 97 97 96 94 94 93 93 93 94 95 92 95 95 94 93 94 91 95 94 96 96 94 88 95 93 90 92 95 95
100 98 87 92 95 97 89 70 93 94 94 91 86 85 95 99 97 97 96 97 92 94 96 94 92 93 85 75 76 75 81 91 93 94 93 91 90 88 88 88 76 85 79 72 59 88 82 90 88
96 90 86 79 84 85 95 80 100 90 85 87 96 97 100 98 97 97 96 97 96 92 98 96 91 73 72 66 69 72 70 69 67 67 70 75 69 64 64 62 72 65 65 59 50 50 55 50 45

GFSSGP_500_rhum_087.txt.gz
RH
15 14 13 15 19 18 19 20 20 19 12 8 8 10 10 10 9 10 8 7 5 6 7 7 28 20 17 18 16 16 18 19 18 19 19 21 19 17 15 12 7 5 6 9 11 10 11 12 9
15 13 14 15 19 20 22 25 22 20 15 8 8 9 10 11 11 11 11 8 6 6 12 12 26 34 23 21 21 18 18 22 21 19 20 22 20 18 18 17 12 6 8 10 10 11 11 11 9
18 14 12 12 15 19 21 25 24 22 20 16 9 8 10 12 9 11 12 10 8 5 17 15 11 26 40 24 23 22 21 21 22 21 22 24 22 19 19 19 17 12 8 10 11 11 11 10 10
25 23 25 14 10 13 18 25 24 24 23 19 13 10 9 10 9 10 12 12 9 7 22 14 12 10 43 38 28 25 25 26 24 23 23 25 23 21 19 22 21 17 13 10 12 11 11 10 9
41 37 34 30 28 16 16 22 27 27 28 22 17 12 9 8 8 10 13 13 15 28 40 49 16 22 44 50 41 32 30 30 28 25 26 28 25 23 22 23 23 22 17 14 12 12 11 9 8
47 45 39 38 37 28 25 28 29 27 29 26 21 20 13 9 8 9 12 14 16 8 63 65 44 57 47 68 55 41 36 35 34 30 28 31 28 22 25 24 25 24 23 16 14 12 11 10 8
52 51 44 42 40 38 34 35 30 33 32 29 23 23 21 14 8 7 9 12 40 6 50 76 54 39 49 62 65 50 44 39 38 36 34 32 30 23 27 25 28 26 24 19 15 14 12 10 9
15 46 48 46 48 45 46 42 36 34 33 32 28 24 20 17 13 8 8 10 10 28 58 57 68 42 35 62 79 57 52 47 45 41 37 37 32 25 30 30 34 27 26 21 15 14 13 11 9
7 11 36 60 58 54 53 47 42 38 35 30 26 28 26 22 17 9 7 10 10 4 21 54 81 78 37 53 84 82 51 53 52 47 41 41 38 31 32 38 40 28 26 22 16 14 13 11 9
8 8 14 41 58 58 56 52 49 42 38 34 21 21 26 23 19 10 7 9 8 4 8 65 69 91 98 51 94 85 70 56 60 54 48 46 44 37 36 34 37 33 25 22 16 14 13 12 10
9 9 24 32 43 56 55 55 50 46 43 40 34 24 28 24 19 11 7 8 6 6 12 18 47 64 92 96 97 98 85 60 59 59 53 53 52 39 41 40 36 31 26 22 18 14 14 13 12
9 13 24 35 40 47 52 53 53 51 44 36 30 27 22 26 18 9 8 8 7 6 17 14 18 25 97 97 97 100 87 75 54 57 61 67 48 48 50 45 41 34 29 23 19 16 14 13 13
13 20 30 33 31 42 48 50 50 48 47 34 27 16 14 11 8 7 8 8 4 16 24 10 13 21 97 96 97 94 90 72 60 55 59 68 65 54 53 50 43 37 29 23 21 16 15 14 14
17 30 30 25 25 21 38 43 45 40 36 35 21 20 15 10 8 8 8 8 4 11 9 18 20 12 98 96 93 98 84 79 70 57 57 64 68 57 58 52 44 38 28 22 20 18 15 14 15
20 19 19 21 19 16 20 31 35 33 28 24 21 16 12 10 8 9 7 5 4 5 31 50 14 24 90 96 96 95 97 77 71 77 58 54 68 68 62 54 47 38 31 22 20 18 14 15 15
21 17 19 16 14 15 18 18 21 20 17 15 18 19 14 11 10 9 6 5 29 20 88 57 37 11 49 96 97 94 97 97 92 77 78 70 78 74 66 61 50 41 33 23 19 18 15 15 16
24 14 11 12 12 13 14 15 15 17 18 16 11 9 9 10 9 6 5 5 91 70 99 96 95 37 25 96 93 96 97 96 96 92 95 93 80 76 73 64 54 45 35 27 22 18 16 16 16
9 18 39 64 47 36 25 22 19 11 10 12 14 16 12 11 9 6 6 29 96 91 98 94 90 75 27 95 96 96 97 98 97 92 98 97 83 82 82 70 62 53 43 31 24 18 17 17 28
59 65 73 48 54 52 60 61 49 18 22 27 30 22 18 14 14 13 19 60 86 98 75 81 90 95 68 93 97 96 96 97 96 94 96 98 92 91 93 83 74 58 46 33 26 19 24 57 45
72 55 48 61 66 69 84 78 64 76 100 100 66 57 28 27 26 25 28 36 62 79 89 97 98 96 87 84 97 98 96 96 96 97 97 96 96 97 97 96 89 82 60 30 31 88 84 82 75
54 58 73 53 31 54 91 100 62 93 96 100 99 83 31 44 35 83 54 38 57 43 95 98 100 100 90 92 95 97 92 96 96 97 96 97 97 97 97 97 97 94 84 63 90 95 97 94 94
67 94 70 55 29 37 46 49 44 42 76 96 92 86 52 78 93 99 100 80 40 60 96 100 99 100 100 91 91 96 92 96 96 96 96 96 96 98 96 96 98 98 96 98 95 94 97 94 97
97 95 84 76 57 44 59 70 37 48 56 63 40 46 61 92 97 99 91 65 66 62 96 96 98 95 97 97 97 94 94 98 97 92 95 97 96 96 94 95 96 96 97 96 91 92 97 97 97
97 100 100 85 81 62 90 87 31 26 26 33 64 90 90 92 99 98 83 94 81 90 94 96 96 97 97 97 92 96 99 95 97 96 97 97 96 95 96 97 96 97 96 95 94 94 97 96 93
100 100 100 100 98 100 91 98 72 89 92 91 94 92 88 94 96 95 96 95 98 98 98 99 97 97 95 95 97 97 96 95 96 96 95 96 97 96 96 97 97 94 93 98 99 97 97 92 81
100 100 100 100 100 98 97 99 100 93 79 99 100 90 98 98 97 95 98 94 98 97 97 98 99 96 97 96 96 96 97 98 96 97 97 96 96 97 99 96 95 98 97 100 98 99 97 90 76
100 99 100 88 94 95 97 90 100 100 96 91 100 86 93 99 99 95 97 98 98 98 97 97 96 95 95 95 95 96 97 98 97 98 96 97 98 98 99 90 99 100 98 97 99 100 91 100 88
100 98 98 99 100 98 100 99 98 99 98 99 99 99 88 98 96 99 96 97 98 98 99 98 91 91 93 93 95 95 95 94 95 95 96 97 99 91 94 98 98 97 95 96 99 93 99 97 93
97 100 99 92 88 95 96 92 95 98 100 99 97 100 97 99 98 97 97 97 98 96 92 94 93 94 95 96 94 92 88 95 94 93 96 94 91 92 95 86 92 93 94 96 86 96 94 95 96
88 76 81 84 77 80 88 80 87 99 97 87 79 94 96 96 98 98 95 94 81 72 86 84 81 85 86 69 68 67 73 84 86 86 85 90 90 89 91 92 94 90 89 88 95 82 80 69 76

GFSSGP_500_rhum_090.txt.gz
RH
12 11 11 11 14 14 16 19 21 23 22 20 17 13 10 10 10 8 7 8 7 6 5 5 6 13 21 16 18 16 15 16 18 18 17 17 22 23 18 14 12 7 4 6 9 11 11 13 12
12 11 10 10 12 13 17 24 28 29 26 21 19 17 14 11 10 10 11 11 10 8 6 5 5 7 11 22 19 18 16 16 16 18 19 19 21 25 21 16 14 13 7 6 9 11 11 12 12
13 15 14 9 8 8 12 22 26 27 27 25 21 19 18 14 11 10 11 11 12 11 9 6 5 6 8 12 25 23 18 18 18 18 19 20 20 27 24 19 17 16 13 8 9 10 11 11 11
30 24 24 12 10 11 13 17 22 21 24 24 23 22 21 18 14 11 10 10 12 13 12 9 13 10 15 11 12 26 24 20 21 21 22 20 19 26 28 23 19 19 18 14 10 10 12 12 10
37 38 31 17 18 18 19 26 25 19 23 26 23 24 25 22 19 15 11 11 11 13 15 17 23 35 31 27 12 14 28 24 22 24 24 23 22 22 30 27 23 20 20 19 15 11 12 12 10
7 26 36 35 34 34 34 40 33 28 19 23 20 22 24 26 24 20 16 11 10 13 32 33 37 35 53 48 46 17 17 29 24 25 26 28 25 23 29 29 26 23 21 21 20 14 12 12 11
4 4 9 32 41 42 48 50 42 37 30 30 20 17 22 23 25 24 22 55 18 12 13 28 50 22 56 62 50 40 25 38 30 26 30 31 29 28 24 33 31 26 25 21 21 18 14 13 11
6 5 4 4 16 43 55 51 48 43 37 36 29 22 20 22 25 27 22 16 15 12 34 21 49 57 41 60 58 57 48 55 44 30 31 34 33 29 24 33 35 32 30 24 22 20 17 14 13
9 8 6 5 4 7 44 49 52 48 44 41 36 32 28 27 27 28 25 20 15 10 7 10 37 45 52 64 54 72 65 77 69 43 34 35 35 32 31 33 37 34 32 28 21 20 18 16 14
12 10 9 8 7 5 5 30 57 53 49 47 41 36 34 31 30 30 30 24 15 11 8 8 10 46 60 70 73 75 78 59 88 66 49 41 45 39 37 34 38 38 43 36 22 19 18 17 15
13 14 14 11 8 6 5 7 25 52 54 53 45 42 38 36 34 33 33 26 22 13 8 7 8 7 18 43 23 64 96 58 70 90 59 52 52 55 43 35 40 40 41 47 27 20 19 17 17
13 15 16 12 8 6 5 5 14 30 48 56 53 43 43 40 38 35 34 34 26 13 11 8 9 11 9 10 15 23 66 82 53 86 77 52 56 48 80 52 47 47 39 35 30 22 18 17 17
13 15 16 11 8 8 8 6 15 20 39 56 55 49 39 42 41 40 35 35 32 18 7 8 8 7 8 7 17 47 36 98 70 66 92 56 53 53 74 59 54 49 45 39 31 24 18 16 16
14 16 18 14 11 8 7 10 16 17 33 48 54 55 49 44 42 39 33 28 19 12 9 9 8 7 5 5 9 54 97 82 67 98 94 70 61 90 80 94 59 51 48 43 36 27 21 17 16
17 18 20 19 12 9 8 7 19 24 24 30 50 52 51 48 44 42 37 30 17 10 7 8 8 9 9 5 8 23 77 98 98 83 85 75 64 92 77 82 72 56 50 46 40 33 24 17 15
19 19 21 15 11 10 10 11 17 16 23 23 34 44 44 45 44 42 37 33 24 8 8 8 8 8 8 6 11 13 25 95 97 86 85 78 79 72 76 89 83 66 56 52 47 40 30 20 14
24 20 13 13 15 16 13 12 14 15 16 17 29 32 32 34 32 34 34 31 15 10 8 12 10 8 6 7 9 16 12 84 97 93 94 85 83 88 75 96 86 74 62 57 52 42 29 18 14
14 14 13 12 12 10 10 14 18 11 13 16 17 23 25 24 24 23 24 22 18 10 8 9 13 24 19 18 40 26 22 94 96 95 95 90 94 94 91 95 97 76 72 66 55 40 27 17 15
12 28 57 50 44 34 49 48 48 20 19 13 13 15 20 22 18 16 24 45 36 18 16 38 52 63 74 65 46 50 38 87 96 95 96 97 97 93 94 86 84 79 77 71 50 38 31 22 17
59 58 54 58 54 32 46 61 64 53 31 15 12 11 13 16 15 17 72 46 46 18 82 86 59 71 71 79 61 74 39 88 97 97 96 96 96 96 95 95 92 95 92 86 75 61 36 27 18
57 71 74 51 21 26 44 70 55 54 49 67 34 28 31 64 58 24 72 65 68 71 74 72 89 65 62 77 93 88 57 86 96 97 96 96 98 95 96 97 96 95 96 95 95 85 75 52 75
53 61 61 55 36 36 34 54 61 84 92 88 91 100 99 72 37 76 47 80 91 83 98 82 78 84 98 91 94 95 91 89 98 96 97 96 96 96 97 95 97 97 98 100 99 96 96 95 97
62 73 78 59 55 71 91 48 47 69 83 90 100 100 85 63 54 60 99 100 100 89 66 66 75 96 96 97 96 97 100 87 95 96 96 97 96 96 97 97 97 97 97 96 95 97 97 97 95
88 98 100 100 99 85 96 79 40 47 51 54 56 44 59 68 62 87 100 96 87 86 42 49 90 98 95 97 98 97 98 91 95 97 96 96 97 97 97 96 97 97 97 97 96 96 97 96 96
94 94 100 100 100 100 100 99 30 26 30 36 53 79 72 80 97 100 100 94 66 63 54 78 95 96 97 97 97 96 98 97 95 96 97 97 97 97 97 96 97 97 97 97 96 97 97 97 98
99 100 99 100 100 100 99 99 86 88 91 98 100 93 95 99 96 96 99 99 98 98 92 76 96 95 98 97 97 97 96 96 97 96 98 96 97 97 96 96 97 96 96 97 96 97 96 95 96
100 98 98 98 100 100 95 80 80 94 99 92 97 99 99 98 97 99 100 99 98 98 98 97 98 98 97 97 97 96 98 100 98 96 98 97 97 94 96 97 97 93 94 96 97 97 97 96 98
100 100 96 97 100 98 99 97 98 93 92 88 96 97 98 98 99 98 98 97 98 97 98 97 97 96 96 97 96 96 96 100 97 93 97 97 98 97 97 98 98 92 97 97 98 97 98 96 98
100 99 98 100 100 98 98 93 92 98 98 98 99 98 98 98 97 98 98 98 98 92 92 88 86 89 92 92 95 96 96 95 96 95 98 96 96 97 98 97 98 95 95 95 96 96 96 95 99
95 86 90 100 98 91 93 92 97 80 89 93 98 97 98 97 96 97 98 96 80 56 61 79 85 82 79 80 66 61 67 62 61 76 78 84 90 90 94 94 95 96 96 88 84 94 91 91 95

GFSSGP_500_rhum_093.txt.gz
RH
10 11 11 11 11 10 12 14 17 21 20 20 18 17 16 12 10 9 9 9 6 4 3 4 5 5 13 14 15 17 16 15 14 14 17 16 17 18 23 19 14 9 9 5 6 10 11 12 15
14 12 10 10 10 10 12 17 22 22 20 21 20 19 18 17 13 11 10 10 10 8 6 4 4 4 4 10 12 14 17 17 15 14 15 18 18 18 21 23 17 14 12 10 6 9 11 12 13
24 17 12 9 8 9 12 17 20 19 20 23 24 23 21 19 18 14 10 10 11 11 11 8 5 4 4 4 7 11 13 15 16 15 14 14 18 19 19 23 22 17 15 14 12 9 10 11 11
30 31 25 18 15 13 18 21 19 19 16 16 19 22 23 23 21 18 14 10 10 11 12 12 10 7 6 5 5 6 8 12 13 16 15 14 15 19 20 22 24 20 18 16 15 14 11 12 11
5 14 27 26 29 32 29 27 24 21 15 12 12 18 21 23 23 22 20 14 12 11 11 13 16 16 12 14 13 15 15 10 11 14 17 16 16 15 21 20 23 24 20 19 18 16 16 12 12
4 4 5 9 21 38 45 40 28 27 21 17 13 12 14 19 21 23 23 19 15 42 13 11 17 17 21 31 29 33 24 21 12 12 17 20 18 18 17 21 22 27 25 21 20 19 17 16 12
7 6 5 4 4 6 32 48 41 35 32 24 22 21 18 14 14 17 23 25 20 59 57 21 13 16 28 34 38 35 37 32 26 18 22 24 22 18 22 20 22 28 29 25 22 21 21 17 15
10 9 8 7 6 4 4 11 41 42 45 44 39 30 28 24 20 17 17 21 24 43 68 68 68 32 24 34 28 37 37 38 36 32 28 30 28 24 20 24 24 30 33 30 26 24 23 21 16
10 10 10 10 9 8 7 5 5 24 48 52 51 43 36 34 29 22 18 20 24 25 24 49 45 74 78 78 54 46 44 38 35 41 39 44 40 32 28 25 30 33 36 34 31 29 24 22 19
10 10 11 11 11 10 10 8 7 5 8 52 55 54 48 41 36 30 25 24 25 25 25 22 16 12 24 69 87 88 77 53 43 47 54 53 52 44 38 31 29 34 34 37 34 32 26 20 19
9 9 10 11 13 13 12 12 9 5 4 7 49 56 52 49 43 35 32 30 29 30 30 26 16 11 9 10 35 59 76 71 46 48 62 65 60 54 50 37 31 31 37 39 37 38 28 21 18
10 10 11 12 12 13 14 13 10 6 5 5 8 44 61 54 49 44 37 33 32 32 32 30 24 14 10 7 10 12 30 40 26 45 42 63 60 66 51 62 42 34 37 41 41 45 46 26 19
17 16 16 15 14 14 14 15 13 7 6 6 6 11 47 56 53 49 44 40 36 35 35 34 29 22 12 8 8 10 11 10 14 26 28 38 83 57 63 65 70 60 38 40 42 43 45 39 23
23 22 21 22 21 20 19 16 15 10 11 9 9 7 22 53 54 52 48 45 41 37 37 36 31 23 15 11 9 8 9 8 11 35 40 37 67 61 82 64 79 93 95 68 53 43 37 34 28
32 31 30 28 26 26 25 21 16 16 12 10 9 10 16 32 58 51 51 47 45 42 36 36 31 23 15 8 8 8 7 10 14 12 38 31 72 64 77 86 94 68 97 98 54 45 44 38 31
39 35 30 30 29 29 27 21 19 17 14 11 10 9 11 22 40 57 54 49 46 44 41 32 28 15 12 9 8 7 7 10 12 11 11 68 80 93 60 84 78 81 78 96 86 51 48 46 37
40 36 33 31 26 24 23 20 18 16 13 10 9 10 10 19 24 42 54 54 50 48 46 40 30 16 11 8 8 8 8 11 8 10 14 86 93 79 66 77 98 96 96 96 84 69 54 50 42
38 29 23 18 15 13 12 11 11 10 9 8 9 10 12 13 23 24 35 51 52 51 48 43 30 18 16 9 9 8 10 11 8 8 11 69 95 94 92 90 93 82 75 96 85 89 67 57 51
17 13 12 15 15 24 54 21 57 28 15 28 9 9 11 14 18 20 21 38 47 45 41 34 31 26 18 10 9 11 12 11 12 12 10 15 57 88 97 94 94 97 86 97 99 94 91 65 60
16 26 29 51 46 28 25 28 39 54 60 44 32 20 13 12 16 18 20 28 33 29 38 63 49 22 17 10 10 15 25 25 47 29 22 42 97 98 97 95 96 83 95 94 96 98 96 77 69
27 44 53 47 39 36 42 40 62 60 78 52 40 25 18 14 15 25 20 23 21 32 48 61 38 27 22 28 49 31 42 37 40 69 75 94 93 91 96 96 96 94 89 91 97 96 96 86 64
38 56 62 60 43 51 86 51 80 74 81 98 100 100 80 68 29 30 32 32 23 47 63 40 33 27 58 77 46 33 36 64 76 66 96 98 84 97 96 96 97 97 95 95 95 95 94 87 93
64 60 74 94 96 80 94 75 84 87 100 100 100 100 100 100 91 77 53 26 35 58 45 51 56 62 67 53 67 72 68 88 100 76 97 97 96 96 97 95 96 97 97 97 96 96 98 96 96
81 80 79 95 100 100 96 56 49 56 80 92 100 95 76 64 49 83 75 82 74 80 84 87 80 81 66 74 91 97 90 94 89 97 97 98 96 96 97 97 96 95 95 97 96 97 96 98 98
85 81 74 79 100 99 97 93 28 35 47 63 46 60 62 81 96 99 98 84 70 47 52 66 73 79 91 82 97 97 95 96 97 97 97 97 96 96 96 96 97 97 96 97 100 96 95 96 96
90 94 81 87 100 100 100 98 76 67 64 77 93 87 80 86 100 100 100 100 69 93 99 100 61 67 87 96 96 96 98 96 97 97 97 96 97 97 97 97 96 96 97 97 98 97 96 97 97
97 100 92 98 98 99 93 96 95 98 98 98 97 97 99 96 97 98 98 99 99 98 98 98 93 85 94 94 93 97 97 94 92 96 96 97 97 97 96 97 97 97 97 97 96 97 96 97 97
100 98 98 99 100 100 99 97 94 97 97 99 98 99 99 98 98 98 98 98 98 98 97 97 97 98 98 98 97 96 97 95 92 96 97 96 96 97 96 95 97 95 96 97 96 96 96 97 97
100 100 97 100 99 98 98 100 100 100 96 97 98 98 98 98 98 98 98 98 98 98 98 91 87 94 95 96 96 96 96 95 96 97 97 98 97 96 94 95 96 96 96 97 98 98 97 97 96
94 97 97 94 100 99 99 100 98 100 94 93 97 100 99 98 98 98 98 98 94 76 82 71 69 79 70 75 71 60 55 63 84 94 94 95 96 97 99 97 96 97 96 96 96 96 97 97 98

GFSSGP_500_rhum_096.txt.gz
RH
12 12 12 12 12 12 12 12 12 13 15 18 18 16 15 14 13 11 9 9 9 6 5 4 4 4 3 6 12 12 16 16 16 14 13 14 13 16 16 21 19 16 12 11 4 7 10 12 13
21 12 11 11 11 12 14 15 14 12 13 15 17 18 18 17 16 15 12 12 10 9 9 7 5 4 4 4 6 12 14 14 17 16 14 13 14 15 17 17 20 19 15 14 9 5 10 12 13
34 30 21 13 10 13 13 14 13 12 11 12 15 17 19 19 19 18 16 14 11 11 11 10 9 7 5 4 4 4 8 12 13 16 16 14 14 15 17 18 18 21 19 16 15 11 8 12 13
10 26 32 29 27 24 20 16 15 13 10 9 10 15 18 18 20 21 19 18 16 12 11 11 11 11 10 8 6 4 4 4 8 11 14 16 16 14 14 18 19 19 22 19 17 16 13 11 13
4 4 9 13 22 36 36 31 24 18 13 11 9 9 12 15 19 22 23 21 25 16 11 12 11 12 12 12 10 8 6 5 6 8 10 12 14 15 15 14 18 19 20 23 19 18 17 15 14
6 6 6 6 4 6 16 27 34 33 24 16 14 12 10 11 13 19 23 24 28 34 25 14 34 28 18 21 18 17 15 13 11 9 12 12 12 13 13 15 16 19 20 23 24 20 19 19 17
7 8 8 7 6 6 4 4 6 24 36 30 22 20 18 14 12 13 19 22 23 32 56 48 35 49 24 19 22 21 20 28 28 22 16 12 11 13 17 14 14 17 21 24 28 25 21 21 21
7 7 8 9 10 9 8 7 5 4 5 31 37 30 27 27 22 16 16 18 20 22 26 61 59 71 33 11 14 25 27 30 34 34 33 26 18 13 14 20 18 17 19 22 28 30 25 22 22
6 6 7 9 9 9 10 10 9 8 7 4 11 36 40 38 34 30 23 22 21 21 24 28 59 74 85 75 34 20 26 27 32 34 35 28 30 29 22 23 22 22 21 22 24 32 30 26 24
6 6 7 8 8 8 9 11 12 11 9 7 6 4 23 44 44 42 37 34 29 25 23 24 28 49 66 86 83 63 48 41 32 34 38 34 29 32 30 30 29 27 26 28 25 29 36 32 29
7 7 7 8 8 8 9 10 10 11 12 13 9 5 4 5 37 45 43 40 38 33 27 25 24 31 29 39 28 25 28 56 55 50 39 35 34 37 42 48 37 35 30 33 37 31 34 35 33
8 8 9 9 10 10 10 11 12 12 10 15 15 10 5 4 4 11 47 45 39 39 34 28 27 27 28 28 22 15 14 11 40 67 62 45 43 44 50 60 56 44 42 35 40 39 33 35 35
12 13 13 12 14 15 15 15 15 11 14 17 17 16 10 6 6 5 6 44 47 45 42 34 31 30 28 28 24 15 9 10 10 14 20 27 19 12 14 52 71 66 57 44 46 48 40 34 37
20 21 21 20 20 20 20 18 16 15 16 14 15 16 16 9 7 7 6 7 46 50 46 42 35 33 33 32 24 17 13 11 8 10 12 11 9 9 18 42 81 90 73 62 54 45 44 36 35
26 24 24 26 26 24 21 20 21 20 19 16 14 14 19 16 11 9 8 6 7 45 52 48 44 38 34 31 28 22 17 12 10 9 10 10 11 10 18 14 46 96 84 72 69 58 65 53 46
41 38 35 38 36 34 30 25 26 25 21 16 11 12 18 18 16 13 11 9 7 13 48 56 50 43 39 36 29 27 21 16 13 10 9 9 9 11 17 20 37 57 89 95 75 79 97 93 91
52 52 46 45 39 34 30 21 21 17 14 11 8 13 18 20 18 16 14 12 9 11 30 55 56 51 41 39 37 32 29 21 14 9 9 8 9 8 7 15 40 36 93 97 97 89 74 96 79
50 43 37 32 27 21 17 14 12 12 9 8 11 13 12 12 13 13 12 12 10 10 19 42 58 58 50 42 41 37 28 22 15 9 9 7 10 10 8 8 12 44 68 75 78 92 98 95 96
40 32 24 17 14 13 13 15 16 21 16 16 14 9 8 8 8 7 7 9 11 11 18 24 48 58 57 46 41 39 32 17 11 8 8 8 10 11 8 8 10 19 59 77 98 95 73 94 98
21 16 13 15 17 17 23 31 32 40 21 21 38 38 31 18 10 8 8 12 14 13 16 24 34 52 52 43 46 43 33 24 17 9 8 11 12 11 9 10 9 22 75 80 97 77 89 96 94
14 16 21 24 27 38 44 48 61 51 65 59 56 57 40 26 18 13 11 14 16 15 19 23 37 38 41 42 39 39 37 29 17 10 10 20 14 10 58 93 48 62 97 96 94 96 86 92 96
20 29 35 43 51 68 87 66 65 85 97 83 96 96 72 52 66 39 75 48 19 19 22 24 33 34 34 28 29 29 27 22 15 19 23 28 25 25 28 95 98 100 99 92 98 98 96 97 96
37 35 44 53 64 75 99 100 61 59 96 100 100 100 100 100 100 100 72 64 28 38 33 24 22 23 40 46 33 27 24 24 49 27 31 69 65 70 92 98 100 97 96 95 98 96 96 97 97
37 55 55 53 63 92 86 91 92 46 71 100 100 100 99 93 98 83 88 67 40 28 22 21 23 30 32 28 25 30 33 60 66 71 83 86 94 98 97 96 97 98 96 97 97 96 96 97 96
54 73 75 68 80 93 95 92 60 30 45 83 82 70 77 83 82 95 100 87 68 78 81 73 66 74 86 93 94 59 73 96 95 86 80 79 95 96 97 95 98 91 96 97 97 96 96 96 96
91 94 82 78 91 99 100 95 94 76 67 83 86 96 99 100 100 99 100 100 99 70 63 58 60 55 60 66 96 86 96 96 98 96 96 96 96 95 96 96 97 97 97 97 97 97 97 96 97
90 98 99 92 94 98 98 99 98 99 98 96 98 99 100 98 98 98 100 100 90 99 99 99 99 99 99 88 88 88 94 89 82 94 96 98 96 97 97 97 97 97 97 96 96 96 96 97 96
96 94 94 95 97 98 99 98 99 98 98 98 98 97 99 98 98 99 98 99 97 98 98 98 98 98 100 96 91 96 95 98 98 94 93 96 98 97 97 97 97 97 96 96 97 97 97 97 97
100 99 99 100 100 100 97 99 99 99 99 100 96 98 95 97 98 97 98 98 98 98 98 98 98 98 98 97 96 91 93 96 97 94 94 97 98 96 96 96 95 96 97 96 95 96 96 96 96
81 89 90 94 100 95 97 97 95 97 99 98 78 90 96 97 97 97 98 98 98 98 99 96 94 99 93 97 100 96 96 98 99 100 100 98 97 99 98 96 94 95 96 97 97 97 97 97 98

GFSSGP_500_rhum_099.txt.gz
RH
12 12 11 12 11 10 10 10 10 10 10 13 14 16 17 16 14 12 11 10 10 9 8 6 7 5 6 3 4 9 11 13 16 17 15 14 15 13 14 14 18 18 15 12 9 5 9 12 14
18 19 13 11 11 12 11 10 10 10 9 10 12 14 16 17 16 15 14 13 10 10 9 9 8 7 7 6 7 4 7 12 12 15 16 15 14 14 14 15 15 18 18 16 13 9 7 12 13
32 29 28 24 17 14 12 11 10 10 10 10 10 11 14 16 17 18 17 16 15 12 11 10 10 10 14 12 7 7 5 4 10 14 17 18 16 14 14 16 16 16 17 18 16 15 12 10 13
20 30 35 35 34 27 20 14 11 10 10 10 10 11 12 14 16 18 19 19 18 17 14 12 12 12 20 19 12 13 9 8 4 5 11 16 17 17 15 14 16 17 18 18 19 17 16 16 12
4 5 6 12 21 30 30 28 24 19 14 11 10 9 9 11 13 16 18 20 22 28 20 16 17 13 17 19 22 15 14 18 12 6 5 9 12 13 15 16 15 14 17 19 20 21 18 18 17
5 6 5 5 7 6 8 13 21 29 29 25 19 13 9 9 10 14 16 19 22 24 32 53 36 21 15 22 16 14 14 15 18 16 10 6 6 11 12 14 14 14 15 18 20 22 22 19 19
6 6 7 8 8 8 7 7 6 5 9 21 28 27 20 14 11 10 14 16 19 21 24 36 60 52 25 20 42 30 24 25 25 25 22 23 17 10 29 22 17 14 13 14 18 22 24 24 20
6 6 6 7 8 8 8 9 9 8 6 6 7 15 31 30 24 16 13 14 17 20 21 32 38 54 53 47 34 46 30 18 20 20 21 24 31 26 19 22 18 19 18 15 14 18 24 27 25
6 5 6 6 7 8 8 9 8 8 9 7 6 6 6 12 29 34 28 19 17 18 21 23 26 50 42 60 61 64 38 19 16 17 19 22 30 35 32 27 22 18 17 22 18 16 20 28 31
5 6 6 6 6 6 7 7 7 8 8 9 8 7 7 6 5 8 31 39 29 21 20 22 26 27 28 51 48 90 72 44 35 28 23 22 26 34 32 27 27 25 25 24 26 22 20 27 31
6 6 6 6 6 6 7 7 7 8 7 7 7 7 7 8 7 6 5 8 31 39 32 29 26 25 24 35 64 70 76 62 58 40 35 34 32 33 34 34 34 29 27 30 30 28 29 30 33
9 8 7 7 7 7 7 8 9 8 8 10 9 6 6 5 7 7 6 4 4 9 40 42 38 33 28 32 45 40 87 66 64 50 34 36 42 37 36 37 36 38 36 40 41 38 34 35 39
14 12 11 9 9 8 8 9 9 10 12 10 10 8 7 6 5 6 9 6 5 4 4 27 46 44 37 48 32 36 92 46 37 26 27 16 19 48 52 50 42 40 42 57 60 58 43 38 40
18 16 14 13 13 12 11 12 12 14 14 15 14 13 11 10 8 6 5 9 9 5 6 4 13 48 48 41 33 30 63 33 29 25 33 14 31 29 23 24 43 30 22 43 55 72 74 54 39
24 22 22 20 18 18 14 15 19 21 17 14 14 15 17 14 10 7 6 4 8 10 6 6 6 7 48 51 41 35 86 57 35 28 25 22 14 21 11 13 13 11 17 33 54 88 85 73 61
34 33 33 31 30 26 25 24 34 25 20 17 18 21 19 15 13 10 10 9 6 9 10 8 8 6 9 52 51 39 35 42 46 34 31 22 19 12 12 13 11 10 9 13 34 72 89 97 89
47 46 47 46 41 38 38 34 32 28 25 22 22 21 19 17 15 12 9 8 10 10 15 13 9 9 8 12 57 50 39 35 33 32 29 26 21 17 11 10 12 9 9 9 11 26 43 86 95
58 56 48 41 35 31 26 21 18 16 14 12 12 12 12 13 10 7 7 8 8 13 18 17 14 11 10 8 24 60 50 40 33 30 30 29 25 19 18 13 9 9 8 8 8 10 31 49 88
51 42 35 30 24 19 15 13 11 10 10 10 9 9 8 7 8 8 8 6 7 13 20 20 19 15 11 9 12 46 60 51 38 33 31 29 29 27 24 14 9 8 10 11 9 8 9 17 82
36 33 24 20 15 11 12 18 19 30 34 28 29 21 16 18 18 17 15 9 7 9 11 12 12 11 10 10 14 24 57 58 49 44 41 35 30 24 22 13 9 8 10 12 10 8 8 12 52
29 20 14 11 14 29 32 37 43 43 51 40 51 56 59 49 34 31 21 14 9 8 8 8 7 9 16 11 18 26 46 58 56 50 44 39 32 21 13 10 9 10 12 13 12 12 14 31 54
14 12 17 28 29 30 40 35 60 56 49 39 72 80 98 100 68 72 53 24 15 11 13 34 26 26 17 23 25 27 44 52 52 50 47 43 37 30 19 13 13 13 13 10 24 85 90 51 66
18 32 37 32 35 36 50 46 70 65 38 49 79 98 99 100 100 100 100 100 61 50 27 24 17 28 27 25 26 39 38 36 35 33 35 35 33 26 18 16 16 17 33 34 46 96 100 86 99
38 40 55 52 44 37 53 58 70 59 41 72 91 98 96 100 100 100 100 100 99 57 28 23 21 24 28 34 32 31 40 30 26 29 28 26 22 27 32 40 34 54 49 89 94 99 97 98 94
56 62 50 50 52 55 63 83 93 90 66 44 66 87 88 94 98 94 77 62 50 38 37 30 31 31 30 58 84 83 55 51 33 38 46 54 51 73 74 78 83 97 97 98 97 96 96 96 97
63 57 59 61 64 65 82 92 98 99 98 93 97 95 90 93 98 98 100 100 99 93 80 83 83 81 75 77 85 96 97 98 89 79 89 97 81 83 81 78 92 98 96 97 92 97 98 97 98
59 55 60 70 74 84 89 98 100 98 100 100 97 97 98 98 98 100 100 100 100 98 99 99 98 96 98 98 71 75 76 85 84 88 86 85 93 87 92 90 96 96 98 97 96 97 97 97 97
65 64 70 68 72 82 93 98 99 98 98 100 100 99 98 99 98 98 98 98 100 100 99 99 99 99 100 100 98 99 100 97 95 97 98 94 95 91 98 97 98 97 96 97 96 97 96 96 96
89 90 90 84 92 92 90 98 98 99 99 100 100 98 98 98 98 98 98 98 97 99 98 98 98 99 99 98 99 98 98 98 97 98 98 97 96 96 98 98 97 96 96 96 96 96 96 96 96
62 62 72 89 96 97 95 98 95 99 98 100 100 100 100 100 96 98 99 99 99 99 99 98 98 98 97 95 97 97 97 98 96 95 94 94 95 96 97 96 94 99 97 100 97 97 97 98 97

GFSSGP_500_rhum_102.txt.gz
RH
12 12 11 10 10 10 9 8 8 9 9 10 12 14 15 15 14 13 13 11 10 9 9 10 7 12 9 5 5 4 7 12 13 15 17 17 15 15 14 14 14 16 15 13 12 6 7 10 13
12 12 12 11 11 10 9 9 9 9 9 9 10 12 14 15 16 16 15 14 13 12 14 19 11 10 29 23 14 8 7 5 10 14 14 16 17 15 14 14 15 14 16 16 14 14 7 7 12
16 16 16 15 15 14 10 9 9 9 9 10 9 9 10 12 15 16 17 16 15 15 19 22 15 14 13 22 24 21 12 7 6 8 14 15 15 16 16 14 14 16 16 15 17 15 15 12 9
28 29 28 28 23 18 17 14 9 9 9 9 10 10 10 10 11 14 16 17 17 17 19 34 15 26 23 27 28 28 18 17 10 8 6 6 15 16 18 17 14 14 16 17 16 17 17 16 16
20 22 27 32 33 31 30 27 26 19 13 10 9 9 9 10 10 11 14 16 17 18 19 26 37 24 31 32 38 32 30 29 22 22 18 8 6 16 16 16 17 16 14 15 18 18 17 17 17
5 5 5 6 9 17 24 29 31 31 29 21 14 11 10 9 9 10 10 12 16 18 19 20 35 50 34 34 38 31 36 36 38 40 33 27 14 8 13 17 16 14 15 15 14 16 18 19 19
6 5 5 6 5 6 7 7 7 9 14 24 28 26 20 15 11 10 10 9 10 14 20 22 23 32 58 52 45 29 23 26 19 21 27 25 31 24 20 30 28 20 14 14 14 14 15 18 20
6 6 6 6 7 7 7 8 8 8 8 7 7 9 18 25 26 21 15 12 11 11 12 15 24 28 32 60 58 46 26 27 40 31 26 28 26 26 24 28 25 38 48 26 18 14 14 15 18
6 6 6 6 6 6 6 7 7 7 6 7 6 6 7 7 10 17 25 26 18 13 14 14 15 21 28 35 59 57 49 40 31 43 38 21 19 19 20 25 32 26 36 45 29 23 19 16 17
5 5 5 6 6 6 6 6 6 7 6 7 6 7 6 6 6 6 7 9 18 27 23 17 18 18 20 28 33 51 70 64 50 46 46 26 22 23 19 23 28 35 37 34 41 32 26 24 21
5 5 5 5 5 6 6 6 6 6 7 8 7 6 6 5 4 4 5 6 6 6 11 30 26 24 24 23 24 32 44 54 66 52 56 44 40 43 30 23 25 32 34 33 36 36 30 28 27
6 6 6 6 5 5 6 6 6 6 7 7 7 7 6 6 5 5 5 4 4 5 5 5 12 33 33 32 28 26 26 44 100 73 70 55 46 43 33 33 37 42 36 36 37 37 36 34 31
8 10 10 9 8 7 6 7 7 7 7 8 8 8 8 7 7 7 6 7 6 5 4 6 5 5 15 39 43 38 28 29 49 100 78 61 63 58 49 30 35 44 57 59 38 37 41 46 46
17 16 15 14 13 11 9 10 9 10 9 9 9 10 10 10 10 11 10 9 8 8 6 5 5 5 5 5 36 50 45 35 30 47 47 98 85 64 38 37 28 35 57 68 60 54 45 47 48
22 20 18 17 16 13 13 13 13 11 9 9 10 12 12 11 10 10 11 12 12 11 9 7 5 4 7 5 5 23 54 52 39 40 33 88 86 48 30 29 48 23 26 32 59 64 44 22 27
27 26 25 24 22 20 21 22 22 19 18 18 16 14 13 13 13 12 11 11 12 14 12 10 7 5 4 8 6 6 11 54 54 44 38 46 70 47 33 27 29 22 19 26 34 42 24 19 17
33 33 35 34 33 36 39 41 36 32 29 27 25 24 23 22 20 20 18 17 18 19 18 12 10 8 7 4 10 9 7 9 53 55 43 36 65 75 43 39 29 24 13 10 17 26 20 15 18
44 43 44 44 44 48 44 37 31 27 23 19 16 16 15 15 15 15 15 14 14 16 18 18 15 12 11 7 5 14 12 9 9 46 56 42 45 53 46 41 33 28 22 19 11 9 11 11 11
53 55 57 53 47 34 26 22 18 13 11 10 8 8 8 7 7 7 8 8 9 9 10 14 12 10 11 11 8 9 17 15 12 9 42 58 41 36 38 34 32 30 27 24 20 13 9 9 11
68 59 46 35 26 19 14 10 9 11 15 18 22 26 27 29 25 18 15 12 11 8 6 6 9 10 9 10 10 14 20 18 14 10 10 42 59 44 37 35 32 30 30 30 28 20 10 9 9
48 37 30 21 14 9 8 9 21 27 32 36 41 46 40 34 42 31 24 20 16 14 11 9 9 9 8 8 10 19 20 16 12 12 11 17 50 57 46 38 36 36 37 36 30 19 9 8 9
32 23 15 10 12 19 23 17 33 38 43 51 39 40 42 54 64 98 95 95 74 26 21 20 59 45 70 53 16 13 14 13 13 12 17 21 45 57 54 49 46 43 38 32 20 13 9 10 12
17 11 14 21 25 35 34 31 38 39 55 79 52 69 66 67 74 93 99 100 100 82 50 68 88 100 100 100 35 28 18 18 14 15 22 41 54 56 53 50 48 44 39 30 24 17 15 17 15
16 23 26 42 46 46 38 46 56 50 72 99 81 68 80 75 77 92 99 100 100 99 78 100 100 100 100 100 75 38 21 19 24 34 38 43 45 48 47 45 42 40 39 34 22 17 16 19 23
29 56 59 54 49 40 39 48 58 66 81 76 95 94 70 80 82 86 87 78 81 85 61 62 69 72 62 36 24 23 34 45 56 55 45 34 34 34 35 31 27 25 25 33 38 31 36 42 61
64 55 43 41 43 49 60 64 67 73 78 77 84 99 97 94 97 100 100 100 100 94 77 49 38 36 32 30 31 47 97 98 99 94 94 78 48 61 88 88 87 97 53 74 88 99 86 79 98
52 46 51 52 55 61 63 74 81 84 91 96 97 96 91 93 92 91 95 94 96 100 100 98 97 94 83 68 69 84 98 94 97 96 76 93 81 88 96 98 99 99 98 94 92 96 98 98 98
54 58 60 61 60 67 72 79 83 88 89 90 94 91 91 90 84 85 91 88 98 100 99 100 100 100 99 99 97 85 84 83 80 92 98 98 99 100 100 98 98 97 98 97 97 97 96 96 97
63 70 68 70 74 81 80 89 86 93 96 96 98 100 100 100 97 97 97 96 96 99 99 97 98 98 99 99 99 99 98 98 98 97 98 98 98 100 100 97 97 98 98 97 97 98 97 98 96
34 32 39 50 60 66 72 77 72 78 87 88 94 98 97 96 95 96 100 99 98 99 99 99 99 98 98 98 98 98 97 97 97 98 97 95 95 97 96 97 99 98 97 97 97 97 97 95 99

GFSSGP_500_rhum_105.txt.gz
RH
13 13 12 12 11 10 9 8 8 8 8 9 10 12 14 15 15 14 15 14 13 12 10 9 10 8 9 8 4 5 7 8 12 16 16 18 18 16 15 13 13 14 17 15 13 10 5 8 12
18 15 12 12 11 10 12 8 9 8 8 8 8 9 10 12 14 15 15 16 15 14 13 15 20 23 11 15 33 19 13 9 8 6 10 15 16 16 17 15 15 14 14 16 16 13 12 6 9
20 19 16 12 12 12 11 8 9 10 9 8 8 9 9 10 12 14 15 15 16 16 16 18 20 34 34 27 27 34 28 25 12 7 8 10 15 16 15 17 15 14 14 15 16 16 14 14 8
20 18 17 16 15 13 13 12 10 10 9 9 9 8 9 9 10 10 11 14 15 16 18 17 19 33 35 31 38 32 35 27 22 18 12 11 7 9 16 17 17 16 14 14 16 15 15 16 15
23 21 20 18 18 19 21 20 18 15 12 10 9 8 9 10 10 10 10 10 11 14 16 18 18 18 37 32 34 47 42 38 33 27 24 24 18 8 7 11 18 19 18 16 14 16 17 15 15
22 24 27 29 27 27 27 28 28 26 22 19 16 12 9 9 9 10 10 10 10 10 12 15 17 19 20 42 34 40 42 47 43 40 41 40 40 26 19 16 13 15 23 19 16 15 15 17 17
7 9 10 11 14 16 17 23 27 29 31 30 30 26 19 14 11 10 10 10 10 10 10 12 14 19 22 24 49 43 37 44 41 39 39 41 49 33 33 37 21 18 36 35 20 15 16 15 15
5 6 5 5 6 6 6 7 8 8 8 10 13 19 25 26 24 19 15 12 10 10 10 10 10 21 22 23 29 42 59 47 46 38 28 39 26 34 33 38 29 29 31 31 26 26 16 15 14
5 5 6 6 6 6 7 7 7 8 8 8 8 8 8 8 10 13 18 22 24 19 14 12 11 12 13 25 23 33 38 58 54 48 26 23 37 39 36 28 26 25 27 32 31 30 25 24 17
6 6 6 6 6 6 6 6 6 6 6 7 6 5 4 4 4 4 4 5 6 9 16 23 23 17 14 15 21 22 24 33 40 56 52 38 30 36 44 31 19 19 25 34 36 34 36 32 33
5 6 6 6 5 5 5 5 5 5 6 6 6 5 5 5 5 4 4 4 4 4 4 5 7 11 18 24 21 19 19 22 28 34 49 55 50 52 51 44 28 30 31 25 35 44 42 35 29
5 5 5 5 5 5 5 5 5 5 5 5 6 6 6 6 6 6 5 6 5 5 5 5 4 4 4 6 9 24 30 21 20 23 29 42 43 40 57 70 48 40 40 39 42 49 48 42 35
5 5 5 5 5 5 5 5 5 6 5 6 6 6 6 7 7 7 7 7 7 6 6 6 6 6 5 4 4 5 7 26 32 25 23 25 60 90 49 74 58 57 54 49 54 68 69 67 50
8 7 6 6 6 6 8 8 8 8 8 7 7 7 7 7 8 8 8 8 8 9 9 9 8 8 8 7 5 5 5 6 14 36 36 31 26 74 97 71 84 70 60 64 53 52 64 64 72
19 15 12 10 9 9 11 14 13 12 11 11 10 10 9 9 8 8 8 8 9 9 9 9 9 10 10 10 8 6 5 5 7 12 32 43 38 31 36 95 79 89 92 62 39 53 58 66 74
29 26 24 22 19 18 17 16 13 14 14 14 13 14 17 17 15 14 11 10 10 9 9 9 9 9 9 10 12 10 6 6 9 6 6 28 51 47 39 32 45 55 96 59 31 39 40 50 70
35 32 29 26 25 23 23 24 24 24 27 30 30 29 30 29 26 24 21 20 20 18 16 13 12 13 13 13 13 13 10 8 9 7 7 6 15 51 53 43 42 38 89 64 42 30 40 46 46
44 40 37 34 32 32 32 38 43 38 39 36 32 27 24 21 19 18 17 16 15 15 15 16 17 18 17 19 20 19 15 16 12 8 7 10 8 7 36 56 49 42 44 78 53 36 29 29 23
56 50 45 42 40 42 46 46 39 33 26 20 16 11 9 8 8 8 8 8 9 9 10 10 11 12 13 16 20 22 22 19 17 14 9 8 12 9 7 12 52 53 42 43 87 58 36 32 27
91 83 68 58 54 50 39 28 22 15 10 8 8 9 10 11 11 10 12 11 9 9 9 8 7 8 9 7 9 15 19 19 20 16 13 13 14 14 11 8 7 42 55 42 44 37 35 33 31
85 78 67 53 39 26 18 12 9 10 11 14 20 28 36 42 44 39 30 30 32 24 16 15 10 9 9 10 10 15 12 27 32 20 15 15 19 19 16 11 7 6 31 55 46 38 35 33 32
62 55 39 27 17 11 9 8 13 17 24 29 37 52 59 70 55 40 38 49 70 68 75 64 28 21 23 35 36 61 24 24 43 26 17 20 22 20 17 10 7 6 13 49 54 42 42 44 38
46 30 19 11 10 16 22 23 32 32 36 41 44 59 70 73 56 54 56 60 78 93 98 72 40 40 51 72 85 78 91 100 91 66 18 18 18 18 12 10 8 8 26 52 59 52 59 66 59
24 14 10 18 28 28 33 40 37 38 46 47 44 50 67 67 60 65 76 79 82 92 98 80 66 81 99 100 100 97 98 100 100 63 18 13 12 12 10 12 16 31 49 59 64 74 76 66 43
11 16 30 33 37 47 48 41 41 61 58 60 52 54 67 60 75 91 99 100 100 97 70 79 88 97 97 100 100 100 100 99 76 17 14 14 21 24 30 34 37 44 48 50 52 53 52 40 38
25 46 43 45 47 45 44 52 57 60 61 64 63 66 68 78 87 84 90 94 95 100 100 79 64 72 88 91 91 94 100 88 52 46 49 48 56 49 60 50 65 54 47 40 37 38 57 34 64
52 46 48 49 45 50 58 60 66 70 69 69 76 77 72 81 86 90 82 92 83 96 99 100 99 98 98 90 49 49 60 57 92 99 99 94 95 99 98 90 67 65 62 99 97 96 98 86 81
54 56 55 50 52 57 62 70 71 79 84 83 85 86 92 95 94 96 92 85 81 87 96 90 90 96 98 98 99 95 97 98 95 88 85 68 92 98 97 99 96 100 100 99 97 99 97 98 98
58 57 59 63 56 60 57 59 62 69 71 74 72 73 71 69 70 75 71 81 92 94 94 95 92 100 96 90 93 100 97 89 92 98 98 97 96 97 97 94 97 98 99 97 98 97 97 97 98
21 20 23 26 29 35 40 39 36 34 43 53 65 61 60 56 58 52 40 38 68 96 99 99 98 71 85 98 98 99 99 99 98 98 97 98 97 94 91 90 97 98 97 97 97 97 97 97 97

GFSSGP_500_rhum_108.txt.gz
RH
11 12 12 12 11 10 11 11 8 10 9 9 9 10 11 13 14 15 15 15 14 14 13 11 10 9 9 7 10 9 8 13 12 16 23 23 20 22 19 16 14 12 14 16 15 12 7 6 10
15 15 13 12 12 10 12 9 8 8 9 9 8 8 9 10 11 13 15 15 15 16 15 14 13 15 25 26 16 18 23 16 12 17 15 26 30 17 16 16 17 15 14 14 15 16 14 11 6
21 22 19 17 16 13 11 8 7 9 9 9 8 8 8 9 9 10 11 13 14 15 16 17 17 19 19 34 34 29 36 36 30 20 12 12 20 13 14 16 16 17 16 15 15 15 16 14 14
23 20 20 19 19 16 13 9 9 10 9 9 9 9 8 8 10 10 10 10 11 12 14 16 19 20 25 23 34 33 34 34 41 31 22 14 11 12 8 10 15 15 16 17 15 15 16 16 16
30 24 23 21 20 17 15 15 13 11 12 11 11 9 9 9 9 9 9 10 9 9 10 11 14 18 19 20 24 38 31 40 46 39 36 30 21 20 16 8 6 10 16 17 18 17 15 17 16
32 30 26 23 23 22 18 18 18 17 18 19 17 15 12 10 9 9 9 10 10 10 10 10 11 14 17 18 20 22 36 33 40 45 47 45 42 40 41 30 18 8 8 12 18 22 18 16 15
29 32 31 29 27 25 23 23 21 23 24 24 26 23 21 18 15 12 10 9 10 10 9 10 10 11 13 17 17 18 19 38 40 38 44 42 40 42 48 58 40 35 28 23 20 14 22 19 17
13 11 15 19 22 24 25 25 25 26 26 25 25 25 25 29 26 27 24 18 14 12 11 10 10 10 10 11 26 23 21 24 30 49 51 49 46 34 41 38 33 36 34 30 27 26 29 28 27
5 6 6 7 9 8 8 8 8 8 8 8 9 10 13 12 14 16 19 21 23 24 23 22 19 15 12 11 13 24 38 31 27 29 38 51 55 46 30 25 35 38 39 32 28 27 22 27 31
5 5 5 6 6 6 6 6 7 8 8 7 7 7 7 7 6 6 5 5 5 6 6 8 12 17 19 21 20 18 16 22 30 26 32 39 48 58 56 37 26 29 43 38 24 26 26 24 32
6 5 6 5 6 6 6 7 7 6 6 6 5 5 5 5 4 4 4 4 4 4 4 4 4 4 4 5 7 9 13 19 21 24 25 23 26 32 47 58 49 41 36 46 31 20 28 30 30
6 6 6 6 6 6 6 6 5 5 5 5 5 5 5 5 5 5 5 6 6 5 5 5 5 5 4 4 4 4 3 4 7 21 22 22 16 17 23 28 54 58 48 56 59 38 40 34 39
5 6 6 6 6 6 5 5 5 5 5 5 5 5 5 5 6 6 6 6 6 6 7 7 6 6 6 6 5 5 6 5 4 4 6 12 21 27 21 21 20 35 61 50 76 60 60 65 66
6 6 6 6 5 5 5 5 5 5 5 6 6 7 7 7 6 7 7 7 7 7 7 7 7 8 8 7 7 7 7 7 6 5 5 4 5 8 24 30 28 21 80 71 61 72 71 78 78
7 6 6 5 6 5 6 6 5 6 6 7 9 10 9 9 8 8 7 7 7 7 7 7 7 7 7 8 8 8 8 8 9 9 7 5 5 5 9 18 41 32 30 86 96 62 69 83 90
14 12 10 10 9 9 9 11 8 12 12 13 12 11 11 10 10 9 9 8 8 8 8 7 9 9 8 8 8 8 8 8 8 10 11 10 8 10 10 8 8 34 39 31 39 91 92 72 96
28 27 26 23 23 22 22 21 19 18 19 20 20 20 23 24 25 24 21 22 20 20 18 18 17 18 17 17 16 12 11 9 9 10 12 18 24 14 12 9 6 4 13 38 44 36 53 66 66
39 39 37 34 33 33 32 32 31 30 29 29 31 30 32 32 30 28 24 22 21 20 19 18 18 18 17 17 17 17 18 19 17 16 30 28 35 35 20 14 7 5 5 5 11 45 51 41 39
47 48 48 46 45 45 44 43 43 43 43 39 35 31 24 18 13 12 12 11 10 9 8 8 9 10 12 13 14 15 15 17 21 32 39 54 62 69 60 11 7 6 6 5 6 6 17 54 49
60 57 56 61 74 77 69 64 54 41 32 25 18 14 9 8 14 11 8 9 10 9 10 14 13 12 9 7 8 9 11 11 12 22 38 44 55 56 58 39 12 8 8 9 9 8 7 6 44
80 72 69 71 67 58 52 38 28 19 14 10 8 8 18 30 25 13 12 15 23 28 27 27 22 16 14 9 8 8 9 12 25 33 32 41 56 56 60 41 30 12 10 7 8 11 9 7 8
67 77 66 59 52 39 23 17 11 8 8 10 16 22 31 40 32 14 21 26 30 30 36 48 59 50 21 18 20 32 65 90 89 77 75 84 78 67 62 45 24 15 10 8 11 14 11 7 6
74 68 58 42 23 13 7 8 11 17 24 26 31 35 38 44 33 25 36 45 56 64 65 40 36 32 37 37 79 67 83 86 100 100 100 100 100 92 66 44 21 12 8 10 16 13 9 8 8
67 45 27 16 10 8 13 22 30 32 37 52 49 49 46 51 49 57 58 66 78 78 80 42 38 64 82 90 100 97 98 100 100 90 90 92 68 59 51 24 16 11 14 15 14 11 8 10 18
28 21 12 12 22 23 33 36 44 50 54 61 59 57 57 56 51 51 65 72 80 93 72 82 50 59 72 87 91 99 96 100 93 100 100 87 73 70 61 28 14 12 13 14 11 17 19 38 48
14 12 24 32 33 37 45 50 47 59 58 61 59 57 42 46 57 60 63 77 86 93 66 68 86 96 94 96 85 84 86 93 95 80 68 78 68 52 33 29 33 35 52 54 82 96 44 43 52
24 43 42 41 39 42 50 54 60 61 68 68 64 58 57 58 65 69 71 71 82 88 77 64 80 96 98 100 96 53 56 62 68 74 79 100 100 94 93 96 99 98 92 89 96 96 64 93 88
47 53 50 44 45 52 51 49 50 58 62 59 59 59 57 55 54 55 63 70 73 70 70 79 83 87 89 98 99 98 100 98 99 97 96 98 98 98 96 96 98 98 99 99 96 92 98 99 98
64 58 55 54 52 44 31 32 27 24 27 41 52 54 52 48 46 45 38 34 28 24 31 47 76 76 36 92 92 96 97 96 96 95 94 97 98 97 98 98 98 98 98 97 98 94 99 98 98
22 20 21 24 23 21 18 15 13 12 10 11 13 12 11 13 17 22 16 11 11 9 9 10 11 11 11 11 11 13 16 47 90 47 21 21 15 17 18 17 16 12 12 70 96 97 100 99 99

GFSSGP_500_rhum_111.txt.gz
RH
10 9 9 10 10 10 10 9 9 9 9 10 10 9 10 10 12 14 15 15 15 15 15 14 12 14 11 9 9 8 13 14 15 19 24 24 25 26 23 24 18 16 14 14 16 16 12 8 6
9 9 9 10 10 10 10 9 8 8 9 9 8 8 8 10 10 10 11 12 14 15 15 16 16 14 19 17 23 23 17 18 19 16 19 22 20 24 25 18 16 17 17 16 15 16 17 14 13
9 10 10 12 14 12 10 9 8 9 10 9 8 8 8 10 10 9 9 10 10 12 14 15 17 18 27 32 26 29 32 28 37 34 28 16 12 14 26 25 15 14 16 17 16 15 16 17 16
15 16 15 16 18 14 10 10 10 9 10 10 9 8 9 10 9 8 9 9 10 10 11 12 16 16 17 21 32 33 36 37 34 32 40 32 23 16 12 17 15 12 15 15 16 17 16 16 17
20 18 18 22 19 16 16 16 15 15 12 10 9 9 10 9 9 8 9 9 9 10 10 10 10 11 12 15 18 22 26 33 41 39 44 48 40 36 25 21 19 12 7 10 15 16 18 17 16
20 19 22 25 20 18 20 20 18 16 15 15 13 12 12 12 11 11 10 9 9 9 10 10 11 11 11 11 16 18 20 22 26 33 37 43 47 50 47 41 41 39 25 15 8 12 16 19 19
28 28 29 28 20 18 24 24 22 22 20 18 17 16 19 22 21 19 16 12 10 10 10 10 10 10 11 14 13 12 23 24 21 27 27 38 39 43 44 46 45 45 52 38 33 26 20 17 18
18 26 29 28 24 24 28 28 26 26 24 24 22 22 25 27 26 28 27 25 24 21 18 15 13 12 10 10 10 10 10 14 32 39 28 25 37 48 50 47 44 38 42 33 33 34 32 27 28
12 15 18 18 20 27 30 29 28 27 26 24 23 21 17 13 18 18 19 20 23 25 25 25 24 24 23 20 17 14 12 10 12 30 44 28 26 27 34 52 52 49 37 26 32 40 40 29 26
8 9 10 10 10 15 16 14 13 10 8 8 8 8 8 8 8 8 8 8 8 8 7 8 9 9 9 11 14 16 18 21 20 14 13 25 28 27 28 34 42 50 51 50 33 28 32 44 30
6 6 6 6 6 6 6 6 6 6 7 8 8 7 6 6 6 6 5 5 5 5 5 4 4 4 4 4 4 4 4 5 6 9 17 19 18 23 26 24 23 32 39 52 51 43 42 39 46
6 5 5 5 6 6 6 6 6 6 7 7 6 5 5 5 5 5 5 5 5 5 5 6 6 5 5 6 5 5 5 4 4 4 4 6 10 17 22 23 24 18 17 23 32 49 47 46 59
5 5 5 5 5 6 6 6 6 7 6 6 5 5 4 4 4 5 5 5 6 6 6 6 6 6 7 7 7 6 6 6 5 5 5 6 5 4 4 7 14 24 23 20 18 22 44 40 55
6 5 6 6 6 6 6 6 7 6 5 5 5 4 5 5 6 6 6 6 6 6 6 6 7 7 7 7 7 7 7 7 7 7 8 6 6 7 6 4 4 5 11 34 38 33 29 50 67
6 6 6 6 6 6 6 6 6 5 5 5 5 5 5 5 6 6 7 7 7 6 6 6 6 6 6 6 6 6 6 7 7 7 7 8 8 8 8 8 6 5 5 6 20 57 57 60 89
7 7 7 7 6 6 6 6 6 6 6 6 6 6 8 8 9 8 9 10 10 8 8 8 8 7 7 7 8 7 6 7 8 7 7 8 8 9 9 10 11 10 7 10 11 12 27 45 43
10 9 8 8 7 7 7 8 9 13 15 17 17 17 22 23 24 24 24 22 23 20 21 20 19 18 16 14 12 12 12 11 15 13 12 10 10 15 27 26 52 40 18 15 10 8 6 7 22
17 16 16 15 17 20 21 25 22 24 25 29 33 35 37 39 36 33 30 26 23 21 20 19 18 18 17 17 17 17 17 18 18 19 19 20 22 45 45 49 64 73 66 36 16 12 8 4 4
27 28 28 27 32 32 30 33 35 34 42 46 50 43 34 29 24 20 14 12 11 9 9 8 7 7 8 7 7 7 8 11 15 16 18 20 42 44 61 59 65 87 73 65 53 27 9 7 6
33 33 33 35 36 34 35 46 55 55 51 40 33 26 19 14 10 8 7 7 10 12 11 10 10 10 9 8 9 11 11 12 12 12 12 14 53 62 72 83 86 94 93 90 73 41 15 10 10
38 38 40 50 56 59 59 50 44 39 31 21 15 11 8 7 9 18 22 18 20 10 8 10 10 10 11 11 12 11 11 11 10 9 11 12 13 58 97 100 95 100 98 94 78 62 25 14 10
66 69 67 58 56 53 52 38 31 19 11 9 8 10 17 21 23 25 22 26 18 19 26 35 24 16 15 13 12 12 13 14 22 39 50 82 85 62 61 99 99 98 97 85 71 62 42 24 12
72 64 62 56 51 44 29 16 10 10 10 15 20 25 30 28 37 31 38 36 45 43 40 50 26 23 19 23 38 47 55 65 50 90 94 99 92 98 97 90 79 82 64 70 74 60 48 29 14
68 66 60 49 28 14 9 9 16 23 20 24 32 43 46 45 48 49 42 50 51 44 41 47 42 50 65 78 52 68 89 86 99 100 100 100 99 99 99 99 99 90 98 82 67 54 45 25 11
64 49 28 16 10 10 19 22 24 36 41 43 48 48 46 41 32 40 45 49 56 52 44 45 60 66 78 82 56 57 73 72 68 78 93 88 72 76 77 78 76 73 64 52 43 40 36 20 15
29 18 12 9 21 23 24 34 40 52 60 58 50 49 46 42 48 47 47 51 52 56 54 52 63 70 76 74 78 54 48 69 73 65 54 60 59 62 50 46 47 52 62 51 38 32 32 30 32
12 13 24 29 26 28 40 48 50 58 61 52 46 51 59 58 52 52 49 46 44 51 57 56 43 23 68 83 82 83 85 84 90 88 56 41 62 88 98 96 64 93 98 99 99 96 88 92 85
29 32 36 36 34 40 43 46 42 36 35 42 43 42 37 42 42 39 33 27 20 17 22 9 8 9 12 12 19 34 74 94 100 100 100 97 97 95 96 99 99 99 99 99 98 98 98 98 98
40 42 40 44 46 44 37 31 16 12 11 10 9 8 8 9 9 8 10 8 9 10 12 12 13 13 13 14 14 14 14 13 19 47 21 20 38 47 53 43 68 64 45 41 38 28 76 98 96
24 23 27 33 34 33 18 12 9 7 5 6 6 7 8 8 9 10 11 10 10 11 12 13 12 13 14 15 16 17 17 17 17 18 19 20 20 20 20 20 19 20 20 20 18 18 17 16 17

GFSSGP_500_rhum_114.txt.gz
RH
13 12 11 10 10 9 9 9 9 10 10 9 9 9 10 10 10 12 13 14 15 16 16 15 15 18 29 26 17 12 11 15 16 17 19 24 27 23 21 26 24 22 18 16 16 15 18 14 9
14 13 11 10 10 9 9 9 9 9 10 9 8 9 10 10 9 9 9 10 11 12 14 15 16 17 21 23 24 20 25 24 22 19 16 14 21 24 25 26 26 19 18 18 17 16 16 16 17
13 12 11 10 9 9 9 10 10 10 10 9 8 8 9 10 9 9 9 9 10 10 10 11 14 31 26 22 29 36 29 33 35 28 34 29 21 16 13 13 24 29 25 16 17 18 17 16 16
12 11 10 9 9 9 9 10 10 11 11 10 10 8 9 9 8 9 9 9 9 10 10 10 14 15 17 18 19 24 25 33 39 39 35 36 44 32 23 16 11 15 18 13 13 16 17 18 16
10 10 9 9 9 11 11 13 13 14 14 14 11 10 9 9 9 9 9 9 9 9 10 10 12 27 13 12 12 19 25 26 22 26 37 44 45 50 43 37 28 20 17 14 8 8 14 16 18
10 11 13 14 15 14 15 16 15 17 18 17 16 14 13 11 11 10 10 10 9 9 10 10 10 10 11 16 12 14 16 17 24 30 33 28 31 36 45 50 46 40 38 37 33 22 12 9 15
19 20 21 18 17 16 17 19 20 19 20 19 19 18 17 15 16 16 16 18 17 15 13 12 11 10 10 10 10 11 11 13 13 20 30 36 40 41 45 47 48 48 46 43 42 44 34 32 19
22 20 20 16 16 18 21 23 24 25 25 24 24 23 22 23 21 19 19 21 22 22 21 21 20 19 18 16 14 13 12 10 10 10 10 20 32 41 36 34 45 52 50 46 43 40 36 30 30
32 29 26 24 21 25 26 26 24 26 26 25 25 27 27 26 25 24 23 22 22 22 22 22 23 23 23 23 24 23 22 24 27 18 14 11 11 23 39 34 26 34 42 55 55 52 44 35 33
23 21 16 14 17 24 28 28 25 28 29 29 27 25 19 14 12 10 10 9 9 9 9 9 9 8 8 8 8 9 10 12 16 16 19 21 21 16 12 17 28 26 24 29 34 45 55 58 50
9 9 10 11 13 14 18 19 21 21 18 12 8 8 8 8 8 8 7 7 7 6 6 6 5 5 5 4 4 4 5 4 4 5 5 5 8 14 20 19 15 15 20 24 24 24 33 46 52
7 7 8 7 6 7 8 9 8 7 6 7 7 8 8 7 7 5 5 5 5 5 5 5 5 5 5 6 6 6 6 6 6 5 5 5 5 4 5 8 15 19 21 22 23 24 21 19 23
5 6 6 6 6 6 6 6 6 6 6 6 7 8 7 5 5 5 5 5 5 5 5 5 6 6 6 6 6 6 6 7 7 7 7 7 6 6 6 7 6 4 6 11 18 24 46 53 25
5 5 6 6 5 6 6 6 6 6 6 7 8 7 5 5 5 5 5 5 6 6 6 6 6 6 6 6 6 6 7 7 6 7 7 7 7 7 7 8 7 7 6 6 6 28 12 56 70
6 5 6 6 6 6 6 6 6 6 6 7 7 6 5 5 5 5 5 5 5 5 5 6 6 6 5 5 6 6 5 6 6 6 6 6 6 6 7 7 7 8 8 8 8 8 5 8 51
6 6 6 6 6 6 6 7 7 6 6 6 6 4 4 4 4 5 6 6 8 10 11 12 11 11 11 9 8 8 8 7 7 8 7 7 7 7 7 7 7 8 8 9 10 9 9 6 6
7 6 6 7 6 6 6 6 7 6 6 5 5 6 8 9 11 12 16 24 29 28 27 26 23 21 20 19 17 15 15 14 12 10 12 11 12 15 15 12 17 19 48 40 18 18 19 13 10
8 8 7 7 7 7 6 6 6 6 7 10 12 15 24 29 32 38 37 31 26 22 19 17 15 14 13 12 10 10 11 12 14 16 18 18 18 18 18 27 48 61 61 72 74 68 58 53 36
12 11 11 10 10 9 9 14 13 15 17 20 24 28 36 43 39 29 23 18 15 13 11 8 8 10 9 8 7 7 7 8 8 8 8 9 11 16 20 23 52 74 72 89 100 92 86 76 75
19 18 18 18 19 19 20 26 24 25 26 30 43 44 37 27 21 16 13 9 7 7 9 14 13 11 14 17 16 15 14 12 11 9 8 8 10 13 14 14 24 58 94 87 92 98 97 90 84
24 24 25 25 26 26 27 29 41 47 50 44 39 29 20 14 9 8 8 9 12 14 16 17 20 18 21 24 26 21 18 13 11 11 12 12 16 20 24 38 48 28 39 96 100 96 96 95 95
33 32 30 29 30 36 47 44 53 52 46 35 21 11 8 8 11 18 22 19 24 28 22 30 30 32 33 33 34 34 19 20 37 34 24 23 24 35 62 44 82 86 93 96 98 97 98 97 98
43 42 44 49 51 50 48 44 46 36 21 11 8 11 12 21 34 30 31 38 34 31 34 36 29 31 39 42 38 29 18 36 62 63 63 100 89 90 79 57 63 97 100 97 98 98 98 98 97
60 57 54 53 54 50 47 36 17 10 10 14 20 28 34 31 30 30 26 26 37 44 46 41 34 40 50 49 46 39 25 33 52 65 63 79 95 95 100 88 76 90 88 89 95 94 81 84 75
61 61 54 50 49 35 18 9 12 16 18 27 42 38 31 30 36 37 36 41 46 46 45 51 45 44 52 57 58 58 46 37 42 57 57 61 63 68 66 66 90 85 84 92 90 68 63 73 69
57 55 47 29 14 10 13 16 20 23 30 38 40 38 38 39 43 44 44 44 40 34 33 41 18 8 51 45 47 65 72 72 79 77 51 47 56 45 39 42 35 24 34 40 40 43 44 46 41
41 22 12 10 16 15 17 22 38 47 52 50 39 35 33 26 32 35 37 34 26 15 8 6 8 9 10 10 9 10 12 34 71 80 86 86 71 73 78 81 86 88 85 73 81 87 98 98 98
11 12 18 16 18 20 30 38 42 35 23 20 20 20 16 12 9 10 14 10 7 8 9 9 9 9 9 10 11 11 12 13 14 32 19 16 24 43 57 70 60 66 85 80 88 88 86 91 96
20 20 20 24 29 32 36 33 23 14 10 8 7 6 6 6 6 7 8 8 9 9 9 9 10 11 13 16 18 21 22 23 23 22 21 20 19 19 19 20 20 20 21 20 20 21 21 21 19
35 32 32 34 37 30 29 14 8 5 5 5 6 6 7 8 9 10 11 12 13 13 14 16 18 18 19 20 26 32 37 40 47 64 71 71 69 66 64 61 58 53 50 45 42 37 32 27 23

GFSSGP_500_rhum_117.txt.gz
RH
11 11 12 12 11 10 10 10 9 10 10 10 10 10 10 10 10 11 11 12 13 14 15 16 16 15 18 24 30 26 16 19 15 18 18 22 25 27 27 23 21 24 25 22 17 13 14 16 18
12 13 13 12 11 10 10 10 9 9 10 10 10 10 10 9 9 9 9 9 9 10 12 13 14 18 18 21 24 24 26 23 27 26 21 18 16 20 21 24 27 28 28 21 18 19 16 14 15
14 15 15 13 12 10 10 9 9 9 10 11 10 10 10 10 9 9 9 8 9 9 9 10 10 12 24 25 23 23 33 41 36 36 35 33 39 35 30 24 14 11 17 26 27 20 18 18 15
15 15 15 13 12 11 10 9 9 9 10 11 10 10 10 9 9 9 8 9 9 9 9 9 10 10 23 21 15 18 22 27 31 36 44 44 41 38 42 36 32 20 13 10 17 16 16 14 17
13 14 13 13 11 10 10 9 9 9 11 12 12 10 10 10 9 9 9 9 9 9 9 9 9 9 10 21 17 16 12 15 23 27 30 36 36 43 48 50 47 42 32 24 17 18 10 6 11
12 13 13 12 11 10 9 9 10 11 12 15 15 14 14 14 13 12 10 10 10 11 11 12 11 10 10 9 10 11 12 16 13 16 18 25 32 42 41 45 47 52 53 49 42 41 39 30 12
10 10 11 11 10 9 9 12 16 14 13 15 18 17 16 18 17 15 14 13 13 14 15 17 19 18 18 18 16 14 12 12 11 18 12 12 13 24 31 37 40 46 50 53 55 53 50 46 42
12 12 10 10 10 10 14 19 19 18 17 18 20 20 22 23 22 22 21 19 18 18 17 18 18 18 19 19 21 22 23 23 22 19 15 11 10 10 12 25 32 35 37 46 50 54 53 56 51
22 20 16 15 15 17 18 18 18 20 20 18 20 20 21 22 23 24 25 25 24 24 23 22 20 20 20 19 20 20 20 20 21 22 23 23 25 20 12 11 10 18 31 34 29 39 49 58 57
23 21 19 19 19 19 19 21 22 22 20 18 20 24 24 24 25 27 25 20 16 14 13 12 12 11 10 9 9 8 8 7 8 8 10 13 17 20 21 21 18 16 14 17 23 28 28 28 33
30 26 25 26 27 29 27 23 22 21 22 24 26 29 29 27 21 12 8 8 8 8 7 8 7 7 6 5 5 5 5 5 5 5 5 5 5 5 7 12 18 21 21 21 18 16 20 26 28
30 29 30 28 28 25 19 18 20 21 22 23 22 15 9 7 7 8 7 7 6 5 5 5 5 5 5 5 5 5 5 5 6 6 6 6 6 6 5 5 5 5 6 10 17 22 24 23 25
19 18 17 15 15 14 12 11 12 13 12 9 7 7 7 8 7 7 6 5 5 5 5 4 5 5 5 5 5 6 6 6 6 6 6 7 7 7 7 7 7 7 8 12 27 6 11 23 50
8 9 10 11 9 7 7 7 7 7 6 6 7 7 7 7 7 6 5 5 5 5 5 5 5 5 6 6 6 6 6 6 6 6 6 6 6 6 6 6 6 6 7 7 14 17 8 20 16
7 7 7 7 7 6 6 6 6 6 6 6 6 6 7 7 7 6 5 4 4 4 4 5 5 5 6 6 6 8 9 10 10 9 8 6 5 6 6 6 6 6 6 6 6 14 17 16 23
7 6 6 6 6 6 6 6 6 6 6 6 6 6 7 7 6 5 4 5 6 7 8 9 11 13 15 18 20 21 21 19 19 18 18 16 11 8 9 8 8 8 8 7 7 7 8 9 44
6 6 6 6 6 6 6 6 6 6 6 6 6 7 6 6 5 4 6 8 12 19 28 30 27 24 22 19 17 16 14 13 12 12 13 14 15 17 17 20 21 19 18 16 14 18 38 30 24
7 6 6 6 6 6 6 6 6 6 6 6 6 6 5 5 6 9 15 23 28 31 30 24 19 16 13 11 10 9 7 7 7 7 7 7 7 8 10 10 13 19 25 34 51 61 62 76 96
8 7 6 6 6 6 6 6 6 6 6 5 5 6 9 12 19 28 33 32 31 25 18 14 9 7 8 8 7 8 11 15 15 16 13 12 11 8 6 7 9 13 25 51 50 62 81 86 88
8 8 8 7 7 7 7 8 8 9 10 11 14 18 22 31 35 35 31 25 18 11 7 7 12 15 12 15 16 15 16 19 22 24 22 20 15 13 14 13 10 17 31 29 43 60 62 97 87
10 10 10 11 12 13 14 16 16 18 20 24 32 38 37 37 33 24 15 8 8 11 18 21 18 18 21 22 20 24 24 23 15 10 12 16 17 17 15 13 16 17 29 39 42 49 98 68 98
16 16 17 18 19 20 22 23 26 30 39 42 37 37 36 27 14 8 14 20 19 21 24 21 23 25 26 24 27 34 27 28 16 16 27 48 68 73 70 41 16 24 38 42 77 46 56 50 99
21 21 21 23 25 28 32 39 40 44 38 37 36 32 17 8 13 18 19 22 21 20 24 34 37 29 31 32 32 37 34 34 31 30 26 43 50 47 52 62 76 67 58 57 99 100 75 100 100
31 31 34 38 43 45 44 44 40 40 37 31 17 10 11 24 23 22 25 26 29 31 34 36 36 34 34 27 37 39 38 42 41 48 40 36 47 46 46 61 56 53 45 41 74 75 94 94 92
56 56 53 50 49 45 46 36 34 27 16 10 10 24 36 33 29 30 33 33 32 34 28 20 25 20 11 28 14 8 8 12 26 35 50 52 44 46 57 51 45 51 64 84 69 59 58 66 66
57 56 52 48 42 39 34 28 15 10 11 13 27 40 37 33 34 28 28 31 30 29 23 7 6 7 7 7 8 8 9 10 10 12 12 28 60 68 62 61 62 63 70 61 51 37 31 31 33
55 50 46 40 36 26 15 9 10 13 29 38 39 36 28 25 22 13 15 24 30 19 6 5 5 6 7 8 8 10 16 20 22 20 18 16 15 15 18 34 53 64 73 79 89 89 86 85 76
41 36 26 13 10 9 10 12 27 35 37 30 27 22 17 11 7 6 6 5 6 6 6 7 8 10 12 14 17 20 23 26 32 41 51 58 58 50 42 34 29 24 23 21 20 20 19 18 17
13 10 11 13 12 12 17 24 28 22 13 8 6 5 5 6 6 6 6 7 8 9 10 12 15 17 18 19 21 26 36 49 56 57 50 47 48 47 47 45 47 49 49 46 47 48 49 52 51
14 13 12 16 19 22 23 25 12 5 4 5 6 7 9 11 12 13 14 14 15 15 16 17 19 22 26 30 36 41 51 60 56 38 31 27 26 24 22 20 21 22 23 24 26 27 27 25 24